GFSGL_con_sbcape_000.txt.gz
CAPE
152 0 19 72 14 1 0 0 0 0 0 21 23 4 0 0 0 18 13 0 0 0 25 40 52 2 0 0 0 0 0 0 0 0 0 0 0 0 0 0 0 16 111
362 123 159 236 66 21 16 2 0 0 0 0 0 0 0 0 1 13 49 45 34 45 44 13 39 20 0 0 0 0 0 0 1 0 0 0 0 0 0 0 3 9 54
580 248 65 30 14 26 28 8 0 0 0 0 0 0 0 0 0 7 23 68 68 57 65 24 25 21 9 0 0 0 0 0 0 0 1 0 0 0 0 1 0 0 21
543 395 15 0 0 11 25 9 0 0 0 0 0 0 0 0 0 17 46 124 66 42 18 31 59 18 12 0 0 0 0 0 0 0 0 1 0 0 0 6 2 1 2
574 374 70 5 0 0 9 0 0 0 0 0 0 0 0 0 25 138 148 95 73 52 75 73 68 55 71 20 9 0 0 0 0 2 2 0 0 0 1 7 21 4 0
418 377 164 85 23 12 28 27 11 16 4 0 11 43 13 19 157 63 12 4 1 9 11 2 13 120 152 216 145 130 9 0 0 3 0 0 2 8 18 10 18 16 10
281 244 191 155 83 95 127 72 75 58 16 7 53 8 26 74 60 19 29 0 0 0 0 0 0 36 87 59 17 20 25 34 59 29 16 14 23 27 32 20 19 14 17
177 254 324 323 241 223 156 130 158 209 191 155 56 36 139 50 115 176 14 0 0 0 0 1 0 0 0 0 0 0 0 0 0 0 1 6 8 14 23 20 10 13 9
164 217 363 450 402 273 221 214 288 246 159 58 83 43 39 66 69 134 5 0 0 0 0 0 0 0 0 0 0 0 0 0 0 0 0 0 3 1 14 14 29 19 7
184 293 366 399 362 282 279 383 447 440 227 312 152 105 0 58 10 0 0 0 0 0 0 0 0 0 0 0 0 0 0 0 0 0 0 0 1 4 1 25 9 13 6
204 187 231 523 375 338 437 658 629 269 0 0 9 24 13 0 0 0 0 0 0 0 0 0 0 0 0 0 0 0 0 0 3 3 2 1 3 4 5 25 5 13 3
65 33 0 0 179 679 887 669 134 38 13 0 1 21 3 0 0 0 0 0 0 0 0 0 0 0 0 0 0 0 0 0 2 4 4 2 3 2 3 13 11 3 0
0 15 0 0 0 0 180 329 151 16 0 0 25 30 0 0 0 0 0 0 0 0 0 0 0 0 0 0 0 0 0 0 4 3 3 1 3 2 2 10 14 5 2
0 0 0 0 0 47 178 115 82 76 13 7 0 0 0 0 0 0 0 0 0 0 0 0 0 0 0 0 0 0 0 0 1 3 3 3 3 1 1 8 15 7 6
0 0 2 14 104 27 0 0 0 0 0 0 0 0 0 0 0 0 0 0 0 0 0 0 0 0 0 0 0 0 0 0 0 0 2 1 1 1 1 2 7 11 9
0 0 1 166 33 0 0 1 0 0 0 0 0 0 0 0 0 0 0 0 0 0 0 0 0 0 0 0 0 0 0 0 0 0 0 0 0 2 2 2 4 6 5
33 97 5 17 0 0 0 0 0 0 0 0 0 0 0 0 0 0 0 0 0 0 0 0 0 0 0 0 0 0 0 0 0 0 0 0 0 0 2 3 2 1 0
17 4 0 0 0 0 0 0 0 0 0 0 0 0 0 0 0 0 0 0 0 0 0 0 0 0 0 0 0 0 0 0 0 0 0 0 0 0 0 1 2 1 1
17 6 22 14 12 0 0 0 0 0 0 0 0 0 0 0 0 0 0 0 0 0 0 0 0 0 0 0 0 0 0 0 0 0 0 0 0 0 0 0 0 0 0
0 8 4 2 0 0 0 0 0 0 0 0 0 0 0 0 0 0 0 0 0 0 0 0 0 0 0 0 0 0 0 0 0 0 0 0 0 0 0 0 0 0 0
0 0 3 0 0 0 0 0 0 0 0 0 0 0 0 0 0 0 0 0 0 0 0 0 0 0 0 0 0 0 0 0 0 0 0 0 0 0 0 0 0 0 0
0 0 2 0 0 0 0 0 0 0 0 0 0 0 0 0 0 0 0 0 0 0 0 0 0 0 0 0 0 0 0 0 0 0 0 0 0 0 0 0 0 0 0
0 0 0 0 0 0 0 0 1 0 0 0 0 0 0 0 0 0 0 0 0 0 0 0 0 0 0 0 0 0 0 0 0 0 0 0 0 0 0 0 0 0 0
0 0 0 0 0 0 0 0 0 0 0 0 0 0 0 0 0 0 0 0 0 0 0 0 0 0 0 0 0 0 0 0 0 0 0 0 0 0 0 0 0 0 0
0 0 0 0 0 0 0 0 0 0 0 0 0 0 0 0 0 0 0 0 0 0 0 0 0 0 0 0 0 0 0 0 0 0 0 0 0 0 0 0 0 0 0
0 0 0 0 0 0 0 0 0 0 0 0 0 0 0 0 0 0 0 0 0 0 0 0 0 0 0 0 0 0 0 0 0 0 0 0 0 0 0 0 0 0 0

GFSGL_con_sbcape_003.txt.gz
CAPE
36 0 0 0 0 0 0 0 0 0 0 0 0 0 0 0 0 0 0 0 0 0 0 10 2 0 0 0 0 0 0 0 0 0 0 0 0 0 0 0 0 0 0
154 3 0 0 0 0 0 0 0 0 0 0 0 0 0 0 0 0 0 0 0 0 11 0 6 2 0 0 0 0 0 0 0 0 0 0 0 0 0 0 0 0 0
229 56 4 45 24 0 0 0 0 0 0 0 0 0 0 0 0 0 0 0 0 10 32 19 11 0 0 0 0 0 0 0 0 0 0 0 0 0 0 0 0 0 0
483 237 64 79 68 28 0 0 0 0 0 0 0 0 0 0 0 0 0 0 13 30 39 23 0 8 9 0 0 0 0 0 0 0 0 0 0 0 0 0 0 0 0
828 478 222 140 51 25 0 0 0 0 0 0 0 0 0 0 0 0 4 49 74 49 28 18 1 0 74 16 1 0 0 0 0 0 0 0 0 0 0 0 0 7 1
956 759 301 113 15 1 0 0 0 0 0 0 0 0 0 0 0 16 44 25 16 0 0 0 0 0 0 60 188 214 19 0 0 0 0 0 0 0 0 4 4 14 11
1153 607 230 191 23 0 0 0 1 1 0 0 0 0 0 0 0 2 11 0 0 0 0 0 0 0 5 0 3 20 46 54 79 4 0 0 0 0 4 2 9 12 10
829 455 313 296 143 6 0 0 17 32 1 6 1 0 0 0 0 0 5 0 0 0 0 0 0 0 0 0 0 0 0 0 0 0 0 0 0 0 0 4 10 10 11
505 206 235 226 249 61 7 70 126 12 37 57 42 0 0 0 6 15 10 0 0 0 0 0 0 0 0 0 0 0 0 0 0 1 0 0 0 0 1 6 15 10 11
536 313 240 150 197 86 137 201 232 103 79 73 126 0 0 13 21 0 0 0 0 0 0 0 0 0 0 0 0 0 0 0 0 0 0 0 0 0 1 7 9 15 13
365 217 166 52 102 175 93 20 4 147 76 169 301 164 65 13 5 0 0 0 0 0 0 0 0 0 0 0 0 0 0 0 0 0 1 0 1 0 0 0 2 7 6
213 107 1 0 5 1 0 0 0 5 48 0 61 14 7 0 0 0 0 0 0 0 0 0 0 0 0 0 0 0 0 0 0 2 1 2 0 1 2 1 1 9 14
115 0 0 0 0 0 0 0 0 1 0 0 0 3 8 0 0 0 0 0 0 0 0 0 0 0 0 0 0 0 0 0 0 0 3 3 3 3 2 1 0 7 8
0 0 0 0 0 0 0 5 184 73 14 0 2 34 0 0 0 0 0 0 0 0 0 0 0 0 0 0 0 0 0 0 0 0 1 2 0 2 1 1 1 3 10
0 0 0 0 0 41 1 2 15 0 0 0 0 0 0 0 0 0 0 0 0 0 0 0 0 0 0 0 0 0 0 0 0 0 0 0 0 0 2 1 1 1 11
0 0 0 0 38 7 0 1 0 3 0 0 0 0 0 0 0 0 0 0 0 0 0 0 0 0 0 0 0 0 0 0 0 0 0 0 0 0 2 1 1 0 3
0 0 0 0 2 0 0 0 0 0 0 0 0 0 0 0 0 0 0 0 0 0 0 0 0 0 0 0 0 0 0 0 0 0 0 0 0 0 0 0 1 0 0
0 1 0 0 0 0 0 0 0 0 0 0 0 0 0 0 0 0 0 0 0 0 0 0 0 0 0 0 0 0 0 0 0 0 0 0 0 0 0 0 1 1 0
0 0 0 0 0 0 0 0 0 0 0 0 0 0 0 0 0 0 0 0 0 0 0 0 0 0 0 0 0 0 0 0 0 0 0 0 0 0 0 0 0 0 0
0 0 0 0 0 0 0 0 0 0 0 0 0 0 0 0 0 0 0 0 0 0 0 0 0 0 0 0 0 0 0 0 0 0 0 0 0 0 0 0 0 0 0
0 0 0 0 0 0 0 0 0 0 0 0 0 0 0 0 0 0 0 0 0 0 0 0 0 0 0 0 0 0 0 0 0 0 0 0 0 0 0 0 0 0 0
0 0 0 0 0 0 0 0 0 0 0 0 0 0 0 0 0 0 0 0 0 0 0 0 0 0 0 0 0 0 0 0 0 0 0 0 0 0 0 0 0 0 0
0 0 0 0 0 0 0 0 0 0 0 0 0 0 0 0 0 0 0 0 0 0 0 0 0 0 0 0 0 0 0 0 0 0 0 0 0 0 0 0 0 0 0
0 0 0 0 0 0 0 0 0 0 0 0 0 0 0 0 0 0 0 0 0 0 0 0 0 0 0 0 0 0 0 0 0 0 0 0 0 0 0 0 0 0 0
0 0 0 0 0 0 0 0 0 0 0 0 0 0 0 0 0 0 0 0 0 0 0 0 0 0 0 0 0 0 0 0 0 0 0 0 0 0 0 0 0 0 0
0 0 0 0 0 0 0 0 0 0 0 0 0 0 0 0 0 0 0 0 0 0 0 0 0 0 0 0 0 0 0 0 0 0 0 0 0 0 0 0 0 0 0

GFSGL_con_sbcape_006.txt.gz
CAPE
731 220 56 0 0 0 0 0 0 0 0 0 0 0 0 0 0 0 0 0 0 0 0 0 24 26 20 0 0 0 0 1 0 0 0 0 0 0 0 0 0 0 0
852 123 8 0 0 0 0 0 0 0 0 0 0 0 0 0 0 0 0 0 0 0 38 34 59 44 25 14 0 0 0 0 0 0 0 0 0 0 0 0 0 0 0
982 34 6 0 2 2 0 0 0 0 0 0 0 0 0 0 0 0 0 0 0 0 27 37 46 27 11 0 0 0 3 12 2 2 0 0 0 0 0 0 0 0 0
662 73 22 13 14 19 0 0 0 0 0 0 0 0 0 0 0 0 0 0 0 0 21 23 18 8 5 5 0 0 24 23 36 7 0 0 1 0 0 0 0 0 0
533 218 138 44 18 3 0 1 0 0 0 0 0 0 0 0 0 0 0 0 0 32 37 19 0 0 22 26 16 31 0 9 37 12 0 0 0 0 0 0 0 0 0
866 494 409 149 101 87 37 1 0 0 0 0 0 0 0 0 0 0 0 0 26 33 10 0 0 0 0 2 23 63 88 82 91 38 0 1 0 1 0 1 3 3 16
1049 792 572 173 72 0 0 9 0 0 0 0 0 0 0 0 0 0 0 22 0 0 0 0 0 0 4 0 0 4 31 40 93 178 1 5 8 0 7 13 10 3 18
1151 1013 442 113 46 0 0 0 4 1 0 0 0 2 0 9 2 0 1 21 0 0 0 0 0 0 0 0 0 3 0 0 0 0 0 0 3 6 12 13 4 16 13
1146 866 489 240 73 64 43 0 0 0 0 17 23 16 30 73 31 4 0 0 0 0 0 0 0 0 0 0 0 0 0 0 0 0 0 0 1 3 6 12 5 18 19
931 782 546 455 115 0 4 0 0 0 0 58 16 3 4 4 2 0 0 0 0 0 0 0 0 0 0 0 0 0 0 0 0 0 0 0 4 2 3 12 28 18 15
540 584 615 447 307 26 0 0 0 10 24 46 0 0 30 24 6 0 0 0 0 0 0 0 0 0 0 0 0 0 0 0 0 1 1 0 2 2 3 5 7 9 5
274 132 34 43 27 0 0 0 0 11 9 27 22 1 0 0 0 0 0 0 0 0 0 0 0 0 0 0 0 0 0 0 0 1 0 0 5 5 3 3 5 5 4
0 0 0 0 0 0 0 0 0 0 2 20 72 48 55 0 0 0 0 0 0 0 0 0 0 0 0 0 0 0 0 0 0 0 0 0 1 3 9 4 2 2 0
0 0 0 0 0 0 0 0 0 0 0 17 91 67 2 0 0 0 0 0 0 0 0 0 0 0 0 0 0 0 0 0 0 0 0 0 0 1 1 3 6 2 2
0 0 0 0 0 0 0 0 0 0 12 13 0 0 0 0 0 0 0 0 0 0 0 0 1 0 0 0 0 0 0 0 0 0 0 0 0 0 0 1 3 2 1
0 0 0 0 0 0 2 2 0 0 0 1 1 0 0 0 0 0 0 0 0 0 0 0 0 0 0 0 0 0 0 0 0 0 0 0 0 0 0 0 0 2 2
4 0 0 0 0 0 2 1 0 0 0 0 0 0 0 0 0 0 0 0 0 0 0 0 0 0 0 0 0 0 0 0 0 0 0 0 0 0 0 0 0 1 2
0 0 0 0 0 1 0 1 0 0 0 0 0 0 0 0 0 0 0 0 0 0 0 0 0 0 0 0 0 0 0 0 0 0 0 0 0 0 0 0 0 0 2
0 0 0 0 0 0 1 1 0 0 0 0 0 0 0 0 0 0 0 0 0 0 0 0 0 0 0 0 0 0 0 0 0 0 0 0 0 0 0 0 0 0 0
0 0 0 0 0 0 0 1 0 0 0 0 0 0 0 0 0 0 0 0 0 0 0 0 0 0 0 0 0 0 0 0 0 0 0 0 0 0 0 0 0 0 0
0 0 0 0 0 0 0 0 1 0 0 0 0 0 0 0 0 0 0 0 0 0 0 0 0 0 0 0 0 0 0 0 0 0 0 0 0 0 0 0 0 0 0
0 0 0 0 0 0 0 1 1 0 0 0 0 0 0 0 0 0 0 0 0 0 0 0 0 0 0 0 0 0 0 0 0 0 0 0 0 0 0 0 0 0 0
0 0 0 0 0 0 0 0 0 0 0 0 0 0 0 0 0 0 0 0 0 0 0 0 0 0 0 0 0 0 0 0 0 0 0 0 0 0 0 0 0 0 0
0 0 0 0 0 0 0 0 0 0 0 0 0 0 0 0 0 0 0 0 0 0 0 0 0 0 0 0 0 0 0 0 0 0 0 0 0 0 0 0 0 0 0
0 0 0 0 0 0 0 0 0 0 0 0 0 0 0 0 0 0 0 0 0 0 0 0 0 0 0 0 0 0 0 0 0 0 0 0 0 0 0 0 0 0 0
0 0 0 0 0 0 0 0 0 0 0 0 0 0 0 0 0 0 0 0 0 0 0 0 0 0 0 0 0 0 0 0 0 0 0 0 0 0 0 0 0 0 0

GFSGL_con_sbcape_009.txt.gz
CAPE
2082 2552 2518 2250 1925 1821 1224 342 274 334 275 308 329 123 81 48 65 168 226 97 100 226 482 529 567 637 373 413 370 247 155 113 112 0 8 22 0 43 35 54 29 0 0
2435 2502 2125 1902 1710 874 1157 145 356 24 210 205 242 194 147 103 145 270 228 0 153 306 311 526 539 398 605 576 300 371 351 238 142 134 153 51 106 112 119 178 68 0 0
2296 2036 1893 1374 989 1538 216 123 136 205 168 78 174 228 187 199 360 438 327 109 232 334 380 479 467 606 622 305 287 174 141 500 191 136 98 46 57 118 139 183 105 28 2
1979 2062 1845 1358 1381 467 280 330 169 150 336 215 153 277 272 324 290 169 19 155 291 289 399 485 556 511 409 242 184 249 220 195 151 149 96 66 69 244 135 113 51 22 12
2388 2189 1973 1365 1028 1054 394 65 2 0 57 61 125 134 217 158 30 46 125 277 493 497 458 669 586 359 87 45 52 85 198 190 107 96 90 82 73 75 124 79 46 23 76
2562 2276 1925 1572 1045 723 201 108 1 0 0 11 1 87 253 65 0 0 36 360 549 634 617 584 426 22 1 0 0 34 77 144 159 699 191 142 230 149 123 31 11 3 3
2434 2204 1881 1594 1066 686 356 214 83 20 0 0 0 14 421 380 5 0 0 216 495 532 604 529 227 68 7 55 4 0 15 2 44 200 142 158 128 81 26 13 10 17 15
2298 2212 1924 1571 1088 681 566 440 149 11 157 3 16 227 643 455 26 0 0 181 415 547 474 325 212 172 127 9 26 48 78 79 83 37 28 17 6 1 6 18 20 14 12
2227 2302 2128 1654 1150 883 804 351 495 162 102 176 127 185 294 310 2 0 4 112 200 368 470 180 63 60 0 0 0 6 59 57 5 0 0 0 0 0 1 17 9 21 12
2155 2285 2225 1627 1386 951 702 299 267 145 21 95 139 417 368 929 15 2 15 73 64 145 184 29 0 0 0 0 0 0 37 49 4 0 0 0 1 1 0 12 6 23 29
2219 2242 1951 1513 1352 1210 576 441 302 226 5 58 277 560 258 281 297 0 6 281 64 78 138 44 9 0 0 0 0 1 5 0 0 0 0 0 0 1 2 3 2 13 53
1919 1824 1345 1348 715 385 274 191 435 271 11 1 66 47 80 196 3 0 0 3 3 117 232 58 0 0 0 0 0 0 0 0 0 0 0 0 0 0 0 0 0 2 8
1612 1167 912 969 556 236 230 151 53 16 42 2 32 70 112 118 72 0 0 1 0 6 4 0 0 0 0 0 0 0 0 0 0 0 0 0 0 0 0 0 0 2 5
1024 822 922 932 590 411 277 198 361 112 27 7 88 217 380 351 178 4 0 0 0 0 0 0 0 0 0 0 0 0 0 0 0 0 0 0 0 0 0 0 0 3 8
853 663 511 369 454 277 78 1 11 50 0 36 69 477 515 377 136 4 0 1 0 0 0 0 0 0 2 2 0 0 0 0 0 0 0 0 0 0 0 0 0 3 12
601 380 193 9 7 0 0 1 0 0 0 0 0 71 0 0 0 0 0 0 0 0 0 0 0 1 3 1 0 0 0 0 0 0 0 0 0 0 0 0 0 2 12
616 332 86 21 147 51 0 0 0 0 0 0 0 0 0 0 0 0 0 0 0 0 0 0 0 1 0 0 0 0 0 0 0 0 0 0 0 0 0 0 0 0 0
489 0 7 7 18 0 0 0 0 6 14 0 0 0 0 0 0 0 0 0 0 0 0 0 0 0 0 0 0 0 0 0 0 0 0 0 0 0 0 0 0 0 0
53 6 17 27 55 54 91 46 64 95 53 0 0 0 0 0 0 0 0 0 0 0 0 0 0 0 0 0 0 0 0 0 0 0 0 0 0 0 0 0 0 0 0
169 6 19 101 30 79 76 107 104 71 3 0 0 0 0 0 0 0 0 0 0 0 0 0 0 0 0 0 0 0 0 0 0 0 0 0 0 0 0 0 0 0 0
358 149 37 199 226 193 166 155 131 23 5 0 0 0 0 0 0 0 0 0 0 0 0 0 0 0 0 0 0 0 0 0 0 0 0 0 0 0 0 0 0 0 0
51 114 240 261 244 210 207 113 95 97 38 25 6 0 0 0 0 0 0 0 0 0 0 0 0 0 0 0 0 0 0 0 0 0 0 0 0 0 0 0 0 0 0
85 120 182 198 270 10 163 275 248 144 66 49 21 0 0 0 0 0 0 0 0 0 0 0 0 0 0 0 0 0 0 0 0 0 0 0 0 0 0 0 0 0 0
90 74 61 73 119 156 235 241 192 6 25 19 8 0 0 0 0 0 0 0 0 0 0 0 0 0 0 0 0 0 0 0 0 0 0 0 0 0 0 0 0 0 0
16 25 30 34 38 83 58 95 73 23 21 26 6 0 0 2 6 0 0 0 0 0 0 0 0 0 0 0 0 0 0 0 0 0 0 0 0 0 0 0 0 0 0
0 0 0 0 0 0 0 5 10 4 9 19 8 9 23 32 29 5 0 0 0 0 0 0 0 0 0 0 0 0 0 0 0 0 0 0 0 0 0 0 0 0 0

GFSGL_con_sbcape_012.txt.gz
CAPE
2449 3018 2941 2715 2845 3153 3158 2857 2293 1603 1191 942 881 359 493 216 199 330 215 39 114 118 37 180 356 481 164 63 62 64 69 58 38 1 4 44 38 133 128 139 98 85 57
2984 3207 2837 2943 2890 2852 3601 2886 2746 1871 1007 1006 819 714 368 248 218 321 142 4 20 17 111 312 424 275 417 472 176 196 117 121 100 115 101 29 278 399 91 185 154 65 73
2669 2366 2461 2770 2801 3175 3108 2759 1537 1297 788 780 718 666 447 320 242 280 332 224 126 83 219 364 412 470 474 216 246 137 90 78 132 91 106 79 31 40 162 444 161 351 92
1988 2368 3066 2930 2897 2805 3006 2392 1016 425 464 156 420 273 257 499 467 269 319 358 153 107 334 485 514 595 330 362 230 286 247 167 217 127 157 96 124 264 104 114 66 50 43
2635 2424 2877 3193 2853 2530 3017 1927 1003 590 529 202 98 166 147 414 209 731 485 180 153 329 426 515 587 785 433 217 149 254 210 150 154 107 91 67 113 99 220 74 58 68 300
2991 2760 3206 3658 3174 2733 2972 1661 735 294 253 18 6 0 5 97 1 10 115 156 279 482 673 727 702 311 208 30 0 0 1 109 135 116 75 134 331 183 120 98 105 60 58
2923 2969 3109 3413 3262 2992 2815 1746 974 532 296 1 0 0 14 17 0 0 0 53 229 503 822 1040 928 414 232 356 87 0 0 0 0 106 162 201 200 157 274 269 85 26 11
3049 3088 3145 3180 3059 2676 2170 1842 1436 699 281 256 40 27 50 64 27 0 0 128 343 718 1053 1059 1114 867 740 455 370 157 121 169 168 107 171 136 126 46 15 9 12 30 15
2781 3003 3001 2957 2824 2516 1917 1166 1139 790 378 125 107 226 181 344 2 0 1 380 400 1090 1107 746 694 534 42 0 48 103 128 117 10 0 0 0 0 0 0 9 5 24 23
2619 2922 3021 3021 2835 2272 1996 1715 946 471 327 124 328 311 412 481 62 0 0 217 1005 279 326 806 4 16 0 0 0 32 39 89 87 41 23 15 1 12 2 25 22 80 93
2526 2903 3169 3172 2776 2426 2280 1501 826 437 354 525 638 806 259 358 473 0 0 367 468 399 527 710 199 0 0 0 0 0 42 6 0 0 4 4 1 19 41 55 39 27 13
2992 3020 3195 2624 2129 1929 1166 859 574 748 1052 872 842 881 641 416 103 0 0 6 54 614 734 378 5 0 0 0 0 0 0 0 0 7 15 0 6 11 7 2 0 2 1
2895 2938 1977 1929 1538 1181 678 568 494 748 619 740 757 356 0 324 232 0 0 0 0 175 523 37 0 0 0 0 0 0 0 0 10 5 1 0 3 2 0 16 13 33 128
2162 1566 1380 977 794 694 497 499 738 794 681 942 561 359 264 399 416 192 0 2 0 12 0 0 0 0 0 0 0 0 0 2 2 0 0 0 0 0 0 0 0 0 26
1646 1473 1415 989 1182 970 1 146 560 518 130 666 259 28 293 280 521 246 149 270 267 30 50 84 29 106 94 74 26 9 5 4 1 0 0 0 0 0 0 0 0 14 18
1558 1507 1349 1208 1113 821 362 20 0 0 0 1 0 56 0 1 0 0 0 0 0 0 0 36 44 56 47 47 24 16 5 0 0 0 0 0 0 0 0 0 0 12 15
1240 1159 609 528 714 530 306 125 38 0 0 0 0 0 0 0 0 0 0 0 0 0 0 5 8 13 20 10 3 0 0 0 0 0 0 0 0 0 0 0 0 3 13
1099 379 687 564 489 433 448 522 142 102 70 0 0 0 0 0 0 0 0 0 0 0 0 0 5 7 4 0 0 0 0 0 0 0 0 0 0 0 0 0 0 0 12
795 457 250 144 103 74 209 198 201 143 440 34 0 0 0 0 0 0 0 0 0 0 0 0 0 0 0 0 0 0 0 0 0 0 0 0 0 0 0 0 0 0 0
132 11 14 142 231 489 593 501 417 486 540 193 12 0 0 0 0 0 0 0 0 0 0 0 0 0 0 0 0 0 0 0 0 0 0 0 0 0 0 0 0 0 1
121 195 9 381 283 233 223 211 215 286 276 270 243 69 0 16 8 11 6 0 0 0 0 0 0 0 0 0 0 0 0 0 0 0 0 0 0 0 0 0 0 0 0
281 202 142 103 134 151 179 206 252 259 249 245 199 0 0 0 34 18 4 0 0 0 0 0 0 0 0 0 0 0 0 0 0 0 0 0 0 0 0 0 0 0 0
170 147 197 278 255 32 182 251 285 302 265 216 120 49 0 0 21 17 10 2 0 0 0 0 0 0 0 0 0 0 0 0 0 0 0 0 0 0 0 0 0 0 0
170 194 236 210 139 126 146 212 243 27 187 99 47 35 37 22 24 15 13 8 1 0 0 0 0 0 0 0 0 0 0 0 0 0 0 0 0 0 0 0 0 0 0
158 140 130 133 109 86 162 142 165 40 30 47 42 42 39 34 32 14 30 13 6 3 0 0 0 0 0 0 0 0 0 0 0 0 0 0 0 0 0 0 0 0 0
38 18 11 5 3 5 9 19 22 31 32 40 42 31 34 47 49 44 40 27 12 10 5 0 0 0 0 0 0 0 0 0 0 0 0 0 0 0 0 0 0 0 0

GFSGL_con_sbcape_015.txt.gz
CAPE
3581 3696 3833 3711 3851 4517 4317 4078 3805 2606 2670 1907 1950 1123 668 926 373 429 512 293 409 545 298 95 156 390 66 29 42 46 29 27 32 20 26 137 934 675 487 379 146 312 84
3060 3814 3886 4009 3961 3808 4364 4249 4189 3441 2714 2356 2032 1410 1112 850 777 660 459 226 198 133 101 646 306 93 1474 1490 258 847 289 281 19 530 190 45 392 590 832 1060 163 52 77
2811 3043 3697 3691 4136 3873 4406 4276 4181 3661 3144 1741 1717 1115 1202 597 401 496 867 888 770 576 513 914 730 959 1423 574 1105 454 72 325 226 83 75 103 33 148 263 275 505 223 215
1798 2101 3089 3737 3765 3893 4382 4290 4343 4014 3034 1692 1906 1458 1008 351 426 276 586 597 945 776 857 960 859 1021 1427 1365 971 1371 1052 506 295 86 97 90 95 84 251 175 125 41 96
2401 2431 2942 3741 3980 4128 4119 4437 4395 3657 2711 1965 1760 1415 887 460 265 75 503 571 965 913 783 925 1014 1054 555 581 607 996 1387 408 131 99 107 70 121 164 165 164 99 83 62
3370 3204 3519 4338 4131 4172 4404 4527 4369 3764 2785 2092 1564 1118 460 153 0 94 533 597 754 1009 1098 1257 1357 796 418 164 121 48 50 173 528 172 89 103 338 207 144 150 88 30 19
3969 4528 4299 4818 4753 4784 4624 4542 4130 3722 2411 1792 1311 737 456 100 0 0 0 247 652 720 866 1444 1223 545 406 667 173 1 1 0 0 160 325 399 422 425 505 408 318 93 8
4608 4476 4761 4835 5073 4932 4553 4347 3739 2676 1743 1703 1306 587 199 250 0 0 0 83 247 303 784 1371 1556 1502 1155 722 722 254 435 751 420 102 300 387 478 365 122 65 76 27 31
4439 4584 4673 4739 4768 4779 4271 3805 2849 2050 1571 1072 828 521 479 868 0 0 0 0 110 297 530 1286 1518 1323 284 35 65 222 590 632 174 0 8 0 0 0 1 1 8 23 26
3906 3859 4359 4452 4606 4203 3782 3163 2827 2245 1420 795 570 353 221 776 5 0 0 330 729 579 627 1408 238 188 4 0 5 158 290 338 182 194 160 14 11 19 1 31 50 59 50
2911 3007 3634 3816 4184 4108 3652 2891 2463 2136 1409 1008 554 659 916 913 659 0 0 175 160 165 169 1019 991 19 0 0 0 32 187 58 183 1 4 50 185 195 30 148 404 87 29
3708 3664 3754 4074 3356 3115 3084 2569 2033 1240 712 567 677 826 1168 1413 432 0 0 8 63 207 430 931 488 4 0 0 0 0 0 0 0 0 25 37 71 9 7 18 146 82 13
3959 4254 3999 3467 2721 2650 2371 1872 1391 895 592 586 729 1384 1439 883 1303 0 0 0 0 21 317 33 11 0 0 0 0 0 0 0 0 48 82 10 0 2 89 40 72 148 128
3739 2930 2683 2344 1862 1717 1652 1234 875 806 818 911 1069 1198 1079 874 122 342 27 0 0 0 2 15 0 0 0 0 0 0 0 1 24 9 0 0 0 2 0 0 0 0 0
2183 1732 1554 1334 1407 726 165 404 821 52 340 1073 840 1107 735 615 528 130 35 99 259 100 212 317 75 100 128 108 24 28 21 81 38 8 0 0 0 0 0 0 0 0 1
2120 1744 1574 1409 713 390 39 2 0 0 2 0 0 92 0 0 0 0 0 0 0 0 121 288 217 187 316 200 336 173 209 40 18 5 0 0 0 0 0 0 0 0 8
2157 2148 1569 1393 1125 1127 953 811 418 0 0 0 0 0 0 0 0 0 0 0 0 0 11 57 56 92 181 322 246 28 20 8 3 0 0 0 0 0 0 0 0 0 0
1542 648 1012 990 785 615 526 380 316 160 31 1 0 0 0 0 0 0 0 0 0 0 0 0 26 75 39 34 8 2 1 1 0 0 0 0 0 0 0 0 0 0 0
1024 874 826 664 468 187 295 401 153 97 111 38 0 0 0 0 0 0 0 0 4 28 19 4 1 2 2 1 0 0 0 0 0 0 0 0 0 0 0 0 0 0 0
800 103 119 307 124 94 215 154 150 139 221 136 3 0 0 0 0 0 0 0 0 0 1 0 0 0 0 0 0 0 0 0 0 0 0 0 0 0 0 0 0 0 0
357 149 0 179 106 280 313 264 180 181 192 261 113 18 0 0 29 41 20 18 5 3 2 0 0 0 0 0 0 0 0 0 0 0 0 0 0 0 0 0 0 0 0
194 206 71 211 134 173 121 116 145 143 127 143 85 6 0 18 92 20 35 20 17 11 2 0 0 0 0 0 0 0 0 0 0 0 0 0 0 0 0 0 0 0 0
205 113 139 111 200 62 143 193 177 161 165 154 65 9 32 63 43 101 44 22 16 16 5 0 0 0 0 0 0 0 0 0 0 0 0 0 0 0 0 0 0 0 0
148 118 152 409 287 310 146 133 301 20 102 87 20 68 15 15 30 88 39 40 23 12 11 4 0 0 0 0 0 0 0 0 0 0 0 0 0 0 0 0 0 0 0
138 176 136 211 116 138 143 120 120 84 50 28 16 34 39 31 19 44 39 25 21 7 21 6 0 0 0 0 0 0 0 0 0 0 0 0 0 0 0 0 0 0 0
62 42 49 82 92 76 71 73 80 81 50 43 49 49 41 27 20 33 35 16 23 33 19 18 9 0 0 0 0 0 0 0 0 0 0 0 0 0 0 0 0 0 0

GFSGL_con_sbcape_018.txt.gz
CAPE
3887 3803 3954 3945 3965 3565 3886 3275 2995 3075 2296 2356 2118 1525 1211 1045 1328 845 527 592 481 857 690 770 671 1029 455 429 525 453 316 228 169 50 49 184 228 239 107 191 219 149 86
3681 3550 3837 3983 3965 4038 3502 3988 3593 3121 3153 2468 2026 1517 1173 850 1000 635 402 307 532 596 684 654 659 384 958 1085 854 763 731 256 319 317 302 265 443 716 679 575 223 56 74
3340 3286 3534 3473 3695 3672 4042 3458 3983 3422 2681 1758 2105 1527 998 852 669 457 460 437 227 440 510 612 379 697 1044 905 916 721 560 428 537 194 95 56 165 72 20 102 87 331 144
3023 3061 3154 3302 3370 3366 3607 3977 3797 3699 2975 2444 1915 1627 998 924 597 458 425 553 642 604 792 769 842 916 1102 1253 992 1104 861 717 311 213 90 51 189 29 48 35 2 31 46
2394 2673 2982 3276 3367 3481 3519 3873 3779 3930 3500 2907 1905 1798 1187 857 621 471 487 584 705 655 727 698 662 970 844 848 892 926 847 291 171 84 93 126 97 163 86 62 43 35 11
1857 2407 2758 3065 3444 3384 3781 3580 4121 3973 3830 3084 2296 1742 1428 863 336 238 436 599 772 798 651 843 696 838 623 315 127 31 10 94 140 62 11 83 111 134 101 66 36 11 0
2330 2462 2567 3025 3393 3590 3598 3878 3835 3987 3940 3204 2285 1742 1573 989 18 11 0 571 783 935 744 832 174 351 431 384 181 44 61 12 0 0 11 32 145 190 129 62 44 24 0
2697 3023 3056 3386 3657 3779 3748 3806 4047 4085 3995 3436 2386 1575 1249 901 0 0 0 262 575 746 253 39 157 423 250 200 200 404 238 170 49 33 0 9 197 256 181 35 6 0 0
3440 3950 3913 4544 4447 4301 4234 4309 4285 4290 3974 2473 1673 1134 955 608 6 0 0 0 59 238 47 0 245 246 602 151 142 215 108 125 311 113 121 121 35 0 0 10 3 0 0
3597 4157 4576 4929 5096 4906 4903 4765 4640 3588 2677 1725 1292 1024 617 408 32 0 0 0 0 264 752 475 91 487 670 213 96 205 240 204 282 273 183 24 11 3 11 18 21 28 17
4103 4760 4741 4978 4992 5082 5068 4172 2865 2278 2020 1536 997 582 402 351 391 0 0 155 194 413 413 488 335 441 86 40 0 233 160 24 0 145 153 5 0 41 86 120 89 54 66
4683 4592 4756 4925 4372 4515 4242 3337 2384 2076 1624 1164 995 752 565 575 140 0 0 3 163 137 320 412 768 616 9 0 0 0 0 0 0 0 0 0 13 36 12 6 15 11 4
4150 4445 4607 4606 4179 3319 2802 2443 2046 1557 1055 794 506 572 858 1648 1119 0 0 0 0 13 220 0 0 0 0 0 0 0 0 0 0 0 1 14 1 0 0 0 16 105 200
4600 4426 3403 3064 2687 2412 2072 1872 1297 1008 884 948 990 1298 1422 1460 957 29 0 0 0 0 0 0 0 0 0 0 0 0 0 0 19 121 22 0 4 0 0 0 0 0 0
3328 2744 2002 1586 1738 337 0 423 1007 192 705 1051 936 843 1123 1142 658 625 408 190 40 2 17 189 14 0 0 5 10 24 2 25 41 68 54 6 0 0 0 0 0 0 0
2159 1801 1561 1012 752 531 127 0 0 1 0 0 0 682 0 105 0 0 0 0 0 0 100 749 389 294 164 184 227 168 64 37 29 46 29 0 0 0 0 0 0 0 0
1924 1930 1418 886 948 785 691 250 0 0 0 0 0 0 0 0 0 0 0 0 0 0 254 429 356 299 332 117 60 24 29 36 28 13 1 4 0 0 0 0 0 0 0
2998 1777 1785 1523 1358 1296 1071 899 489 17 4 0 0 0 0 0 0 0 0 0 0 0 4 12 94 380 246 432 63 17 11 7 0 0 0 0 0 0 0 0 0 0 0
1550 870 1519 1143 1016 1034 893 679 420 237 194 0 0 0 0 0 0 0 0 0 10 42 8 19 69 18 14 6 7 0 0 0 0 0 0 0 1 0 0 0 0 0 0
545 287 805 893 399 672 538 585 274 404 59 0 0 0 0 0 0 0 0 0 0 31 45 28 2 0 0 0 0 0 0 0 0 0 0 0 0 0 0 0 0 0 0
883 552 0 603 349 201 269 279 217 172 241 48 38 0 0 0 0 0 0 2 33 50 56 23 9 0 0 2 0 0 0 0 0 0 0 0 0 0 0 0 0 0 0
500 470 121 218 266 854 612 488 339 196 107 84 75 0 0 0 21 105 2 11 30 13 33 30 0 0 3 0 0 0 0 0 0 0 0 0 0 0 0 0 0 0 0
125 64 20 178 6 24 42 154 268 89 10 102 51 0 0 20 112 49 41 34 5 2 2 13 0 0 0 0 0 0 0 0 0 0 0 0 0 0 0 0 0 0 0
259 26 17 173 324 131 421 388 2 6 92 72 51 39 32 105 40 25 21 11 2 0 0 24 7 0 0 0 0 0 0 0 0 0 0 0 0 0 0 0 0 0 0
58 38 76 160 94 95 135 47 103 68 78 107 122 132 91 36 28 23 28 25 6 8 7 3 2 0 0 0 0 0 0 0 0 0 0 0 0 0 0 0 0 0 0
34 33 44 76 27 23 59 131 70 77 36 69 91 91 73 75 22 23 19 11 9 12 21 19 7 3 0 0 0 0 0 0 0 0 0 0 0 0 0 0 0 0 0

GFSGL_con_sbcape_021.txt.gz
CAPE
2637 2303 2769 3006 2505 2304 2310 1798 1454 1399 954 928 1022 756 310 366 401 423 110 61 339 38 189 98 127 37 34 3 14 0 0 2 0 0 0 0 11 0 0 3 3 4 1
2948 2737 2467 2806 2851 2396 2148 2119 1912 1218 1133 1229 1035 911 444 133 406 444 95 180 82 288 140 52 20 94 43 5 42 34 62 0 0 0 1 4 19 32 24 26 27 42 6
3030 2995 2852 2617 2904 2793 2327 2318 2519 1675 1656 1252 1365 946 570 362 354 520 140 53 115 159 255 136 50 24 48 126 131 96 127 54 29 9 0 0 0 0 0 0 0 4 18
3134 3007 2896 2853 2858 2917 2921 2352 2525 2544 1783 1168 1141 906 573 342 399 365 197 87 117 91 74 200 94 26 28 313 291 233 103 90 61 60 14 0 0 1 0 0 0 0 0
2900 2987 2747 2833 2914 2943 2876 3039 2505 2571 2243 1595 1177 871 598 286 371 173 201 192 172 251 155 143 114 215 373 406 420 171 187 101 45 52 25 0 0 0 1 0 0 0 0
2621 2757 2700 2553 2701 2677 2781 2781 3121 2502 2737 1848 1206 1102 740 477 434 227 244 227 242 316 255 325 233 426 483 322 229 6 16 12 15 26 3 0 0 11 9 0 0 0 0
1902 2518 2542 2456 2558 2593 2650 2695 3063 3059 3013 2680 1928 1199 1008 658 394 97 256 192 317 296 273 399 425 461 64 163 15 25 21 2 28 13 0 0 0 0 42 14 0 0 0
1468 2024 2298 2378 2466 2665 2713 2931 2833 3238 3091 3051 2507 1488 1236 761 442 17 127 76 199 268 429 438 142 2 21 72 36 21 31 57 43 11 0 0 0 4 16 37 12 0 0
1283 1450 2025 2237 2501 2555 2836 2804 3060 3006 3224 3191 2565 1713 1380 400 20 0 0 0 23 54 96 36 0 0 17 80 59 29 25 63 52 23 2 31 22 0 44 0 0 0 0
1222 1762 1908 2089 2354 2737 2914 2955 3090 3232 3259 2712 1762 1326 925 372 0 0 0 0 0 0 11 13 0 0 39 131 48 41 70 94 49 20 10 0 0 0 0 0 0 0 0
1836 2072 2378 2724 2805 3108 3094 3267 3380 2683 1755 1337 1059 718 467 314 0 0 0 0 0 0 0 129 26 42 19 74 19 33 70 3 0 0 0 0 0 0 0 6 7 6 4
3619 3194 4325 4111 4104 4123 3713 3027 2451 2001 1613 1075 677 373 273 177 169 0 0 0 0 0 9 1 43 150 152 29 0 0 0 0 0 0 0 0 0 0 0 0 0 0 1
3797 3970 4038 3636 3845 3196 2677 1988 1499 1420 1179 928 736 553 413 362 237 16 0 0 0 0 0 0 0 0 0 0 0 0 0 0 0 0 0 0 0 0 0 0 0 0 0
3693 3422 2744 2721 2315 2081 1752 1494 1200 917 795 617 478 476 440 629 135 0 0 0 0 0 0 0 0 0 0 0 0 0 0 0 0 0 7 0 0 0 0 0 0 0 0
2646 2187 1776 1338 578 0 1 339 662 209 545 707 611 562 590 574 259 0 0 0 0 0 0 0 0 0 0 0 0 0 0 0 0 3 21 0 0 0 0 0 0 0 0
1439 1168 619 552 124 1 0 0 0 0 0 77 140 387 0 88 350 3 0 0 0 0 0 0 0 0 0 0 0 0 1 4 7 10 1 0 0 0 0 0 0 0 0
1099 728 570 463 333 138 10 0 0 0 0 0 0 0 0 0 0 0 0 0 0 0 0 0 13 0 2 8 8 18 26 15 4 0 0 0 0 0 0 0 0 0 0
933 632 579 451 422 244 61 0 0 0 0 0 0 0 0 0 0 0 0 0 0 0 0 0 0 0 0 0 0 0 0 0 0 0 0 0 0 0 0 0 0 0 0
1143 922 769 579 504 512 390 39 0 0 0 0 0 0 0 0 0 0 0 0 0 0 0 0 0 0 0 0 0 0 0 0 0 0 0 0 0 0 0 0 0 0 0
486 1382 1101 928 794 754 670 435 0 0 0 0 0 0 0 0 0 0 0 0 0 0 0 0 0 0 0 0 0 0 0 0 0 0 0 0 0 0 0 0 0 0 0
15 0 171 51 138 169 93 128 63 0 0 0 0 0 0 0 0 0 0 0 0 0 0 0 0 0 0 0 0 0 0 0 0 0 0 0 0 0 0 0 0 0 0
68 9 0 6 15 23 5 1 3 4 1 0 0 0 0 0 0 0 0 0 0 0 0 0 0 0 0 0 0 0 0 0 0 0 0 0 0 0 0 0 0 0 0
0 40 0 7 32 21 24 0 0 17 2 0 0 0 0 0 0 0 0 0 0 0 0 0 0 0 0 0 0 0 0 0 0 0 0 0 0 0 0 0 0 0 0
18 38 24 3 17 3 0 0 0 0 0 0 0 0 0 0 0 0 0 0 0 0 0 0 0 0 0 0 0 0 0 0 0 0 0 0 0 0 0 0 0 0 0
0 1 29 16 0 0 0 1 14 4 11 0 0 0 0 0 0 0 0 0 0 0 0 0 0 0 0 0 0 0 0 0 0 0 0 0 0 0 0 0 0 0 0
4 18 13 0 0 4 5 13 7 10 29 4 5 21 9 0 0 0 0 0 0 0 0 0 0 0 0 0 0 0 0 0 0 0 0 0 0 0 0 0 0 0 0

GFSGL_con_sbcape_024.txt.gz
CAPE
1742 1740 1784 1615 1297 1693 1878 1329 992 284 245 332 609 219 76 24 0 132 40 61 0 0 55 5 8 0 0 0 0 0 0 0 1 5 0 0 0 0 0 6 0 0 0
2019 2035 2024 1909 1769 1565 1766 1762 1252 741 354 447 489 427 178 85 22 88 60 59 70 8 0 26 6 9 14 2 1 8 0 0 0 0 5 0 1 0 0 2 0 0 0
2008 2001 2276 2335 2202 1878 1639 1718 1417 1213 606 601 529 610 325 149 153 114 127 47 0 13 37 0 1 0 3 5 7 15 44 50 10 11 21 0 0 0 0 0 0 0 0
2275 2050 2004 2314 2590 2327 2001 1738 1751 1592 976 770 681 663 481 171 95 273 240 53 4 1 2 23 4 0 0 8 32 115 47 56 35 27 17 16 0 0 0 0 0 0 0
2416 2465 2250 2154 2371 2624 2381 2037 1801 2101 1541 954 908 761 531 312 168 120 215 99 1 1 16 8 17 18 7 5 29 48 43 43 29 30 22 12 4 0 0 0 0 0 0
2578 2619 2615 2515 2372 2389 2574 2508 2142 1942 2354 1213 878 829 459 391 313 192 218 143 49 32 13 11 32 84 100 62 147 99 43 25 31 13 8 7 0 0 0 0 0 0 0
2611 2735 2697 2651 2637 2607 2554 2589 2682 2279 2033 1742 864 733 502 476 233 101 87 65 65 74 50 23 43 200 122 68 1 3 19 21 28 11 9 0 0 0 0 0 0 0 0
2465 2673 2781 2646 2602 2646 2681 2656 2601 2817 2295 2242 1483 971 897 646 332 4 62 129 126 140 87 81 113 200 21 2 0 4 16 17 24 24 8 1 0 0 0 0 0 0 0
2063 2452 2653 2623 2495 2557 2546 2560 2550 2760 2810 2628 2436 1472 1123 908 252 0 9 60 131 128 179 258 310 55 0 6 0 15 26 14 42 33 5 0 0 0 0 0 0 0 0
1793 1865 2455 2480 2402 2392 2512 2452 2566 2655 2868 2825 2716 1767 1342 1278 0 0 120 36 11 16 27 16 1 0 0 0 0 0 5 2 5 0 0 0 0 0 0 0 0 0 0
1618 1713 1871 2327 2315 2339 2374 2527 2581 2618 2716 2736 2316 1438 1079 543 0 0 9 0 5 0 0 0 0 0 0 0 0 7 6 1 8 0 0 0 0 0 0 0 0 0 0
1221 1266 1305 1844 2127 2163 2297 2544 2515 2571 2376 1565 816 523 433 119 0 0 0 0 0 0 0 0 0 1 0 0 0 0 0 0 0 0 0 0 0 0 0 0 0 0 0
1069 1044 1546 1672 1864 2306 2521 2722 2613 1999 1658 995 809 518 352 165 0 0 0 0 0 0 0 0 0 0 0 0 0 0 0 0 0 0 0 0 0 0 0 0 0 0 0
1615 1819 2621 2860 3071 2901 2744 2486 2092 1610 1099 800 639 429 351 236 67 0 0 0 0 0 0 0 0 0 0 0 0 0 0 0 0 0 0 0 0 0 0 0 0 0 0
2999 3127 3152 2529 2056 751 29 704 894 420 753 637 535 283 302 192 2 0 0 0 0 0 0 0 0 0 0 0 0 0 0 0 0 0 0 0 0 0 0 0 0 0 0
2104 1299 743 230 1 1 1 1 4 1 0 225 291 53 1 122 41 0 0 0 0 0 0 0 0 0 0 0 0 0 0 0 0 0 0 0 0 0 0 0 0 0 0
1045 446 119 84 43 17 2 0 0 1 0 0 4 0 0 0 0 0 0 0 0 0 0 0 0 0 0 0 0 0 0 0 0 0 0 0 0 0 0 0 0 0 0
325 308 177 31 23 35 23 0 0 8 0 0 0 0 0 0 0 0 0 0 0 0 0 0 0 0 0 0 0 0 0 0 0 0 0 0 0 0 0 0 0 0 0
89 164 142 81 19 0 0 0 0 0 0 0 0 0 0 0 0 0 0 0 0 0 0 0 0 0 0 0 0 0 0 0 0 0 0 0 0 0 0 0 0 0 0
240 249 190 90 32 1 0 0 0 0 0 0 0 0 0 0 0 0 0 0 0 0 0 0 0 0 0 0 0 0 0 0 0 0 0 0 0 0 0 0 0 0 0
318 361 299 241 223 144 27 0 0 0 0 0 0 0 0 0 0 0 0 0 0 0 0 0 0 0 0 0 0 0 0 0 0 0 0 0 0 0 0 0 0 0 0
0 37 151 247 95 97 31 1 0 0 0 0 0 0 0 0 0 0 0 0 0 0 0 0 0 0 0 0 0 0 0 0 0 0 0 0 0 0 0 0 0 0 0
0 0 0 0 0 0 0 0 0 6 0 0 0 0 0 0 0 0 0 0 0 0 0 0 0 0 0 0 0 0 0 0 0 0 0 0 0 0 0 0 0 0 0
0 0 0 0 0 0 0 0 0 0 0 0 0 0 0 0 0 0 0 0 0 0 0 0 0 0 0 0 0 0 0 0 0 0 0 0 0 0 0 0 0 0 0
16 7 1 0 0 0 0 0 0 0 0 0 0 0 0 0 0 0 0 0 0 0 0 0 0 0 0 0 0 0 0 0 0 0 0 0 0 0 0 0 0 0 0
26 34 29 7 0 0 0 0 0 0 0 0 0 0 0 0 0 0 0 0 0 0 0 0 0 0 0 0 0 0 0 0 0 0 0 0 0 0 0 0 0 0 0

GFSGL_con_sbcape_027.txt.gz
CAPE
916 1053 1081 1037 991 832 734 697 670 334 122 261 435 197 47 0 0 0 0 0 0 0 0 0 0 0 0 0 0 0 0 0 0 0 0 0 0 0 0 0 0 0 0
923 945 902 933 1070 1249 1115 946 855 502 73 110 299 197 78 23 0 26 3 6 0 0 0 0 0 0 0 0 0 0 0 0 0 0 0 0 0 0 0 0 0 0 0
966 1117 1104 1087 1033 1032 1285 1414 1098 844 210 189 239 330 120 49 6 0 28 3 0 0 0 0 0 0 0 0 0 0 0 0 0 0 1 0 0 0 4 0 0 0 0
1160 1282 1320 1374 1370 1249 1104 1146 1341 1238 612 309 260 398 285 96 41 10 0 0 0 0 0 0 0 0 0 0 0 0 0 0 2 3 4 1 4 0 0 0 0 0 0
1346 1525 1510 1534 1575 1524 1405 1249 1252 1335 1060 622 417 383 366 208 150 103 34 9 0 0 0 0 0 0 0 0 0 2 1 0 1 3 0 1 0 0 0 0 0 0 0
1521 1666 1683 1758 1842 1827 1732 1517 1297 1295 1376 784 673 544 490 408 268 85 176 147 13 0 0 1 3 35 13 0 0 6 6 3 0 0 0 0 0 0 0 0 0 0 0
1784 1787 1746 1688 1792 2036 2077 1902 1635 1457 1534 1050 987 794 590 501 318 61 36 154 44 25 0 40 0 2 0 0 0 4 2 0 1 2 1 0 0 0 0 0 0 0 0
1930 1995 2053 1925 1880 1867 2013 2144 2030 1722 1607 1823 1154 925 822 571 360 23 19 111 31 17 85 56 18 11 3 0 0 0 0 0 0 5 4 0 0 0 0 0 0 0 0
2026 2086 2174 2262 2180 2091 2046 2102 2170 2159 1825 1755 1448 989 871 796 199 3 0 179 100 81 51 41 18 4 2 0 0 0 0 0 0 0 0 0 0 0 0 0 0 0 0
2110 2175 2291 2344 2296 2258 2248 2224 2213 2281 2393 2049 1839 1285 1153 1237 281 8 0 270 207 166 107 95 41 7 0 0 0 0 0 0 0 3 0 0 0 0 0 0 0 0 0
1950 2175 2204 2385 2361 2284 2269 2225 2284 2300 2409 2481 2184 2014 1394 1282 323 0 15 316 322 193 187 5 0 0 0 0 0 0 0 0 0 0 0 0 0 0 0 0 0 0 0
1341 1609 1940 2141 2411 2316 2254 2334 2342 2418 2573 2708 2664 2301 1623 676 2 0 0 246 114 62 2 0 0 0 0 0 0 0 0 0 0 0 0 0 0 0 0 0 0 0 0
1135 1287 1392 1754 2256 2277 2205 2304 2272 2375 2540 2548 2279 1594 607 148 0 0 0 0 3 0 0 0 0 0 0 0 0 0 0 0 0 0 0 0 0 0 0 0 0 0 0
824 1124 1240 1252 1881 2079 2119 2260 2398 2607 2593 2076 1361 875 750 271 19 0 0 0 0 0 0 0 0 0 0 0 0 1 0 0 0 0 0 0 0 0 0 0 0 0 0
667 800 941 1086 1283 1202 241 1385 2532 1991 2235 1596 1248 676 368 184 81 0 0 0 0 0 0 0 0 0 0 0 0 0 0 0 0 0 0 0 0 0 0 0 0 0 0
1647 1200 1641 669 97 1 55 0 2 265 443 290 256 48 1 10 0 0 0 0 0 0 0 0 0 0 0 0 0 0 0 0 0 0 0 0 0 0 0 0 0 0 0
27 116 6 10 16 250 417 194 5 0 3 9 3 2 50 0 2 2 2 2 2 0 0 0 0 0 0 0 0 0 0 0 0 0 0 0 0 0 0 0 0 0 0
20 159 244 248 318 250 109 104 41 82 39 0 0 1 2 2 2 2 1 1 0 0 0 0 0 0 0 0 0 0 0 0 0 0 0 0 0 0 0 0 0 0 0
143 74 350 443 99 47 6 0 0 6 22 0 0 0 0 1 1 1 0 0 0 0 0 0 0 0 0 0 0 0 0 0 0 0 0 0 0 0 0 0 0 0 0
1 109 205 51 0 1 0 0 0 0 0 0 0 0 0 0 0 0 0 0 0 0 0 0 0 0 0 0 0 0 0 0 0 0 0 0 0 0 0 0 0 0 0
11 32 29 8 1 0 0 0 0 0 0 0 0 0 0 0 0 0 0 0 0 0 0 0 0 0 0 0 0 0 0 0 0 0 0 0 0 0 0 0 0 0 0
0 0 13 14 2 0 0 0 0 0 0 0 0 0 0 0 0 0 0 0 0 0 0 0 0 0 0 0 0 0 0 0 0 0 0 0 0 0 0 0 0 0 0
0 0 0 0 0 2 0 0 0 0 0 0 0 0 0 0 0 0 0 0 0 0 0 0 0 0 0 0 0 0 0 0 0 0 0 0 0 0 0 0 0 0 0
0 0 0 0 0 0 0 0 0 0 0 0 0 0 0 0 0 0 0 0 0 0 0 0 0 0 0 0 0 0 0 0 0 0 0 0 0 0 0 0 0 0 0
0 0 0 0 0 0 0 0 0 0 0 0 0 0 0 0 0 0 0 0 0 0 0 0 0 0 0 0 0 0 0 0 0 0 0 0 0 0 0 0 0 0 0
1 0 0 0 0 0 0 0 0 0 0 0 0 0 0 0 0 0 0 0 0 0 0 0 0 0 0 0 0 0 0 0 0 0 0 0 0 0 0 0 0 0 0

GFSGL_con_sbcape_030.txt.gz
CAPE
806 787 762 743 753 671 416 434 414 477 551 523 742 775 544 161 5 2 0 0 0 0 0 0 0 0 0 0 0 0 0 0 0 2 0 0 0 11 2 0 2 12 0
849 969 912 824 801 755 602 583 557 465 399 464 555 673 536 266 80 37 21 14 0 0 0 0 0 0 0 0 0 0 0 0 0 42 1 0 2 0 0 0 0 0 0
605 975 1009 923 848 842 774 777 664 581 354 356 490 557 431 268 85 99 87 61 11 0 0 0 0 0 0 0 0 0 0 0 0 0 10 0 8 3 2 0 4 0 1
516 768 922 1009 977 1019 1020 981 835 796 422 409 415 577 462 294 196 121 130 110 70 41 11 0 0 0 12 0 0 0 0 2 0 7 17 23 20 29 3 0 2 0 0
637 725 879 900 932 984 1068 1158 1190 1115 829 485 490 533 541 410 278 215 140 120 128 100 103 61 4 0 0 0 0 0 0 0 1 14 6 0 9 9 5 0 0 0 0
789 859 971 1067 1067 1080 1059 1032 1123 1280 1259 742 600 588 604 581 352 132 182 179 138 140 136 94 71 36 3 0 0 0 0 0 13 18 13 23 55 24 0 5 0 5 0
955 1024 1164 1236 1308 1353 1365 1271 1141 1171 1313 1141 916 784 725 753 263 118 133 330 230 188 204 144 92 113 11 104 1 0 0 0 1 17 32 49 103 99 23 0 0 0 0
1148 1186 1428 1503 1490 1536 1580 1529 1424 1303 1282 1378 1187 1066 957 915 232 87 113 466 421 323 206 176 300 252 88 92 148 0 0 1 6 41 69 116 83 17 21 18 0 0 0
1409 1422 1598 1730 1716 1732 1822 1853 1759 1588 1442 1466 1381 1181 1110 1125 259 77 19 390 332 294 200 213 177 147 100 0 3 24 5 0 0 0 0 0 0 0 0 0 4 3 0
1727 1746 1802 1797 1714 1682 1810 1990 2053 1985 1835 1685 1730 1499 1150 1313 170 6 26 471 336 349 348 215 74 207 0 0 96 0 0 0 3 4 12 3 0 0 0 0 3 0 0
1655 1882 1951 1977 1949 1817 1792 1859 1951 2153 2155 1954 1861 1696 1426 1245 850 0 0 584 535 442 320 280 142 0 0 0 1 1 2 2 0 0 0 0 0 0 0 0 0 0 0
1586 1821 1962 2118 2202 2159 2162 2125 2098 2180 2296 2352 2208 1977 1633 1541 946 1 0 453 434 470 370 397 146 0 0 0 0 0 0 0 0 0 0 0 0 0 0 0 0 0 0
1005 1563 1973 2142 2369 2395 2393 2246 2213 2332 2434 2426 2332 2210 2114 1783 196 1 0 3 18 365 188 104 5 0 0 0 0 0 0 0 0 0 0 0 0 0 0 0 0 0 0
715 963 1301 1870 2223 2457 2384 2320 2271 2381 2444 2443 2461 2315 2088 467 63 0 0 0 1 0 0 0 0 0 0 0 0 1 0 0 0 0 0 0 0 0 0 0 0 0 0
242 336 803 1226 1493 2235 1279 1345 2358 2369 2350 2446 2399 2233 1270 268 2 1 2 1 1 0 0 1 1 0 0 0 0 1 1 1 0 0 0 0 0 0 0 0 0 0 0
1127 1184 771 980 501 12 25 0 1 524 1315 1123 566 317 92 1 1 0 12 0 1 0 0 0 0 0 0 0 0 0 0 0 0 0 0 0 0 0 0 0 0 0 0
210 291 162 126 140 152 317 171 0 0 2 2 6 2 0 0 1 0 0 0 2 0 0 0 0 0 0 0 0 0 0 0 0 0 0 0 0 0 0 0 0 0 0
0 85 207 130 351 352 459 187 11 6 54 0 1 0 1 1 1 2 1 1 0 0 0 0 0 0 0 0 0 0 0 0 0 0 0 0 0 0 0 0 0 0 0
0 15 326 420 225 106 53 2 1 4 3 2 5 2 1 1 1 1 1 0 2 1 0 0 0 0 0 0 0 0 0 0 0 0 0 0 0 0 0 0 0 0 0
0 25 72 1 0 4 0 1 1 1 2 0 1 1 2 0 0 0 0 2 2 0 0 0 0 0 0 0 0 0 0 0 0 0 0 0 0 0 0 0 0 0 0
76 6 0 2 1 1 2 6 2 2 2 2 1 0 0 0 0 0 0 0 0 0 0 0 0 0 0 0 0 0 0 0 0 0 0 0 0 0 0 0 0 0 0
10 18 10 7 5 9 1 1 2 1 1 0 1 0 0 0 0 0 0 0 0 0 0 0 0 0 0 0 0 0 0 0 0 0 0 0 0 0 0 0 0 0 0
0 0 0 1 0 0 1 0 0 0 0 2 0 0 0 0 0 0 0 0 0 0 0 0 0 0 0 0 0 0 0 0 0 0 0 0 0 0 0 0 0 0 0
0 0 0 0 0 0 0 0 0 0 0 0 0 0 0 0 0 0 0 0 0 0 0 0 0 0 0 0 0 0 0 0 0 0 0 0 0 0 0 0 0 0 0
0 0 0 0 0 0 0 0 0 0 0 0 0 0 0 0 0 0 0 0 0 0 0 0 0 0 0 0 0 0 0 0 0 0 0 0 0 0 0 0 0 0 0
0 0 0 0 0 0 0 0 0 0 0 0 0 0 0 0 0 0 0 0 0 0 0 0 0 0 0 0 0 0 0 0 0 0 0 0 0 0 0 0 0 0 0

GFSGL_con_sbcape_033.txt.gz
CAPE
1743 1757 1766 1737 1849 2021 2105 2207 2283 2380 2095 2321 2180 2158 2297 2264 1903 1596 1301 921 627 565 355 416 478 454 142 101 90 48 0 0 0 0 0 44 13 165 49 116 82 195 116
1727 1847 1883 1943 1959 2021 2121 2209 2316 2400 2279 2686 2450 2198 2310 2219 1974 1740 1477 984 831 733 634 480 430 221 395 245 111 194 37 23 0 278 115 101 131 266 150 295 56 14 78
1740 1815 1934 1982 2077 2140 2261 2290 2331 2415 2461 1981 2242 2344 2139 2174 2056 1742 1783 1388 1062 928 775 630 563 420 321 180 161 128 72 172 233 75 53 99 92 100 130 125 109 52 46
1486 1826 2078 2179 2174 2182 2333 2357 2347 2450 2488 2501 2453 2403 2273 2072 2053 1847 1790 1636 1404 1182 956 745 669 630 516 502 365 386 327 264 264 170 92 138 239 178 108 76 50 30 64
1696 1784 2076 2293 2390 2352 2402 2421 2406 2447 2426 2480 2515 2508 2231 2066 1850 1952 1842 1728 1589 1410 1134 877 731 721 350 504 554 730 698 474 330 249 217 190 122 97 60 9 68 84 72
1795 1766 2051 2405 2508 2438 2444 2449 2507 2490 2523 2523 2465 2491 2447 1998 1322 854 1537 1932 1889 1759 1651 1204 1227 334 85 19 29 285 621 679 617 338 203 174 351 307 18 114 86 11 109
1861 1935 2050 2302 2499 2534 2536 2598 2615 2600 2584 2568 2399 2441 2435 2424 736 236 285 1920 1800 2035 2059 1676 1281 856 229 506 24 0 0 31 249 808 604 516 568 339 344 307 138 250 306
1931 2069 2107 2212 2370 2402 2474 2514 2672 2701 2762 2758 2558 2456 2490 2421 444 51 82 1577 2188 2146 1848 1893 1699 1312 865 998 904 516 367 345 133 202 724 890 593 425 383 186 383 385 340
2099 2189 2237 2026 2059 2440 2497 2535 2541 2567 2670 2809 2788 2778 2633 2650 342 6 23 1340 2040 1846 1711 1564 1617 1517 981 122 870 991 834 781 120 5 34 12 0 0 61 189 317 178 80
2262 2285 2348 2407 2464 2603 2696 2727 2765 2729 2675 2588 2821 2957 2353 2755 353 0 40 1580 1989 1738 1935 1729 525 1397 689 0 905 1117 1133 910 535 91 14 2 0 3 0 180 273 45 8
2001 2178 2576 2830 2791 2771 2976 3018 3064 2828 2783 2711 2878 2983 2905 2503 2325 0 0 1732 2038 1871 1851 1603 1576 65 2 0 100 1234 1190 762 325 428 294 120 29 24 33 47 85 8 0
2419 2742 3206 3212 2602 2580 3125 2911 3093 2987 3434 3185 3082 2873 2651 2800 1536 1 0 130 1473 1770 1777 1604 1024 3 0 0 0 438 89 137 301 106 50 6 8 10 1 0 0 0 0
2565 2998 3023 3134 3194 3418 3263 2955 2879 3391 3244 3134 3112 2794 2738 2442 2339 316 1 0 70 1408 1584 749 515 1 1 1 0 0 0 201 104 48 24 4 0 10 0 0 0 0 0
2572 3005 3172 3132 3175 3465 3141 2510 2912 2997 3122 3229 3307 2915 2738 2570 1814 0 0 0 0 32 1 0 4 2 3 0 1 0 121 257 97 68 70 0 0 0 0 0 0 0 0
2123 2183 2467 2735 2835 3361 3588 3480 3202 3435 3166 3272 3307 3010 3195 1175 0 0 0 2 1 0 1 4 4 3 3 2 2 0 0 21 1 65 1 0 0 0 0 0 0 0 0
2669 2025 1655 1845 2234 2661 3096 1238 1 104 1902 2236 2391 2840 1908 8 1 2 2 1 1 0 1 0 3 4 3 1 0 3 2 0 27 1 0 0 0 0 0 0 0 0 0
1028 1315 1024 1014 1692 1641 1540 1526 1461 244 0 29 683 22 0 0 1 1 1 1 1 0 1 2 2 5 4 0 0 0 0 0 0 0 0 0 0 0 0 0 0 0 0
562 4 417 843 623 699 835 1027 556 394 105 1 0 1 1 0 0 1 1 1 0 1 0 2 2 2 2 0 0 0 0 0 0 0 0 0 0 0 0 0 0 0 0
167 343 419 114 2 53 1 1 29 65 117 2 0 0 0 1 1 0 0 7 2 11 7 4 0 1 20 6 0 0 0 0 0 0 0 0 0 0 0 0 0 0 0
440 37 237 25 0 0 0 0 0 0 1 0 2 1 5 1 5 3 1 9 10 7 3 34 3 23 80 2 0 0 0 0 0 0 0 0 0 0 0 0 0 0 0
138 155 12 420 300 84 2 6 4 1 0 0 0 0 0 4 5 7 11 5 3 7 13 66 79 30 1 0 0 0 0 0 0 0 0 0 0 0 0 0 0 0 0
87 61 174 80 63 10 3 12 7 9 3 1 1 1 0 4 6 11 8 15 40 9 12 1 0 0 0 0 0 0 0 0 0 0 0 0 0 0 0 0 0 0 0
627 188 75 138 69 0 7 5 10 13 8 7 7 6 5 14 16 9 3 0 0 0 0 0 0 0 0 0 0 0 0 0 0 0 0 0 0 0 0 0 0 0 0
427 463 356 149 120 43 6 6 6 2 7 8 5 9 9 8 1 0 1 0 0 0 0 0 0 0 0 0 0 0 0 0 0 0 0 0 0 0 0 0 0 0 0
71 55 111 192 79 41 21 40 9 7 2 1 4 3 1 0 0 0 0 0 0 0 0 0 0 0 0 0 0 0 0 0 0 0 0 0 0 0 0 0 0 0 0
12 48 32 2 7 23 2 1 1 19 4 0 0 0 0 2 16 11 2 5 5 0 0 0 0 0 0 0 0 0 0 0 0 0 0 0 0 0 0 0 0 0 0

GFSGL_con_sbcape_036.txt.gz
CAPE
3062 3300 3261 2858 2913 3191 3492 3773 3840 3234 3654 3013 3097 2547 2445 2625 2952 3123 2813 2219 2029 1811 1040 644 968 807 118 90 107 63 40 11 0 0 0 272 347 292 30 117 166 134 106
2895 3458 3329 3107 3231 3003 3356 3496 3955 3839 3549 3551 3289 3047 2764 2499 2872 3143 2891 2226 2153 1968 1600 1086 885 689 810 913 232 930 404 355 58 220 208 116 587 428 584 626 172 51 43
2653 2362 2577 2681 2778 3342 3721 3588 3725 3905 4026 2811 3334 3979 3141 2825 3141 3140 2918 2753 2414 2172 1856 1591 1208 826 1072 477 453 367 286 254 405 155 70 263 60 296 532 600 485 277 100
1815 2113 2908 3113 3265 3287 3587 3712 3792 3949 4064 3886 3941 4077 3663 3116 2876 2960 2848 2821 2784 2419 2187 1856 1508 986 1250 941 491 699 626 357 538 307 177 110 252 346 303 158 207 354 90
2553 2074 2920 3338 3573 3566 3603 3831 3849 3990 3917 4033 4079 4075 4083 3164 2380 3445 3390 2880 3192 2812 2439 2177 1759 1308 644 839 597 1331 1575 738 277 438 400 226 243 182 331 216 125 92 371
2802 2835 3057 3580 3804 3786 3821 3947 4116 4075 4023 4122 4080 4136 4066 3048 1729 1393 2706 3248 3512 3288 3301 2743 2425 1082 634 349 346 471 1276 1730 1640 391 402 599 1107 579 256 243 44 229 90
2748 3169 3412 3840 3946 4072 4067 4156 4165 4118 4112 4183 4141 4188 4183 4087 1634 663 1149 2898 3297 3650 3704 2923 2319 1889 1239 1349 200 133 253 574 593 1537 1251 1322 988 934 903 571 590 329 293
3115 3269 3522 3714 3959 4106 4202 4133 4185 4206 4106 4166 4177 4237 4221 4090 1988 283 382 2832 3519 3842 3579 3356 3411 3065 2426 1636 1591 894 541 941 786 606 1067 1072 1564 986 858 667 582 611 481
3184 3410 3595 3663 3345 3581 4190 4235 3907 3630 3882 3796 3602 4297 4312 4162 1650 127 245 2431 2696 3806 3753 3452 3605 3520 2477 837 1748 1746 1210 1140 309 141 152 67 22 128 393 355 259 414 168
3130 2948 3472 3605 3758 3803 4166 4267 4126 3648 3559 3220 3372 4215 3754 4292 1640 37 187 2304 2610 2479 3667 3970 1841 2744 2142 209 1641 2465 1978 1756 1488 798 422 41 14 24 0 275 234 155 94
2287 2358 3217 3801 4035 4031 4360 4279 4053 3934 3508 3975 4075 4145 4291 3986 3857 0 0 2573 2666 2861 2630 3029 2969 746 402 5 422 1747 1520 1827 1421 1397 567 511 496 360 176 110 370 215 40
2594 2594 3577 3937 3053 2919 4330 4429 4322 4074 4169 4242 3970 3428 3771 4001 2608 123 0 363 1848 2862 2956 2741 2752 265 21 0 3 665 732 729 1024 545 611 420 466 285 216 211 379 150 0
2993 3615 3406 3413 3388 3808 4137 4000 3523 3983 3246 3577 3525 3164 3258 3239 4019 1134 0 0 66 1791 2728 2571 1906 0 0 1 1 47 35 404 478 519 267 448 225 219 403 103 29 31 14
3167 3371 3551 3720 3604 3512 3378 3501 3373 3342 3335 3104 3243 2916 3403 3648 3906 3698 324 0 0 84 181 52 0 0 0 0 1 1 94 110 484 512 262 315 316 94 43 3 1 0 0
3297 3334 3457 3385 3512 3721 3822 3415 3345 3672 3028 3293 3434 3526 3236 3596 3625 3307 287 4 97 74 0 2 2 2 2 2 6 4 139 313 236 298 247 160 62 21 8 4 1 2 7
2831 2683 2556 2582 3035 3201 3343 3592 1082 220 1 1 0 712 2951 1299 185 23 2 2 2 1 0 2 5 8 7 3 0 1 32 172 279 279 183 156 47 10 5 8 1 3 19
1866 2224 2233 1334 1782 2060 2637 2939 3112 974 0 0 2 2 201 1 3 2 2 1 1 0 0 0 0 0 0 1 5 1 1 139 367 298 118 75 44 20 2 22 11 13 10
750 122 1059 1152 1320 1378 1114 1225 1336 1517 1642 2188 0 0 1 2 1 2 1 1 0 0 9 12 7 0 3 7 11 9 17 114 206 131 65 38 27 7 29 9 22 10 2
1068 918 485 657 723 492 237 3 2 3 5 4 4 1 2 0 1 1 1 2 2 33 214 149 45 12 13 13 17 31 134 96 141 63 29 11 7 42 21 2 5 0 0
635 79 270 529 588 287 369 165 6 6 1 0 1 0 0 0 0 1 0 1 2 97 98 66 77 73 102 68 91 86 86 6 11 14 4 17 40 8 1 2 0 0 0
601 408 73 629 488 57 80 161 148 20 0 4 0 0 0 0 0 0 0 2 6 27 199 175 176 270 182 314 232 132 43 4 6 3 24 29 8 0 0 0 0 0 0
614 665 462 333 266 100 67 46 31 54 14 11 18 1 1 6 4 3 4 17 19 40 134 217 307 322 256 153 169 21 4 5 9 14 10 2 0 0 0 0 0 0 0
668 673 717 531 243 0 91 93 23 9 6 10 10 17 5 7 10 11 7 16 47 51 43 106 363 210 86 18 4 1 3 6 0 0 0 0 0 0 0 0 0 0 0
756 674 529 225 149 277 176 10 4 2 5 8 10 19 18 8 7 9 1 5 40 35 27 31 10 1 0 0 0 0 0 0 0 0 0 0 0 0 0 0 0 0 0
152 125 110 183 263 231 161 73 74 52 8 5 1 3 10 17 11 17 5 0 0 0 0 0 0 0 0 0 0 0 0 0 0 0 0 0 0 0 0 0 0 0 0
13 21 6 1 1 8 26 109 106 77 76 56 63 85 58 25 18 10 16 6 0 5 6 0 0 0 0 0 0 0 0 0 0 0 0 0 0 0 0 0 0 0 0

GFSGL_con_sbcape_039.txt.gz
CAPE
4189 4162 4170 4211 4119 4352 4092 4149 4112 4082 4442 3871 4099 3650 3884 3950 4040 4261 3843 3582 3470 3117 2655 2675 2295 2165 229 166 122 103 70 40 7 0 2 807 824 317 116 74 177 624 91
3655 4175 4143 4197 4104 4164 4278 4157 4315 4402 4246 4498 4487 4178 4155 3909 4068 4231 3771 2558 3576 3070 2678 2463 1970 927 2126 1918 409 1823 615 920 99 1797 748 526 1326 1613 1177 1408 531 5 131
3264 3371 4040 4067 4156 4061 4253 4291 4371 4410 4447 4256 4296 4470 4365 4059 4027 4301 4188 3817 3692 3478 3194 2898 2229 1968 2496 786 864 724 458 731 760 431 302 310 322 613 921 1389 1372 1082 200
2596 2918 3582 4060 4013 4031 4126 4387 4307 4481 4481 4338 4364 4493 4462 4384 4129 4036 4115 4184 3890 3610 3452 3233 2798 2348 2175 2477 1787 1609 1482 1004 890 621 322 138 198 925 356 235 980 784 418
3057 3205 3556 4094 4250 4225 4180 4312 4339 4456 4471 4514 4448 4453 4659 4448 3687 4054 3836 4084 4203 3918 3793 3617 3209 2523 1645 1936 1331 1519 1378 1267 417 426 484 383 249 800 710 487 539 1074 962
3368 3219 3611 4140 4340 4379 4413 4375 4547 4472 4532 4575 4607 4500 4581 4343 2869 2193 3081 3967 4303 4295 4022 4022 3609 1909 1311 708 785 601 1122 2076 1483 705 758 921 2393 1385 617 342 692 768 111
3194 3902 3758 4194 4308 4488 4576 4612 4536 4591 4614 4624 4605 4612 4587 4635 2757 1182 1320 3619 4021 4172 4210 4204 3749 2590 1957 2066 297 354 138 565 948 2071 1750 1771 2382 2060 2014 1812 1512 793 580
3831 3544 4101 4101 4381 4505 4638 4660 4699 4688 4659 4672 4673 4721 4716 4593 3391 600 535 2861 3493 3997 4002 4113 4330 3616 3031 2648 2554 1334 1251 1154 987 876 1785 1953 2056 2116 1361 1595 1473 1345 857
3777 4007 3834 4343 4402 4625 4653 4649 4705 4707 4711 4649 4716 4746 4754 4696 3126 1050 67 2574 3039 3451 3815 4024 4185 4152 3002 1549 2801 2630 1998 1511 595 613 383 15 153 362 485 1038 423 515 168
3799 4119 4295 4440 4534 4640 4720 4872 4837 4748 4670 4476 4530 4684 4335 4740 3763 934 183 2758 2868 3095 3556 3829 2817 3578 3074 514 2439 2826 2532 1683 1398 791 265 33 70 122 60 916 534 185 541
3395 3893 4437 4551 4690 4618 4733 4919 4907 4769 4364 4666 4613 4631 4713 4436 4705 795 0 2798 3017 3045 3175 3333 3721 1540 1492 95 1012 2803 2444 2110 1058 1085 548 649 474 645 282 281 477 173 168
3641 3892 4270 4578 4239 4042 4850 4917 5033 4877 4781 4779 4716 4646 4585 4707 3331 1493 0 496 2630 3120 3203 3108 3318 2320 269 0 50 1803 1452 1440 1517 1147 695 647 577 413 540 327 287 383 539
4355 4596 4623 4741 4717 4565 4774 4991 4591 4783 4222 4400 4056 4392 4356 4138 4724 2259 0 0 181 2447 3134 2334 1000 493 0 0 4 193 349 1282 1273 844 502 307 385 286 254 438 749 891 573
4630 4866 4792 4875 4801 4653 3952 3959 3861 3644 3723 3499 3674 3741 3479 3877 3920 4121 1849 210 24 108 1555 1966 1302 29 7 548 0 9 421 704 566 367 326 296 302 208 175 152 189 125 17
3739 3654 3974 3762 3990 4462 4259 3620 3594 4062 2573 3647 3489 3256 3356 3557 3382 2942 3396 3735 2239 1192 1543 402 24 71 3 1 0 19 151 87 93 45 222 106 162 112 132 145 133 91 2
3576 3560 3485 3450 3879 3767 3972 3959 1068 1430 0 3 38 979 2565 785 828 1501 1431 2081 1355 222 512 184 103 0 0 0 0 1 45 97 61 102 320 103 94 94 68 158 68 56 32
3196 3412 2615 2238 2669 3202 3079 3105 3232 238 3 3 0 0 2 28 2 316 380 64 0 1 621 342 257 132 0 0 2 7 41 3 112 271 136 40 39 99 70 22 10 57 55
1288 476 1758 2103 2448 2516 2408 2366 2423 2587 2708 2337 7 0 0 0 0 0 2 1 1 1 355 222 67 4 0 2 4 82 106 55 95 188 8 45 110 65 0 63 53 105 64
1490 987 1097 1248 1271 881 819 743 704 579 126 13 0 0 0 0 1 0 0 1 1 4 5 0 0 1 2 26 17 57 150 94 90 112 139 208 46 18 28 50 72 18 23
468 179 526 1007 825 936 589 379 100 77 18 8 0 0 3 3 2 7 10 2 0 0 1 8 98 0 3 9 21 90 147 127 122 151 109 121 176 162 95 51 31 12 0
508 782 662 987 329 305 295 387 207 74 84 61 0 0 0 7 10 10 11 11 2 2 4 16 52 27 11 59 128 108 147 90 175 160 96 183 161 120 43 23 12 5 1
784 533 441 416 350 312 221 135 174 227 50 6 10 4 0 18 16 18 14 21 11 11 17 43 78 59 61 94 66 55 68 60 106 121 55 51 61 19 6 2 2 0 0
311 484 553 489 385 132 290 135 57 13 4 6 6 11 6 14 6 4 1 13 67 74 112 42 85 82 64 37 39 75 74 71 56 65 8 16 15 4 0 0 0 0 0
0 13 121 202 263 217 183 59 2 0 4 10 12 25 18 28 18 5 11 34 35 19 123 16 39 103 153 106 153 75 87 82 18 8 6 1 0 0 0 0 0 0 0
0 0 4 38 97 82 123 20 32 96 28 13 7 2 3 12 9 2 1 2 46 22 87 133 100 107 70 67 41 5 0 0 1 0 0 0 0 13 0 0 0 0 0
0 4 28 2 4 1 0 1 2 5 10 5 3 4 14 14 14 15 30 14 5 14 7 3 8 33 30 14 0 0 0 0 0 0 0 0 0 0 0 0 0 0 0

GFSGL_con_sbcape_042.txt.gz
CAPE
3514 3569 3495 3565 3267 2972 2684 2913 3488 2859 4182 3152 3883 3436 3395 3351 3352 3774 3062 3066 3499 2891 2607 2482 2120 1394 1103 1325 932 1054 994 857 582 474 1365 1392 1038 371 179 350 347 450 30
3781 3784 3594 3600 3834 3562 3055 2945 3210 3788 3239 4178 3766 3488 3312 3224 3452 3317 3301 2368 3213 2974 2435 2474 2376 1537 1686 1794 2029 1102 961 1237 1025 1283 1384 1288 1361 998 1052 1196 487 138 571
3590 3887 3882 3788 3779 3832 3694 3145 3264 3188 3812 3138 3932 3867 3240 3304 3304 3461 3227 2952 2166 3182 2945 2323 2112 1829 1642 913 1332 1368 1246 1538 1887 914 1123 1492 1466 1261 973 982 1394 812 685
3219 3624 3759 4005 3917 3908 3856 3924 3372 3617 3243 3698 3540 3501 3703 3405 3360 3275 3392 3481 3115 2663 3268 2888 2403 1922 1523 1744 1196 1028 1259 1336 1008 1306 916 737 1381 1043 886 673 897 895 637
2508 3239 3355 3640 3998 3909 3912 3998 4079 3725 3803 3531 3664 3858 3619 3650 3483 3337 3259 3394 3437 3059 2951 3138 2814 2290 1632 1527 1589 1637 915 1228 1277 655 711 887 847 1247 515 604 544 438 578
2967 2946 3233 3523 3648 3995 3870 3862 4007 4165 4014 4123 3917 3615 3820 3683 3325 2832 3010 3306 3416 3409 3188 3072 2977 2354 1760 1240 1333 1247 1413 863 644 528 608 544 683 984 1129 583 357 534 173
3134 3480 3478 3672 3868 4002 4030 4024 3938 4126 4152 4174 4180 4054 3743 3819 3160 2017 1843 3230 3293 3404 3402 3253 3099 2897 2173 1681 682 901 552 740 689 740 592 1008 1707 1495 1410 1272 1079 711 345
3994 3448 3937 4110 3949 4121 4145 4106 4164 4088 4218 4173 4213 4185 4024 3828 3297 1451 1019 2694 3132 3226 3338 3378 3247 3037 2804 2261 1668 884 862 445 177 592 1016 834 1384 1814 1247 1489 1227 867 605
3299 4110 3523 4176 4076 4159 4243 4182 4177 4253 4214 4324 4266 4266 4247 4115 3043 1562 248 2252 2800 2971 3236 3267 3258 3189 2997 1579 2103 1534 943 765 421 341 577 1258 1058 893 1289 793 692 300 220
3339 3312 4151 3549 4190 4209 4264 4341 4351 4346 4349 4270 4268 4285 4134 4246 3828 1191 334 2821 2686 2689 2848 3075 2374 3032 2949 900 1792 2086 1697 1057 857 445 122 7 49 99 263 778 497 247 154
3557 3647 3790 4295 3871 4287 4360 4480 4443 4402 4387 4386 4360 4367 4380 4222 4201 1969 5 3089 3255 2820 2678 2680 2757 1725 1899 900 552 2066 2081 1845 1076 886 392 220 142 248 53 169 410 296 183
3443 4155 4298 4512 4056 3934 4489 4625 4561 4537 4471 4428 4440 4440 4449 4429 3779 3543 84 227 3176 3312 3004 2677 2554 2559 762 86 0 1408 1353 1768 1678 989 612 316 153 153 174 90 201 255 127
4908 5037 4547 4664 4561 4241 4597 4567 4609 4649 4534 4500 4383 4402 4330 4257 4517 3536 1487 0 6 1343 3350 3069 1119 1260 94 7 2 463 158 1599 1744 956 789 349 188 137 109 204 62 107 94
4984 5401 4989 4826 4698 4562 4377 4442 4439 4424 4593 4541 4469 4319 4090 4360 4289 3971 1605 17 0 72 1303 1983 1862 1194 492 72 503 0 927 1707 1561 977 687 464 189 161 111 127 101 96 132
5129 4949 5009 4648 4534 4727 4347 3887 4329 4391 3799 4426 4269 3835 3930 4014 3026 1288 2089 2917 2034 1399 1802 2585 2702 2435 2353 1543 724 175 808 1261 1083 916 689 216 175 78 76 38 17 66 43
4799 4522 4300 3946 4437 4296 4540 3964 0 60 2 0 0 900 1106 32 0 17 984 1624 1564 593 993 2421 2858 2738 1857 1064 440 493 640 881 884 769 328 153 75 24 44 31 9 5 0
5057 4842 4018 3588 4018 4326 4442 4380 3680 0 1 0 0 0 0 0 1 2 3 3 35 3 2107 1547 1870 1309 667 590 365 493 502 623 618 434 199 57 47 25 51 4 0 2 0
2853 1091 3589 3833 3229 3432 3926 3869 3937 2795 2244 1386 0 0 0 0 0 1 0 1 44 1 858 777 781 823 560 226 201 182 310 508 421 243 51 0 14 35 1 0 0 0 0
2558 2207 2249 1646 1252 1094 1417 1260 1161 999 854 651 297 0 0 0 2 0 0 3 2 0 0 0 0 0 0 0 0 1 0 0 1 5 11 9 23 1 0 1 0 1 0
1087 609 1075 1312 1112 840 755 426 364 367 298 195 91 0 0 10 0 4 6 4 3 1 0 0 1 0 0 1 0 0 0 2 13 3 77 83 9 0 0 0 0 0 0
633 794 672 881 731 788 585 196 169 142 316 372 5 0 0 0 0 1 2 5 8 4 17 22 7 6 3 2 0 0 44 25 5 39 45 74 44 14 17 14 11 0 0
845 902 685 208 483 488 652 611 514 207 98 8 6 0 0 1 4 7 1 2 12 12 11 34 29 25 18 10 26 32 31 14 32 17 20 38 54 26 8 8 6 1 0
211 412 510 392 256 27 25 5 0 0 1 2 3 4 5 18 14 4 13 10 20 45 65 29 8 3 0 5 0 0 0 7 31 30 19 17 10 11 0 0 0 0 0
17 30 86 26 3 48 57 14 0 0 6 12 7 5 14 17 17 1 5 46 54 12 20 68 6 0 9 1 1 0 0 5 2 14 5 4 0 0 0 0 0 0 0
0 0 0 0 0 0 0 0 0 0 0 0 1 0 1 14 16 7 39 47 25 37 96 46 46 27 29 14 8 20 3 5 27 10 3 0 0 0 0 0 0 0 0
0 0 0 0 0 0 1 2 3 1 1 1 0 1 1 2 2 5 2 1 0 24 57 134 126 77 118 50 0 0 0 0 0 0 0 0 0 0 0 0 0 0 0

GFSGL_con_sbcape_045.txt.gz
CAPE
1881 1707 2049 1939 1493 1344 1674 685 1279 1418 1914 1427 2065 1883 2059 2167 2230 1962 2066 2157 2347 2094 1678 1552 1420 1135 210 2 59 46 0 0 0 0 25 4 77 145 19 0 38 31 0
2164 2135 2012 2288 2243 1531 1555 1830 666 1842 1559 2337 2498 2295 2425 2232 2186 2434 2226 2295 1837 2173 1948 1402 1542 1251 631 175 671 31 56 77 0 0 379 458 133 1 0 43 56 70 50
2289 2317 2333 2274 2472 2255 1877 1506 1998 1138 2229 1696 2512 2510 2412 2378 2350 2171 2480 2233 1749 2073 1937 1719 1356 1342 903 508 476 644 453 72 418 42 387 283 320 263 286 188 78 78 121
2261 2555 2623 2611 2561 2597 2486 2209 1459 2124 1854 2562 1876 2526 2354 2381 2299 2475 2363 2440 2145 1581 2137 1984 1641 1442 1238 786 302 343 470 505 363 393 43 92 408 565 149 191 235 321 180
2411 2678 2780 2873 2713 2691 2685 2796 2620 1922 2357 2079 2503 2211 2725 2320 2436 2349 2600 2503 2430 2188 1607 2355 2119 1682 1357 936 832 437 314 402 445 191 304 178 73 468 487 195 139 140 233
1912 2543 2829 2964 3034 2892 2968 2881 2979 2897 2310 2676 2260 2442 2560 2905 2554 2205 2397 2583 2638 2604 2453 1824 2393 1945 1423 907 954 796 557 188 142 615 161 251 277 112 263 248 215 172 226
1616 1881 2579 2907 3026 3118 3141 3190 3130 3210 3225 2702 2877 2593 2664 2759 2595 1600 1654 2604 2573 2734 2756 2669 2167 2383 1867 1629 507 722 495 556 95 55 423 171 162 182 270 107 103 22 0
1821 1887 1936 2721 2898 3012 3152 3162 3212 3198 3340 3465 3198 3173 3048 2945 2654 1121 963 2457 2681 2600 2777 2805 2751 2541 2450 2160 1782 985 855 659 400 88 25 122 179 147 342 301 112 35 20
2379 2480 2360 2690 2827 2990 3049 3247 3232 3220 3203 3321 3521 3427 3406 3352 2353 1310 410 2095 2701 2739 2762 2823 2897 2880 2670 1702 2214 1823 1250 948 621 263 209 143 177 746 438 317 114 6 0
2482 2850 3053 2941 3114 3060 3252 3280 3397 3349 3352 3329 3406 3510 3389 3477 3272 1096 351 2482 2685 2751 2744 2746 2526 2874 2949 1314 1951 2238 1826 1444 986 322 8 5 168 143 359 206 52 11 5
2430 2494 3176 3166 3296 3415 3288 3502 3511 3547 3522 3540 3519 3542 3632 3515 3516 2021 179 2487 3002 2972 2813 2684 2610 1944 1125 974 599 2479 2281 2001 1216 642 426 225 74 89 110 158 94 85 10
2415 2678 2685 3384 2941 3329 3483 3624 3728 3697 3699 3624 3694 3758 3719 3717 3362 2844 358 261 2961 3174 3195 3011 2676 2295 1415 394 0 1145 1426 1273 1734 825 650 392 141 47 19 111 78 47 7
2624 3080 3038 2947 3478 2683 3754 3584 3939 3834 3896 3863 3863 3886 3878 3817 3798 3391 1436 0 37 2011 3348 3409 3195 2583 1417 35 1 197 14 846 1945 1714 922 723 258 147 20 0 2 30 4
3249 3151 3842 3782 3978 3362 3675 3864 4049 4173 4088 4025 3970 3935 3744 3621 3691 3609 1991 9 1 2 1291 1934 2060 1798 2038 832 0 0 0 940 1826 2048 1829 1245 503 112 67 28 9 0 5
3497 4397 4459 4042 3982 3949 2094 1732 3467 3792 3627 3996 3971 3762 3763 3670 2437 312 437 1794 867 464 920 1225 2105 2333 2120 2100 294 180 2 59 787 1444 1631 1452 687 75 20 39 62 2 2
4187 4372 4356 3892 3845 3990 1332 0 1 0 0 0 0 2382 0 0 2 2 1 112 50 226 53 1181 1756 2236 2656 2640 2431 2242 249 113 370 900 1275 1550 968 179 54 1 46 36 2
2098 3855 3558 3513 3425 3728 3911 2625 9 0 0 0 0 0 0 0 1 2 2 2 1 0 681 1337 1467 1838 2311 2032 1609 1226 937 694 460 516 935 1096 1056 471 30 50 0 5 16
1483 1139 1974 2944 2453 3308 3323 3495 736 1 3 0 0 0 2 2 2 2 2 1 0 1 1 42 34 138 496 555 461 475 394 288 366 234 7 2 2 1 1 2 1 52 93
1823 1476 650 628 660 654 588 577 836 661 173 0 0 0 1 2 2 2 0 0 0 0 0 0 0 0 0 0 0 0 0 0 0 0 0 0 0 0 0 0 50 49 4
925 416 612 441 406 169 156 89 32 0 0 0 0 0 0 0 0 0 0 0 0 0 0 0 0 0 0 0 0 0 1 1 1 0 0 0 1 0 1 1 3 2 0
634 395 794 862 319 82 0 0 0 6 1 0 0 0 0 0 0 0 0 0 0 0 0 0 0 0 0 0 0 0 1 0 14 18 23 1 1 1 1 0 0 0 0
472 602 323 22 1 76 0 0 0 0 0 0 0 0 0 0 0 0 0 0 0 0 0 0 0 0 0 0 0 1 2 1 10 6 1 0 0 1 0 0 0 0 0
53 2 32 0 0 0 0 0 0 0 0 0 1 3 6 6 4 0 0 0 0 0 1 0 0 0 0 0 0 0 0 1 0 0 0 1 0 0 0 0 0 0 0
0 0 0 0 0 0 0 0 0 0 0 0 0 0 0 0 0 0 0 0 2 1 0 0 0 0 0 0 0 0 0 0 0 0 0 0 2 0 0 0 0 0 0
0 0 0 0 0 0 0 0 0 0 0 0 0 0 0 0 0 0 0 0 0 0 0 0 0 0 0 0 0 0 0 0 0 2 0 1 0 0 0 0 0 0 0
0 0 0 0 0 0 0 0 0 0 1 3 1 2 2 2 1 0 0 0 0 0 0 0 0 0 0 0 0 0 0 0 0 0 0 0 0 0 0 0 0 0 0

GFSGL_con_sbcape_048.txt.gz
CAPE
805 1143 990 695 479 1368 692 98 178 648 144 677 1119 1329 1717 1618 1362 1229 1174 1694 1498 1588 1537 1050 877 727 525 27 0 0 0 0 0 0 0 0 0 0 0 0 0 0 0
1019 1095 1313 1204 873 518 1368 836 381 362 713 578 1124 1301 1576 1664 1565 1443 1362 1612 1854 1624 1650 1454 1171 972 802 293 0 0 0 0 0 0 0 158 7 0 0 0 0 0 0
1162 1260 1357 1547 1493 1168 702 1243 1101 557 587 1063 1585 1537 1684 1667 1784 1774 1576 1527 1636 1752 1724 1501 1478 1254 1209 814 123 7 39 0 0 0 0 0 0 0 1 0 0 0 0
1448 1536 1448 1650 1902 1830 1465 944 1266 1267 483 1019 1376 1982 1837 1955 1779 1820 1940 1953 1828 1715 1642 1629 1565 1318 1445 1039 484 183 9 216 0 16 0 49 15 74 9 1 17 4 0
1777 1847 1898 1790 1837 2111 2035 1667 1317 1195 1599 889 1134 1500 2138 2103 2110 2046 1928 1905 2051 1914 1548 1796 1690 1450 1349 1189 1031 648 48 14 26 18 8 0 7 160 114 0 0 3 37
1865 2007 2013 2120 2064 2049 2227 2239 1875 1663 1162 1634 1683 1648 1776 2284 2271 1781 2048 2102 2033 2014 1865 1477 1679 1678 1251 939 684 874 496 231 97 96 174 89 46 15 96 72 4 0 5
1818 1858 2157 2174 2396 2353 2321 2354 2480 2360 2060 1441 1721 1905 1820 2061 2162 1315 1248 2097 2162 2124 2060 1957 1753 1723 1649 1600 389 202 266 158 224 10 25 143 69 52 0 45 59 26 40
1244 2035 2157 2503 2512 2669 2583 2555 2551 2625 2724 2554 2062 2074 2255 2047 1977 947 592 1846 2158 2170 2294 2287 2253 2215 1859 1850 1933 1141 633 710 175 38 25 0 13 34 8 31 32 38 1
1186 1226 2134 2350 2755 2799 2857 2850 2817 2908 2850 2909 2969 2696 2397 2580 2131 1051 183 1472 2189 2446 2385 2319 2472 2511 2397 1299 1942 2090 1837 1333 905 228 119 139 0 6 10 14 11 0 0
1312 1385 1453 1860 2541 2818 2911 2885 3037 3007 3054 3027 3044 3188 3096 2873 2671 1073 185 1953 2198 2387 2605 2655 2099 2312 2560 1332 1327 2151 2219 2133 1647 1280 62 27 7 1 0 41 63 19 9
1890 1728 1800 1686 1935 2492 2662 2831 2835 3007 3012 2959 2983 2973 3080 3014 3046 1157 49 2264 2607 2698 2668 2658 2696 2114 1073 1188 408 2332 2422 2405 2134 1565 1405 718 439 297 62 55 157 56 2
2062 2067 2416 2489 2212 2443 2555 2630 2820 2853 3043 3048 3013 3092 3067 3034 2875 1387 140 332 2716 2915 3007 2966 2841 2621 1614 553 0 614 1336 910 2197 2421 1859 1447 1009 477 225 175 181 90 1
1225 1886 2063 2396 2469 2668 2813 2741 2887 3025 3131 3207 3234 3228 3281 3259 3176 2482 677 7 57 1826 3173 3329 3162 2856 1839 45 0 16 1 730 1782 2294 2399 2244 1201 1061 426 117 191 221 88
2365 1927 2350 2302 2302 2279 2858 2951 3148 3317 3365 3357 3401 3409 3407 3348 3340 3183 791 17 1 1 589 1861 2073 1956 1471 1613 480 1 0 209 947 1621 1941 2246 2214 1205 400 24 35 124 59
2528 3112 2974 2982 2493 2560 418 1325 2545 2673 2659 3592 3604 3573 3601 3571 3394 3211 3063 1669 903 654 934 825 1429 1978 2361 2396 2196 501 74 3 31 385 965 1447 1610 1616 812 38 1 1 34
1909 1984 2977 3564 2889 1179 1 1 0 0 2 257 2574 3112 0 250 2 2 2 2 117 131 127 728 1110 1274 1660 2137 2557 2569 762 306 289 206 408 716 971 1266 1215 615 7 2 2
1444 1300 896 2236 3083 2330 287 28 0 0 0 0 0 0 0 0 0 0 2 2 1 1 460 481 763 969 1247 1456 1809 1964 1853 787 287 67 195 429 578 710 582 603 372 24 25
1086 1298 1172 1726 2391 3069 2816 584 0 0 0 0 0 0 0 0 0 2 2 1 0 1 0 1 1 0 113 296 355 342 412 303 244 158 0 0 0 1 1 0 1 0 0
933 921 606 554 458 1207 1661 1049 53 15 0 0 0 0 0 2 2 1 1 0 1 1 0 0 0 0 0 0 0 0 1 1 2 1 0 0 0 0 0 0 0 1 0
704 471 502 402 251 159 189 289 363 24 0 0 0 0 0 0 0 0 0 0 0 0 0 0 0 0 0 0 0 0 0 0 0 1 0 0 0 0 0 0 2 0 1
425 187 422 210 144 83 79 26 0 0 0 0 0 0 0 0 0 0 0 0 0 0 0 0 0 0 0 0 1 0 0 0 0 0 0 0 1 1 0 0 0 0 0
593 116 135 72 0 0 0 0 0 0 0 0 0 0 0 0 0 0 0 0 0 0 0 0 0 0 0 1 0 1 0 0 1 0 0 1 0 0 0 0 0 0 0
107 4 0 0 0 0 0 0 0 0 0 0 0 0 0 0 0 0 0 0 0 0 0 0 0 0 0 0 0 0 0 0 0 0 0 0 0 0 0 0 0 0 0
0 0 0 0 0 0 0 0 0 0 0 0 0 0 0 0 0 0 0 0 0 0 0 0 0 0 0 0 0 0 0 0 0 0 0 0 0 0 0 0 0 0 0
0 0 0 0 0 0 0 0 0 0 1 1 1 2 1 1 1 1 0 0 0 0 0 0 0 0 0 0 0 0 0 0 0 0 0 0 0 0 0 0 0 0 0
1 1 3 2 2 2 1 1 1 0 0 0 1 0 0 0 0 1 1 0 0 0 0 0 0 0 0 0 0 0 0 0 0 0 0 1 0 0 0 0 0 0 0

GFSGL_con_sbcape_051.txt.gz
CAPE
431 383 376 386 333 308 208 84 75 8 0 349 587 957 1319 1123 1053 951 998 1146 1167 1298 1082 650 512 392 390 61 0 0 0 0 0 0 0 0 0 0 0 0 0 0 0
455 469 451 496 629 746 481 120 65 207 46 33 547 778 1113 1349 1211 1069 987 1122 1291 1225 1314 1251 1074 840 562 227 8 0 0 0 0 0 0 0 0 0 0 0 0 0 0
322 548 617 516 384 461 1095 1008 238 17 39 304 198 812 957 1235 1288 1190 1209 1080 1119 1393 1407 1326 1481 1209 1052 784 311 39 0 0 0 0 0 0 0 0 0 0 0 0 0
498 506 730 856 794 543 378 728 1103 637 276 259 579 652 931 1145 1341 1408 1367 1247 1182 1263 1444 1517 1556 1404 1440 1258 809 456 112 0 0 0 0 0 0 0 0 0 0 0 0
666 758 752 945 1070 1089 930 553 557 1069 1001 641 616 889 1247 1311 1417 1450 1547 1488 1351 1297 1321 1357 1499 1552 1405 1423 1358 1094 368 167 64 0 0 0 0 0 9 0 0 0 0
862 894 947 967 1186 1404 1389 1294 861 673 1103 1100 625 744 1159 1555 1732 1420 1538 1600 1607 1609 1538 1379 1472 1377 1181 815 779 1166 1010 590 434 71 254 67 18 0 29 0 0 0 0
1159 1161 1207 1268 1268 1461 1720 1754 1592 1245 1009 1072 1274 1060 891 1259 1510 1115 949 1798 1708 1666 1666 1642 1576 1531 1311 1446 440 138 117 159 602 850 401 459 210 78 5 0 15 0 0
1477 1538 1607 1662 1720 1673 1695 1912 1989 1884 1630 1401 1100 1206 1399 1338 1468 557 487 1531 1948 1924 1828 1783 1779 1757 1586 1374 1573 1451 690 660 219 126 835 1017 476 326 0 0 0 0 0
1344 1682 1812 1909 1900 2055 2075 1996 2124 2208 2261 2139 1939 1446 1327 1584 1167 583 81 1284 1773 2002 2021 1945 2009 1978 1947 1338 1340 1674 1723 1640 1058 380 162 311 214 84 19 0 1 0 0
1138 1603 1809 1960 2156 2167 2355 2384 2304 2372 2375 2461 2530 2470 2140 1868 1820 270 0 1423 1657 1865 2059 2156 1795 1934 2176 1553 1089 1698 1890 2007 1925 1719 912 91 16 38 0 0 53 48 6
903 977 1266 2063 2212 2433 2471 2521 2623 2592 2622 2660 2677 2683 2785 2508 2471 740 1 1518 1973 2131 2155 2278 2372 2136 848 1113 596 2153 2206 2268 2295 1916 2112 1909 1582 874 505 241 3 64 116
1324 1035 1067 1232 1840 2240 2442 2633 2651 2741 2820 2816 2758 2774 2785 2807 2588 1130 11 138 2258 2503 2648 2697 2632 2500 1746 767 0 449 909 682 1852 2283 2506 2628 2430 1933 1191 553 327 0 20
1425 1640 1826 1700 1581 1583 2194 2404 2566 2625 2685 2753 2801 2776 2773 2686 2629 2140 156 0 9 1519 2805 3091 3048 2820 1932 18 0 0 0 225 995 1794 2159 2369 2492 2476 2440 1440 336 106 38
2642 2145 1714 1739 2099 2131 2160 2175 2244 2483 2633 2674 2747 2866 2845 2760 2861 2586 202 12 3 11 556 1620 1873 1798 1826 1589 744 107 0 9 453 1154 1677 1908 1968 2042 2150 1536 756 176 57
1823 1925 2230 2578 1744 1725 806 1121 2082 2395 2030 2891 2943 2984 2975 2918 2994 3115 3106 2118 1288 1001 1205 1032 1306 1715 2191 2440 2206 1380 309 73 80 333 656 985 1130 1232 1363 1431 871 353 171
877 1180 1144 1306 2527 1211 1 1 0 1 2 2 108 3009 750 666 1775 1854 1495 1137 920 516 663 1353 1668 1509 1576 1621 1717 1882 1555 650 502 466 439 434 465 589 693 745 796 476 290
668 858 907 819 1524 1082 51 1 1 1 1 2 3 19 548 433 2 2 2 2 2 1 1186 668 675 572 600 630 872 1333 1509 1018 519 290 196 225 72 0 0 0 2 0 0
635 759 724 764 1034 2133 703 169 0 0 63 0 1 0 0 0 0 0 2 1 22 2 8 108 231 229 237 188 0 0 0 0 0 0 1 0 0 0 0 0 0 0 0
588 511 317 285 258 946 2198 77 0 0 0 0 0 0 1 1 1 2 1 0 0 0 0 0 0 0 0 0 0 0 0 1 0 1 0 0 0 0 0 0 0 1 0
283 527 238 237 216 328 920 250 72 0 0 0 0 0 0 0 0 0 0 0 0 0 0 0 0 0 0 0 0 0 0 0 0 0 1 0 0 0 0 0 0 0 0
178 264 171 161 195 159 162 275 92 0 0 0 0 0 0 0 0 0 0 0 0 0 0 0 0 0 0 0 1 0 0 0 0 0 0 0 0 1 0 0 0 0 0
12 252 37 49 0 0 0 0 0 0 0 0 0 0 0 0 0 0 0 0 0 0 0 0 0 0 0 1 1 0 0 0 0 0 0 0 0 1 1 1 0 0 0
0 29 0 0 0 0 0 0 0 0 1 0 1 1 0 1 0 0 1 1 0 0 0 1 0 0 1 1 0 1 1 1 0 0 0 0 0 0 0 0 0 0 0
0 0 0 0 0 0 0 0 0 0 0 0 0 0 0 0 0 0 1 0 0 0 0 0 0 0 0 0 0 0 0 0 0 0 0 0 0 0 0 0 0 0 0
0 0 0 0 0 0 0 0 0 0 0 0 0 0 0 0 0 1 0 0 0 0 0 0 0 0 0 0 0 0 0 0 0 0 0 0 0 0 0 0 0 0 0
0 1 1 1 1 2 2 1 2 1 0 1 1 1 1 1 1 1 1 1 1 1 1 1 0 0 0 0 0 0 0 0 0 0 0 0 0 0 0 0 0 0 0

GFSGL_con_sbcape_054.txt.gz
CAPE
62 80 93 112 77 54 0 0 0 0 0 135 412 583 794 975 1098 1149 1249 1266 1226 1319 1091 799 732 537 622 317 7 0 0 0 0 0 0 0 25 96 102 139 5 0 0
154 171 186 198 193 141 94 16 0 0 0 0 284 506 872 1144 1147 1204 1319 1457 1412 1441 1534 1484 1456 1110 922 769 381 183 0 0 0 13 0 0 29 88 66 101 80 0 0
242 240 252 266 280 249 210 160 99 109 61 0 68 380 603 1051 1331 1287 1361 1350 1414 1563 1555 1576 1672 1647 1600 1329 885 650 213 15 0 0 20 0 0 0 15 3 16 59 8
207 353 350 377 397 450 455 437 134 90 183 244 140 398 636 890 1252 1450 1490 1483 1367 1394 1549 1586 1639 1729 1779 1847 1594 1418 1016 560 85 70 156 49 9 29 1 81 61 0 17
186 408 473 461 424 429 571 895 919 324 188 191 274 400 540 890 1134 1426 1540 1542 1532 1482 1466 1554 1687 1609 1417 1551 1826 1865 1690 1018 1007 330 524 380 282 189 113 239 22 168 126
293 364 507 626 619 563 435 393 635 1034 923 676 465 506 677 756 703 698 1175 1620 1644 1578 1549 1542 1627 1185 1107 844 720 1104 1583 1586 1510 1323 1101 1205 1161 894 525 184 49 96 179
519 504 525 624 856 883 906 834 571 512 851 1049 955 816 821 1018 902 432 430 1446 1701 1769 1792 1787 1746 1672 1268 1758 842 182 142 236 853 1826 1427 1309 1296 1226 872 592 175 126 184
676 710 805 842 884 1060 1237 1250 1221 1009 727 807 1071 1096 865 847 728 182 80 1179 1608 1782 1838 1899 1951 2004 1844 1680 1881 1894 1501 1224 596 531 1287 1764 1886 1711 1322 912 632 190 47
959 991 1040 1107 1126 1205 1381 1560 1619 1621 1478 1274 1143 1185 1319 1349 491 95 9 1099 1619 1847 2028 2091 2097 2105 1910 1137 1665 1920 1962 2055 1445 478 242 470 324 184 310 1105 706 3 4
1243 1324 1412 1434 1533 1568 1530 1588 1811 1935 2004 1972 1860 1707 1212 1398 1156 41 0 1100 1430 1682 1971 2118 1584 1806 1930 1163 1179 2042 2098 2235 2373 2341 1623 233 65 131 2 13 335 453 189
1200 1542 1690 1805 1800 1857 1923 2004 1997 2093 2205 2311 2403 2398 2245 1548 1679 459 0 1106 1628 1829 1907 2083 2255 1752 604 627 138 2188 2285 2436 2548 2165 2585 2617 2331 1950 1433 576 134 268 573
863 1378 1703 1837 2037 2090 2114 2251 2413 2376 2431 2498 2537 2601 2666 2742 1886 1283 9 31 1435 1979 2244 2400 2447 2145 1541 308 0 232 806 233 1501 2125 2409 2548 2666 2801 2735 2246 1223 519 325
842 1042 1142 1739 2046 2222 2391 2473 2540 2654 2749 2786 2829 2848 2914 2904 2908 1425 360 0 0 954 2459 2640 2602 2402 1728 39 0 0 0 29 581 1203 1774 2178 2488 2664 2493 2395 2388 950 438
1456 1476 1598 1404 1462 1815 2246 2492 2680 2782 2855 2941 2944 2929 2890 2837 2831 2594 749 59 2 3 67 1004 1445 1536 1533 1408 679 86 0 0 274 981 1424 1820 1912 1809 1743 1707 1711 1384 567
1614 1867 2177 1909 1577 2035 1595 1169 2262 2355 2091 2815 2761 2781 2901 2845 2795 2746 2472 1974 1590 1372 1194 1519 1519 1781 2115 2401 2361 1920 1422 515 217 452 722 967 1025 975 1081 1481 1149 1061 587
735 904 834 1196 2176 1283 91 0 0 1 2 2 2 777 2607 1270 2352 2570 2337 2205 1641 579 840 1852 1881 1830 1866 2093 2292 2165 1963 948 771 705 695 665 701 679 673 268 52 19 45
619 764 740 744 1062 1130 437 75 79 1 1 2 3 3 59 1574 804 692 174 13 2 3 1985 1956 1639 1595 1745 1391 1291 1375 1353 848 639 639 530 154 255 82 0 2 6 8 4
390 383 490 482 667 1261 1158 640 332 163 195 1 0 0 2 3 3 3 2 6 82 24 485 739 636 453 430 561 240 77 27 0 0 2 3 4 7 0 0 4 6 8 9
221 487 361 394 350 330 1433 866 328 141 226 0 2 1 1 2 2 1 1 84 239 97 5 0 0 1 1 0 0 0 0 1 3 7 6 12 3 0 0 0 0 1 0
12 123 228 421 451 553 1028 687 226 56 0 0 0 0 0 0 0 0 0 0 0 0 0 1 0 0 0 0 1 2 3 2 5 5 3 6 9 0 0 0 3 3 8
0 74 199 260 290 415 423 576 464 0 0 1 0 0 0 0 0 0 0 0 0 0 0 0 0 1 1 3 4 2 1 4 3 9 4 4 2 4 6 9 3 4 1
1 0 125 289 114 63 91 95 49 0 0 0 0 0 0 1 1 1 1 2 2 2 2 3 2 2 4 3 3 7 5 6 4 8 15 14 15 14 19 15 1 0 1
0 1 4 109 1 0 0 0 0 0 0 0 1 0 0 0 0 0 0 0 0 0 0 0 0 0 0 0 1 1 2 3 4 5 8 5 7 7 0 2 1 1 0
2 1 2 7 0 0 0 1 1 0 2 1 0 0 0 0 0 0 0 0 0 0 0 0 0 0 0 0 0 0 0 0 0 0 0 3 2 0 0 0 0 0 0
3 2 2 1 1 2 1 1 1 0 0 0 0 0 0 1 1 1 0 1 1 2 2 1 0 0 0 0 0 0 0 0 0 0 0 0 10 0 0 0 0 0 0
2 2 2 1 1 1 1 1 1 1 0 0 1 1 1 1 2 1 2 2 2 1 1 0 0 0 0 0 0 0 0 0 0 0 0 1 7 25 7 5 0 0 0

GFSGL_con_sbcape_057.txt.gz
CAPE
831 940 1044 1063 924 999 1016 1165 1526 1045 1067 1197 1496 1635 1855 2018 2214 2527 2476 2354 2600 2618 2460 2302 2349 2294 1977 1778 1283 1055 830 599 593 566 639 608 922 1224 1017 992 846 876 593
980 1053 1033 1104 1139 844 1186 1098 1373 1592 1097 1191 1434 1691 1777 1797 1947 2194 2147 1806 2314 2660 2755 2703 2474 2217 2627 2591 2100 1995 1582 1343 917 1849 1313 923 1286 1559 1441 1394 1026 511 557
933 718 939 953 992 1373 1331 1283 1368 1447 1430 996 1167 1563 1571 1689 1895 2073 2146 2200 2292 2470 2740 2915 2891 2747 2826 2424 2567 2286 2137 2017 1621 1314 1423 1139 1008 797 1113 1325 1083 1200 694
674 730 1168 1300 1357 1328 1605 1644 1327 1606 1535 1424 1391 1531 1526 1616 1720 1894 2065 2231 2377 2424 2620 2746 2844 2902 2990 3021 2843 2883 2721 2538 2487 2083 1825 1741 1733 1945 1176 939 897 857 714
1161 1140 1315 1473 1528 1648 1748 1775 1538 1698 1759 1882 1498 1373 1478 1382 1237 1851 1912 2136 2409 2552 2576 2749 2781 2572 2265 2579 2772 3497 3447 2687 2250 1848 1759 1566 1469 1403 1568 1247 1125 1066 1207
1361 1407 1585 1709 1774 1818 1913 1846 2027 1800 1670 1663 1658 1754 1651 1278 651 630 1486 1932 2473 2653 2672 2707 2684 1979 1713 1065 808 1282 2121 3493 3026 2554 2279 2359 3292 2624 2232 2030 1826 1672 1725
1454 1557 1811 1900 1894 1953 1999 2163 2304 2299 1732 1802 1672 1752 2030 2275 858 197 232 1651 2134 2628 2749 2661 2613 2317 2126 2639 1629 276 233 237 784 2975 3495 3506 3643 3572 3592 3188 3028 2583 2179
1539 1595 1839 1985 1984 2046 2085 2090 2143 2079 2483 2311 2164 2349 2214 2231 1222 82 0 1164 2237 2654 2822 2928 3235 3233 3231 2592 2728 2856 3017 2952 2271 1633 2402 2880 3455 3745 3979 3656 3782 3362 2608
1704 1727 1791 1954 2103 2218 2281 2316 2273 1949 2009 2018 2040 2248 2426 2546 1009 137 0 1431 1966 2646 2767 2891 3044 3119 2547 2076 2530 3010 3413 3407 2353 1842 1484 1250 914 597 622 1789 1543 1531 1347
1985 1957 1998 1998 2113 2302 2476 2624 2679 2421 2105 1914 1905 2205 1955 2659 1817 39 0 1411 2102 1973 2781 3115 1938 2026 2322 1627 2239 2832 3368 3040 3156 3332 3422 1230 212 876 31 195 1126 1152 1296
1803 1742 2234 2358 2451 2529 2722 2875 2630 2683 2766 2761 2557 2745 2514 2167 2376 479 0 1571 1909 2195 2224 2267 2418 1495 1110 767 418 3025 3300 3127 3174 3407 3563 3415 3355 3365 3119 3096 1062 763 929
2514 2237 2638 2778 2272 2215 3023 2778 2996 3125 3222 3316 3176 3055 2971 3013 1942 1318 1 44 1814 2472 2770 2878 3133 2328 1574 418 0 489 952 656 2279 2794 2974 2826 2965 3117 3428 3282 2816 1551 772
2756 3015 2950 3023 2801 3269 3298 3225 2890 3194 2944 3035 3065 3115 3161 3271 3424 1219 114 0 0 1300 2710 2789 2652 2346 1774 281 0 36 0 120 636 1290 1839 2335 2665 3023 2599 2385 2394 2481 2587
2592 2907 2908 2865 2935 3189 2923 2950 2968 3079 3129 3126 3301 3365 3396 3512 3581 3664 2250 501 62 50 166 1512 2176 1714 1909 2411 1986 364 212 951 970 1717 2266 1837 2119 1993 2095 1988 1812 1824 1643
2090 2072 2194 2325 2677 3017 3115 2644 3184 3515 2745 3395 3397 3541 3604 3666 3650 3350 3506 3602 3146 2444 1925 2701 2462 2470 2798 2930 2625 2253 2028 934 424 499 873 1274 1713 1646 1515 1294 1281 798 320
1845 2352 1792 2860 2240 2549 2642 912 0 0 2 2 20 1267 3508 2723 2552 2780 2720 2586 2552 1059 1810 2940 3002 3073 2981 2783 2727 2757 2434 1661 2015 2257 2334 1808 1472 1294 1146 671 278 126 40
1358 1282 813 1155 2725 2595 2213 2362 2382 59 0 0 1 3 36 1108 893 1356 681 24 2 11 2266 2847 2980 2902 2652 2532 2495 2468 2554 2569 2160 1842 1825 1514 1101 618 380 111 96 21 7
700 235 775 1195 1737 2700 2378 2176 2289 2808 2670 2036 0 1 2 2 2 2 2 58 316 13 1846 2941 2581 2314 1665 1700 1598 1518 1742 1512 1141 938 794 400 208 254 60 69 70 10 11
31 784 1359 1546 1850 1734 2689 2664 2756 2890 2903 2616 293 0 0 1 2 2 2 1272 2557 1693 918 338 236 293 369 431 656 638 427 308 37 15 1 18 46 15 44 19 10 0 0
0 0 158 1188 1471 1876 2485 2359 1943 1957 2069 1944 1579 1230 2 0 513 230 354 242 287 157 22 27 6 2 5 44 26 16 7 3 6 6 8 8 6 21 24 19 13 10 8
0 0 0 798 1243 1238 1510 2000 1829 1428 1102 1108 1358 265 0 494 603 401 156 17 0 0 0 0 0 0 11 7 5 6 6 5 8 8 10 11 25 11 10 30 30 16 18
1 0 0 144 914 1110 1148 1475 1505 1252 931 728 0 0 0 0 22 0 3 5 4 2 2 5 2 6 4 5 7 8 9 13 12 11 11 16 29 24 23 25 28 24 16
3 3 0 20 318 612 821 1171 1264 1109 796 434 0 0 0 0 1 4 2 0 0 0 0 0 2 0 0 0 0 0 1 2 2 6 14 17 16 12 5 8 20 20 14
3 2 8 48 287 574 784 848 449 57 207 39 1 0 0 0 0 0 0 0 0 0 0 0 0 0 0 0 0 0 0 0 0 0 1 14 11 8 11 4 14 12 13
4 3 2 0 0 3 1 2 3 1 1 0 0 0 0 0 0 0 0 0 0 0 0 0 0 0 0 0 0 0 0 0 0 0 0 0 20 25 8 11 12 5 7
6 5 5 4 3 3 3 2 2 1 0 1 0 0 1 1 0 1 1 1 1 0 0 0 0 0 0 0 0 0 0 0 0 0 0 2 42 55 73 79 52 24 8

GFSGL_con_sbcape_060.txt.gz
CAPE
1584 1869 1779 1546 1472 1681 1584 1723 1932 1711 1580 1820 1402 1297 1303 1914 2300 2703 2569 2137 2793 3021 2751 2377 2594 2701 2086 1393 1278 1064 960 844 806 596 593 916 1860 1903 1738 1576 1437 1416 1044
1760 2303 1892 1841 1859 1381 1744 1788 1908 1987 1833 1958 1849 1660 1297 1505 2058 2592 2530 1872 2350 2569 2800 2811 2814 2337 2817 2768 2030 2288 1767 1921 1193 2654 1763 1173 2126 2434 2210 2028 1731 1076 955
1520 1284 1474 1564 1501 1914 2006 1870 2266 2038 2168 1888 1925 1980 1767 1523 1951 2349 2482 2341 2194 2274 2536 2842 2919 3046 3162 2720 2571 2162 2019 2311 2596 2333 2207 1721 1642 1784 2228 2853 2740 2348 1426
1074 1138 1813 1831 1840 1674 2417 2460 1957 2465 2369 2166 2177 2067 2014 1683 1422 1807 2056 2313 2222 2187 2532 2752 3004 3215 3426 3622 3573 3438 3319 3080 2688 2185 1812 1628 1485 1878 1510 1505 1618 1457 1204
2034 1280 1829 2467 2327 2412 2668 2806 2564 2624 2288 2361 2351 2163 2104 1840 1165 1685 1682 1792 2212 2357 2436 2799 2993 2927 2811 3083 3287 4356 4701 3499 2458 2021 1720 1560 1472 1470 1931 1541 1953 2079 2368
2481 2175 2431 2922 2912 2964 3090 3126 3313 3141 2684 2503 2369 2377 2180 1777 849 489 896 1466 1933 2252 2562 2784 2941 2474 2456 2099 1681 1570 1888 3948 4771 3157 2354 2315 4277 3583 2758 2711 2591 2607 3086
2722 2661 2850 3175 3271 3262 3268 3475 3478 3413 2996 2839 2635 2579 2740 2859 1238 317 181 1214 1371 2350 3128 2854 2449 1875 2372 2836 1493 865 804 555 559 2831 3937 4211 4290 4641 4939 5072 4260 4106 3823
3028 2997 3103 3304 3300 3403 3521 3649 3696 3242 3289 3285 2694 3134 3270 2974 1682 785 0 1465 2159 2642 2766 2802 3612 3424 3130 2330 2637 2798 2929 3317 2920 2220 2495 2734 3064 3425 4019 4060 4614 4086 3748
2983 3177 3244 3349 3271 3256 3368 3518 3388 3049 3258 3207 2752 3162 3444 3167 1308 811 29 1648 1938 2902 2655 3113 3329 3662 2832 2157 2569 3113 3343 3321 1802 1737 2043 2201 2031 1698 1573 2494 2342 2701 2969
2816 2994 3228 3376 3475 3439 3482 3628 3557 2818 2796 2678 2732 3173 2647 3451 2480 185 120 1887 2316 1939 3142 3757 2190 2045 2400 1835 2787 2915 3541 2714 2603 3183 3653 2301 404 1248 578 1224 2845 2974 3056
2084 2097 2944 3112 3539 3553 3873 3703 3421 3176 3195 3445 3086 3467 3574 2985 3050 469 0 2201 1922 1992 1938 1785 2008 1278 1535 1051 538 3147 3232 2784 3062 3700 3944 4240 4206 4119 3893 3979 4351 4361 2961
2568 2486 3277 3288 2595 2578 4035 3672 3490 3698 3772 3955 3650 3285 2913 3246 2211 895 0 170 1926 2450 2515 2136 2877 2268 834 275 47 1042 1295 1195 2581 2940 3430 3636 3778 3741 3700 3999 4218 3346 1919
2877 3304 3161 2941 2865 3514 3377 3521 3190 3573 3228 3199 3211 3258 3151 3186 3635 1845 1 0 24 1517 2726 2791 1745 1301 1151 473 59 422 189 2065 2920 3294 3380 3459 3087 3290 3625 2860 2587 2755 2624
3259 3279 3031 3091 3050 2893 3088 3213 3121 3104 3151 3085 3249 3341 3350 3490 3680 3977 2686 438 64 176 870 1887 2481 2270 2024 2426 2560 1459 2246 2989 3225 3004 2878 2848 3164 2664 2326 2517 2191 2036 2019
2877 3015 3168 3204 3084 3322 3498 2920 3281 3700 2480 3368 3297 3496 3605 3748 3804 3716 3879 4279 3613 2490 2594 3083 3258 3231 3179 3213 3345 3786 3938 3792 2960 2998 2421 1858 1750 1931 2559 2102 1536 1792 1001
2648 2652 2680 2868 3258 3266 3357 2918 0 0 2 22 303 1145 3807 2327 2871 2810 3221 3142 1672 2056 2861 3691 3870 3248 3230 3308 3737 3668 3653 2971 2687 1987 1644 2267 2758 2564 2204 1892 1319 813 613
2394 2914 3055 3363 2932 3162 3272 3334 2912 422 0 2 2 21 502 146 800 1400 953 9 0 849 3542 3969 4040 4280 4200 3921 3639 3554 3471 3199 2820 2736 3044 2568 2408 1766 1428 1101 660 525 485
568 433 1462 1289 1778 1514 2022 2098 2741 2999 2927 2726 49 0 0 1 4 4 2 165 1201 215 2778 3497 3841 3976 3488 3149 3297 3153 2771 2425 2137 2270 2416 2024 1499 1134 919 632 529 479 445
759 919 984 1440 1692 1579 1441 2063 2437 2755 2859 3722 3536 109 0 0 1 2 1 3227 4046 3859 2805 2945 2554 1839 1911 2072 1918 1725 1735 2074 2021 1992 1328 1026 784 628 569 438 326 0 0
4 0 39 1048 1203 2234 2694 2594 2575 2893 3522 3389 3314 3450 267 11 617 512 67 836 2157 3796 3429 2564 1601 1013 1692 876 948 1117 1251 943 700 497 400 314 335 337 352 372 339 218 0
0 1 0 789 1165 1659 2342 2505 2269 2369 2549 3587 3591 1362 110 2907 2854 1654 1360 1946 2153 1981 1859 1666 1495 969 690 825 903 781 574 447 342 307 251 155 204 232 203 179 43 13 9
0 0 12 219 832 883 659 665 1266 1972 2319 2830 2691 441 0 1385 2020 1760 1303 638 7 0 3 103 163 89 1 46 139 184 202 164 186 151 78 51 86 41 16 21 29 12 4
0 0 0 9 105 330 782 654 772 1024 1160 1446 1404 849 647 829 426 222 25 0 0 0 0 0 0 0 0 0 0 0 4 12 10 23 15 10 13 6 5 8 8 8 4
10 8 1 4 120 187 352 473 710 434 578 906 828 775 541 212 16 2 0 0 0 0 0 0 0 0 0 0 0 0 0 0 0 0 6 10 14 11 9 8 22 5 6
3 3 6 3 0 0 0 0 0 0 0 0 0 0 0 0 3 1 0 0 0 0 0 0 0 0 0 0 0 0 0 0 0 0 0 0 16 24 9 22 18 13 13
7 8 8 7 6 5 4 4 4 2 1 0 0 0 0 0 0 3 2 1 0 0 0 0 0 0 0 0 0 0 0 0 0 0 0 0 15 49 168 138 45 25 28

GFSGL_con_sbcape_063.txt.gz
CAPE
2652 2710 2437 2374 1997 2461 2948 3126 3050 2813 3270 3045 2695 2336 2014 2151 2740 3717 3695 2793 3332 3375 3212 2437 3249 3821 2073 1205 1020 943 867 822 763 738 607 1346 2956 3413 2760 2559 1882 2366 1592
2262 2754 2633 2829 2228 2183 2633 2739 3382 3453 3186 3430 3050 2957 2361 2089 2940 3612 2884 2564 2553 2766 3066 3721 2680 2103 3970 3912 2377 3825 1993 2326 1171 2822 1945 1781 3029 3199 3358 3642 2117 1764 1793
2069 1891 2484 2596 2636 2271 2904 2757 3225 3552 3636 2357 3092 3547 2952 2454 2921 3469 3792 3286 3022 3155 3146 3463 3483 3692 4305 2902 3553 2229 1732 2497 2453 2239 2543 2521 2564 2177 2710 3489 3704 3261 2494
1241 1460 2061 2512 2525 2381 2803 3143 3140 3574 3705 3553 3687 3630 3261 2712 2585 2552 3054 3430 3476 2844 3149 3230 3505 3858 4311 4734 3998 4723 3918 3520 2659 2522 2402 2331 2381 2933 2629 2188 2325 2372 2453
1885 1669 2093 2682 2682 2793 2635 3211 3216 3587 3644 3871 3898 3744 3616 2666 1862 2629 2903 3215 3641 3211 3205 3098 3271 3304 2541 3649 3332 4099 4249 3718 2863 2684 2532 2467 2294 2186 2803 2757 2515 2976 3401
2306 1906 2111 2877 2991 2966 2926 3171 3576 3711 3862 3991 3898 3944 3718 2155 1285 869 1752 2433 2975 3306 3593 3768 3673 2646 2215 2064 2174 2360 2416 4011 4894 3084 2613 2463 3610 3208 3028 2999 3635 3475 3811
2855 2517 2609 2977 3089 3134 3117 3396 3647 3905 4090 4245 4108 4078 4103 3862 1475 434 220 1734 2498 3003 3382 3851 3328 1845 2669 3842 2155 1946 1632 1099 845 2906 3516 3730 3858 4229 4658 4828 3842 3969 4131
2825 3557 2984 3355 3442 3568 3627 3617 3882 4051 4100 4183 4241 4245 4290 3949 2367 730 0 2007 2121 2503 3228 3531 3797 3524 3604 3671 4141 3810 3716 3781 3222 2232 2841 3278 3830 4124 4294 4155 4474 4190 4115
3679 3244 3590 3538 3676 3904 3877 3975 4074 4171 4199 4143 4264 4390 4410 4212 1920 1252 18 2134 2196 2957 3025 2977 3250 3849 3450 2726 3222 3186 3339 3503 2172 1433 1339 1703 2129 2187 2009 2095 2286 3113 3771
3683 3571 3769 3782 4032 4086 4116 4189 4261 4320 4236 3400 3860 4291 3913 4473 3289 491 162 2085 2514 2251 3301 3587 2547 2362 2615 2361 3278 3684 3723 3835 3784 3365 3554 2786 773 1244 631 1122 3137 3799 3928
3341 3649 4086 4066 4186 4309 4426 4472 4473 4384 3629 4321 4233 4252 4306 3938 4251 1463 0 2720 2245 2185 2188 2017 2265 1702 1524 1198 774 3180 3463 3746 3289 3329 3712 3994 4152 4812 4899 4276 4556 4687 4309
3549 3691 4087 4273 3688 3822 4474 4513 4549 4508 4451 4664 4442 4319 3584 4508 3188 752 0 352 2412 2835 2519 1381 1764 1158 487 372 39 823 1313 1227 2272 2837 3279 3636 3685 3787 3748 4556 4988 4704 4167
3907 3990 4115 4207 4222 4189 4392 4530 4007 4377 3521 3565 3344 3013 2786 2833 3482 1878 0 0 351 1832 2528 1693 1264 1827 474 0 0 537 578 2185 2842 3302 3802 4018 3796 3635 4671 4284 3893 3341 2905
4145 4305 4208 4184 4137 4173 3665 3684 3374 3128 3423 3223 3205 3172 2668 2464 2220 3085 1602 90 20 219 1407 1904 2180 2128 1107 2337 2821 560 1988 3270 3539 3986 4066 3563 3554 3911 3787 3269 2426 2451 2617
3920 3767 4029 3321 3406 3985 3620 3536 3254 3404 2452 2920 2241 2206 2245 2867 2873 3072 3277 3488 2764 2118 2496 2782 2686 2874 3197 3462 3749 3987 3843 4124 3975 3887 3535 3860 3580 2762 2429 2751 2605 2682 2551
3079 3205 3003 3053 3206 3161 3445 2600 2 674 45 96 95 1370 2461 660 835 243 2354 2631 2755 2171 2528 3260 3464 3623 3765 3810 3686 3725 3933 3910 4336 4225 3832 3023 2751 3072 3238 2721 2582 2659 1583
3093 3255 3319 2713 3349 3735 3610 3418 3163 139 2 1 3 9 246 64 205 2 2 5 684 1697 3709 3938 3715 3664 4141 3894 3685 3821 4039 4055 4431 3831 3331 3234 3337 3243 2508 2305 2159 1435 1045
875 649 2846 3330 3464 3672 3785 3737 3454 3228 3042 2863 203 0 0 2 2 0 48 340 2521 2322 3662 3789 3754 3927 3970 4353 4512 4049 4164 3951 3995 3672 3538 3184 3331 2702 2303 1829 1408 1154 944
52 217 379 1776 2293 2859 2728 2227 2568 3245 2983 2780 879 18 1 3 1 2 2 2720 3295 3734 3619 3605 3858 3888 4090 4166 3738 3645 4051 3740 3137 2864 2857 3053 3100 2518 1558 1073 804 53 106
2 0 38 1556 1983 1616 1351 1259 1351 1745 2208 2817 2565 2567 0 192 1205 1971 818 1933 2942 4091 4746 4463 4042 3659 3387 2814 2627 2921 2600 2188 1819 1887 2027 1623 1068 735 593 642 601 628 774
0 58 47 51 1355 554 291 1277 1416 1275 1602 2618 2535 390 348 2330 3050 3108 2046 2348 2772 2538 2112 2470 1768 1693 1859 1519 1716 1698 1736 1824 1813 1321 830 688 524 433 430 527 509 574 487
0 0 0 0 620 1635 1648 1407 763 1074 1644 2352 2367 32 29 1882 1534 3084 2667 2008 1458 1046 1000 1483 1594 1061 590 542 489 664 744 659 601 566 515 459 300 296 319 276 321 219 143
0 0 0 0 11 18 1021 719 674 1133 1260 1114 2013 1946 1193 627 590 526 718 679 337 154 126 270 378 81 6 0 0 0 1 25 37 43 54 38 42 93 129 135 108 89 76
0 0 0 0 0 0 0 23 499 21 127 118 356 903 946 521 150 17 0 0 0 1 2 1 0 0 0 0 0 0 0 0 0 0 0 3 13 10 10 39 30 119 93
1 2 3 4 0 0 0 0 0 0 0 0 0 0 0 0 1 1 2 2 1 1 0 0 0 0 0 0 0 0 0 0 0 0 0 0 1 14 41 36 58 85 36
5 6 6 6 6 6 4 5 3 2 1 0 0 0 0 0 0 0 1 0 0 0 0 0 0 0 0 0 0 0 0 0 0 0 0 0 0 8 13 10 23 111 75

GFSGL_con_sbcape_066.txt.gz
CAPE
2285 1936 1917 1619 1258 1141 1616 1283 2098 2105 4008 3311 3729 3208 3175 2970 3717 3618 3099 2837 2944 2787 3240 3424 3258 2997 2908 2863 2405 1979 1829 2162 1721 1561 2012 2021 3120 3281 2166 2277 2517 2225 1877
2398 2194 2046 2300 1675 1405 884 2044 2625 3407 2866 4310 3346 3799 3060 3021 3160 3277 3143 2147 2991 2843 3324 3426 3520 3046 3479 3264 3031 3229 3443 3721 3079 2589 2595 2243 2125 2211 3030 3414 3052 2009 1651
2446 2355 2244 2123 2208 1814 1086 1508 2408 2155 2806 2672 3699 3064 3339 2786 2748 2918 3270 3111 2928 3294 3314 3676 3511 3711 3863 3292 3364 2716 2256 2546 2586 2410 2183 2707 2849 3062 2677 3236 3560 2754 2212
2119 2216 2278 2215 2174 1882 1914 1158 1959 2837 2580 2767 2738 3177 3079 2880 2595 2480 3307 3195 3236 2924 3457 3145 3457 3562 3706 3941 3623 3481 3529 3670 3181 3200 2545 2290 2334 2492 2899 2776 2697 2990 2835
1634 1844 2190 2326 2199 2270 1929 2099 1865 2008 2490 2916 2915 3064 3117 2981 2604 2330 2346 3024 3180 3280 3159 3143 3253 3185 2888 3471 3416 3784 3692 3686 3415 3184 2928 2741 2722 2821 2581 2509 2593 2970 3082
1463 1694 1985 2207 2319 2430 2240 2246 2373 2340 2645 2915 3050 3078 3133 2901 2118 1408 1888 2092 3098 2985 2939 2942 3382 2189 1985 1960 1662 2022 2383 3239 3253 3522 3335 2887 2844 3041 3152 2954 2791 2501 2799
1821 1823 1905 2338 2297 2327 2504 2108 2595 2472 2632 2907 3060 3225 3243 3178 2107 786 662 1917 2053 2431 3082 2890 2921 2451 2305 3021 2066 1146 1089 1238 1198 2391 2650 2592 2454 2430 2569 3146 3152 3195 3174
1948 2360 2068 2349 2284 2509 2372 2509 2174 2605 2609 2963 3092 3237 3346 3409 2793 1154 6 1248 1920 2337 2554 2544 2887 2844 2744 3227 3280 3163 2710 2591 2265 1426 1548 2195 2500 2872 3257 3320 3404 3489 3101
2859 2234 2516 2071 2459 2523 2592 2553 2463 2514 2862 2862 3054 3331 3336 3382 2751 1834 18 920 1486 1812 1881 2111 2783 3058 2497 2184 1888 2189 2434 2660 2539 2358 2834 3029 2562 2184 2353 2708 2551 1798 2045
2274 2827 2839 2310 2601 2665 2676 2696 2672 2759 2779 3000 3077 3246 3276 3437 3146 916 74 1823 1751 1833 2221 2376 2048 1671 1781 1728 1977 2993 2942 2885 2864 2817 2882 2766 2182 1130 421 19 1186 2103 3059
2725 2498 3087 3567 2719 3121 3175 3161 3150 3103 3131 3337 3331 3351 3622 3451 3651 1450 0 2109 2052 2164 2091 2145 2392 2194 1663 1131 868 2271 2431 2517 2824 3115 3144 2800 3141 3821 3898 3791 3103 3335 3844
3482 3004 3670 3120 3518 3321 3612 3703 3545 3598 3573 3562 3616 3588 3464 3796 3137 1209 0 249 2194 2364 2217 2300 2226 1932 1238 876 47 415 1196 1009 1960 2235 2288 2515 2982 3370 3476 4289 4730 4258 3843
3487 3521 3558 4016 3654 3586 3880 3859 3899 3839 3686 3549 3606 3530 3629 3620 3804 2329 81 0 178 1996 2408 2253 895 964 16 0 0 5 19 565 1557 2273 2781 3209 3550 3693 4561 4584 4391 3543 2918
3296 4043 3663 4104 3919 3700 3688 3798 3856 3777 3783 3683 3394 3683 3526 3461 3501 3763 425 1 0 90 1387 2032 1521 1448 1352 1937 1904 24 347 2243 2924 3354 3555 3804 4000 4083 4121 4175 3538 2869 2566
4210 3976 3721 3760 3426 3839 3390 3740 3769 3746 3624 3617 3454 3173 3541 3271 2946 2879 2962 2117 1513 1042 1813 2233 2497 2450 2214 2596 3439 3909 2930 2976 3285 3419 3562 3767 3876 4058 3299 2942 2593 2874 2676
3526 3731 3637 3390 3545 3530 3456 2203 0 757 443 2004 2271 2787 335 31 0 0 0 1720 1709 1527 1718 2743 2862 2903 2976 2967 3211 3659 4000 3907 4221 4488 4642 4450 3773 2961 2881 3048 3027 2759 2408
1396 1436 3245 2780 3155 3311 3407 3401 2503 69 2 2 3 803 2347 226 17 71 586 244 4 376 2730 2425 3253 3684 3728 3830 4263 4375 4135 4230 4234 3820 4153 3277 2947 2892 3205 2832 2708 2452 2536
56 91 1003 1404 2735 3375 3396 3186 3192 2469 1987 999 1 0 2 2 3 383 289 1273 1371 1405 2743 3636 3928 4030 4011 4155 4478 4229 4184 4191 4368 4069 3915 3800 3571 3323 2793 2825 2830 2730 2005
9 4 16 705 736 1590 3489 3222 3477 3398 3186 3344 85 1 3 2 2 2 162 2193 3160 2677 2563 2524 2738 3538 4798 4360 3651 4195 3837 4013 4163 4052 3615 2782 2699 2899 2693 2370 1446 746 278
4 0 0 75 992 912 982 1331 1473 2038 1152 1883 1694 1540 323 141 810 661 338 546 1929 2478 3139 2433 3996 3776 3801 4002 3397 3703 3371 3246 2811 2503 2193 2026 2206 1274 656 824 816 910 935
5 0 0 67 185 510 752 398 156 817 450 763 1127 1075 138 739 2065 2259 1373 1415 1813 2276 2495 3108 3305 3093 2476 2619 2880 2354 2538 2028 2252 2272 1489 1077 1206 883 927 728 492 478 595
2 1 4 7 8 7 0 130 555 372 144 511 1706 341 120 303 2584 2717 2252 1804 830 333 339 1210 1431 1236 894 1005 1066 1176 1225 863 973 753 855 735 706 521 416 382 410 331 269
4 0 2 9 5 3 5 1 2 0 15 9 201 830 836 133 11 4 12 4 0 0 0 0 0 0 0 0 0 0 0 0 0 0 16 64 49 72 128 124 140 89 25
4 2 4 0 3 4 3 8 4 0 0 1 0 0 2 3 0 0 0 0 0 0 0 0 0 0 0 0 0 0 0 0 0 0 0 0 0 9 10 31 70 96 12
1 2 3 5 4 0 2 4 5 5 4 10 2 0 0 0 1 0 0 0 0 0 0 0 0 0 0 0 0 0 0 0 0 0 0 0 0 0 5 15 71 78 87
3 3 3 3 4 5 3 3 5 4 6 10 12 8 0 0 0 0 0 0 0 0 0 0 0 0 0 0 0 0 0 0 0 0 0 0 0 0 0 0 0 1 4

GFSGL_con_sbcape_069.txt.gz
CAPE
493 705 141 17 734 712 347 206 953 927 1331 2042 1938 2037 2067 2116 1653 1745 1173 1547 1269 1330 1308 1686 1884 1562 1137 1371 2190 1699 1224 583 531 309 670 1015 1343 1324 1314 1040 765 933 664
707 723 805 138 242 604 544 175 511 772 878 1822 1987 2051 1812 1618 1918 2002 1373 1527 1819 1400 1564 1811 1929 1743 1578 1623 1902 1566 1796 1945 1370 1181 1029 837 866 1001 1100 1285 1564 2078 1602
1060 697 971 832 97 374 280 493 139 1512 616 1123 1705 1787 1642 1801 1670 1828 2089 1631 1573 1619 1496 1793 1977 1995 1771 1935 1614 1573 1494 1299 1706 1520 1471 1401 1863 1817 1986 1616 1757 2156 2136
1212 1238 964 970 954 167 182 29 932 943 1829 1700 1858 1638 1926 1557 1531 1677 1833 2031 1992 1893 2078 1984 2198 2325 2251 2290 2605 2474 2286 2180 2055 2094 2106 1848 1659 1886 1633 2108 1849 1469 1789
1528 1493 1344 1151 1071 1122 586 328 13 1194 910 1222 1656 1927 1806 1933 1747 1513 1662 2047 2095 2107 1951 1975 2199 2123 2426 2528 2626 2526 2552 2424 2457 2520 2445 2208 2041 1603 2001 1988 2231 2040 1666
1476 1705 1588 1399 1269 1222 1163 976 164 318 1543 1066 1095 1654 1963 2090 2047 1730 1432 1523 2158 2155 2207 2154 2268 2115 2104 2167 2057 2464 2777 2747 2804 2752 2421 2381 2155 1939 1899 1971 1788 1688 2229
1027 1562 1596 1556 1505 1344 1326 1079 1054 393 496 1309 1719 1786 1784 2027 1963 1522 1064 1237 1097 1954 2111 2057 1987 2117 2039 1921 1688 970 516 508 1106 1730 1666 1689 1770 1741 1693 1661 1861 2192 2407
923 1204 1472 1563 1527 1469 1428 1333 1223 1267 962 989 1251 1748 1949 1974 2144 1020 443 874 1148 1116 1822 2074 2008 1938 1758 1652 1767 1930 1637 1128 800 436 605 1404 1652 1810 1832 2004 2126 2385 2639
710 1163 1353 1501 1537 1560 1339 1471 1358 1462 1557 1294 1604 1816 2005 2088 2031 1531 13 19 812 1155 1233 1341 1606 1856 1901 2001 1572 2046 2247 2519 2705 1866 1878 1727 1433 1363 1411 1929 2504 2499 2268
564 1436 1444 1341 1592 1426 1567 1427 1625 1328 1322 1686 1539 1785 2034 2106 2066 937 76 1063 401 622 842 1033 1529 1753 1862 1571 1237 1359 1210 1157 1082 1372 1490 877 461 507 524 275 1498 1478 1330
1253 1551 1731 1418 1525 1558 1542 1601 1503 1610 1447 1381 1743 1735 1950 2049 2309 1460 7 1680 1592 1074 913 993 1199 1197 607 455 450 1154 1640 1963 1997 1952 2119 2433 2302 2147 2455 1543 365 1113 2285
250 1727 1953 1941 1462 1801 1698 1790 1750 1714 1706 1638 1651 1893 1943 2165 2020 1619 79 70 1861 1655 1273 1206 1069 1277 1283 966 29 0 419 258 784 1540 1731 1689 1610 1762 2077 2448 2815 2982 3035
1 1002 1776 2296 1818 1784 1995 1931 1987 1947 1922 1902 1981 2012 2162 2275 2524 1547 326 0 12 1365 1704 1434 1431 1427 721 4 0 2 0 0 398 796 1174 1322 1687 2154 2494 3015 3271 3087 2738
1 787 2578 2596 2628 2016 2514 2248 2328 2284 2315 2211 2244 2308 2404 2387 2536 2746 202 0 0 0 1043 885 157 432 676 1278 717 0 0 7 331 710 1059 1648 2257 2653 3158 3122 2850 2333 2219
1 386 2761 2540 2417 2714 2703 2650 2552 2628 2588 2524 2470 2460 2357 2606 2527 2714 2451 1437 952 267 700 1139 1044 1153 1630 1508 1499 1795 95 304 947 1690 2316 2622 2757 2984 2738 2325 2120 2015 2301
2 274 1884 2774 2821 2920 2720 1037 1 446 2237 2505 2598 2664 1176 942 2458 2498 1675 1565 1117 560 272 1502 1456 1656 1781 1789 1516 1568 2468 1612 1725 2156 2574 2686 2895 2962 2610 2243 2018 2238 2251
3 3 90 1629 2845 2946 2908 2731 1475 3 2 0 37 2273 1329 790 0 4 10 6 2 34 1190 1571 1809 1855 1936 2008 2026 1847 2006 2876 2995 3044 3120 3351 3085 2505 2408 2229 2428 2498 2099
1 0 4 523 1069 1897 2662 2786 2546 826 799 304 1 0 10 1 3 2 2 0 1 482 1375 1362 1722 1978 2431 2555 2658 2850 2798 2937 3082 3021 2941 2879 2544 2378 2402 2436 2236 2060 1915
2 2 3 2 792 717 2008 2573 2507 1382 1147 478 1 1 1 1 2 2 146 1511 1075 1221 1686 1806 1797 1948 2319 2467 2506 2558 2528 2244 2518 3039 2987 2767 2542 2157 2004 1845 1887 1622 339
1 0 1 1 318 385 574 879 2114 2148 1761 178 139 95 0 0 112 242 58 288 1165 1682 1876 1793 1517 1079 247 2 106 1424 1942 1781 1465 1638 1954 1946 1701 1666 1287 277 168 99 81
6 4 2 2 3 1 0 214 213 578 724 600 418 35 0 83 211 107 12 309 561 1042 484 1366 1831 470 548 940 963 1142 513 1108 1014 1405 1198 927 860 438 45 23 39 25 10
4 4 5 5 4 4 3 1 2 49 86 210 348 1 2 123 125 1023 284 1 1 0 0 0 0 0 0 0 0 0 0 0 0 0 0 0 0 0 0 0 0 0 0
4 8 4 10 9 4 6 5 3 5 3 1 28 6 1 0 0 0 1 2 0 0 0 0 0 0 0 0 0 0 0 0 0 0 0 0 0 0 0 0 0 0 0
10 7 11 4 9 7 7 5 3 9 3 5 5 4 4 4 3 4 2 1 0 0 0 0 0 0 0 0 0 0 0 0 0 0 0 0 0 0 0 0 0 0 7
2 5 4 4 3 3 3 5 5 7 3 5 2 2 5 3 3 8 0 0 0 0 0 0 0 0 0 0 0 0 0 0 0 0 0 0 0 0 0 0 0 0 4
2 3 3 3 4 4 2 1 2 2 2 2 2 3 3 2 0 0 0 0 0 0 0 0 0 0 0 0 0 0 0 0 0 0 0 0 0 0 0 0 0 0 0

GFSGL_con_sbcape_072.txt.gz
CAPE
322 106 0 9 101 380 40 136 360 411 509 815 1352 1111 1020 1242 952 1149 837 675 929 778 661 674 795 1057 982 616 1033 1144 877 120 216 61 15 530 859 690 487 413 621 517 409
373 318 78 0 4 431 373 94 162 460 518 1291 1401 1408 1373 1476 943 978 882 954 966 970 841 897 1118 1506 1342 834 1039 1188 915 868 770 991 323 524 686 973 1288 1285 1429 1531 1518
369 367 376 34 0 87 469 372 3 354 417 1352 1404 1562 1531 1522 1511 1245 1028 860 1005 1279 1013 920 1127 1252 1326 990 933 1205 998 1025 802 989 1701 903 1408 1445 1442 1127 1196 1343 1557
471 438 505 535 104 0 157 265 319 0 283 477 1415 1428 1376 1313 1236 1357 1469 1240 955 1012 1147 986 1079 1284 1341 1487 1449 1483 1458 1743 1573 1375 1231 1298 1322 1523 1096 1453 1650 930 1397
631 663 429 730 677 164 0 142 32 310 249 644 727 1317 1363 1304 1271 1106 1150 1204 1312 1323 1302 1462 1482 1483 1711 1658 1668 1765 1839 1746 1642 1730 1794 1768 1924 2026 2047 1547 1437 1330 1090
794 834 802 548 837 774 264 11 29 5 497 592 1146 1078 1285 1423 1387 1049 1071 1183 1266 1328 1355 1356 1404 1613 1559 1570 1553 2121 1981 1997 2011 2020 2153 2316 2303 1561 1313 1276 1148 1148 1618
810 1072 1108 1032 844 856 928 432 213 68 0 601 574 1114 1292 1536 1510 1002 830 1014 1125 1454 1478 1454 1479 1810 1768 1643 1466 742 399 1233 2055 2269 2066 1881 1600 1401 1263 1253 1349 1350 1549
543 1106 1515 1438 1300 1104 997 1092 797 534 36 63 982 665 770 1170 1503 903 479 929 971 759 1249 1658 1634 1606 1464 1411 1432 1469 1378 1058 386 70 389 948 1068 1200 1275 1598 1630 1509 1696
117 71 481 1627 1589 1397 1241 1166 1123 977 656 185 248 1215 1312 1167 1052 901 48 797 1106 1016 685 871 1369 1458 1469 1266 1218 1297 1271 1368 1618 1352 759 688 589 749 698 913 1555 1690 1897
109 75 250 521 1436 1570 1498 1364 1307 1126 1091 913 644 476 695 1177 1366 547 0 1017 799 832 830 686 706 1282 1499 1236 851 1243 1232 1304 1014 617 658 414 56 175 257 50 1214 1455 1583
0 0 18 154 1242 1506 1571 1460 1432 1389 1216 1250 1185 1011 1123 1202 1378 586 0 1166 1383 915 608 606 603 653 184 201 122 954 1114 1162 1098 887 1081 1317 1548 1748 1767 1294 308 880 1149
2 0 0 85 1300 1362 1519 1517 1376 1342 1418 1212 1271 1399 1269 1344 1262 754 6 51 1534 1583 1353 909 781 587 241 0 0 48 770 226 192 416 857 1148 1258 1291 1262 1232 1410 726 1024
3 3 1 4 876 1345 1504 1435 1472 1341 1426 1413 1213 1164 1409 1477 1538 828 51 0 4 1154 1756 1535 1064 791 252 0 0 0 0 0 0 104 487 844 1026 911 1041 1462 2130 2391 2574
3 1 1 20 938 1454 1451 1411 1431 1453 1375 1366 1462 1380 1321 1438 1704 1785 200 0 0 0 670 1008 856 127 157 139 0 0 0 0 0 135 447 601 577 1007 1491 1961 2786 2544 2081
1 1 2 67 679 1991 1471 1485 1546 1545 1545 1515 1545 1548 1639 1670 1724 1909 1993 1236 728 332 443 680 173 52 322 150 276 506 38 0 0 5 143 427 873 1436 2015 2181 2159 1725 1881
3 1 3 3 29 1993 1975 356 1 171 1085 1437 1584 1692 1785 1749 1928 1927 1698 1412 1097 337 5 1155 1049 1155 985 1205 1306 1026 1077 488 316 352 663 1103 1565 1873 2368 2141 2015 1591 1699
3 2 2 2 14 1426 2448 1521 1445 13 2 1 350 1602 1916 1641 1231 801 1049 408 2 1 1473 982 1307 1211 1263 1264 1322 1310 1399 1257 1340 989 1379 1790 2039 2280 2258 2252 1629 1670 1713
1 0 2 4 4 342 1492 2500 1880 1261 1619 901 2 25 4 50 1296 505 0 1 0 1 924 1227 1194 1344 1290 1324 1352 1405 1418 1229 1823 1934 2116 2256 2043 1985 1813 1780 1737 1929 1764
2 3 4 5 3 154 505 1656 1912 1352 1179 1141 1 1 1 1 2 2 1 85 135 83 516 1189 1155 1370 1366 1516 1711 1730 1700 1608 1360 1522 1150 688 946 953 1202 1230 1429 1532 1363
4 2 3 4 5 3 62 639 1701 1821 1358 580 180 409 0 0 79 75 74 258 451 416 754 1060 1026 777 856 219 17 103 529 530 756 1123 1056 743 137 8 0 506 230 112 0
4 4 4 5 4 4 3 3 324 1559 1340 390 305 93 0 632 923 655 59 13 9 1 26 277 304 13 0 0 6 4 3 158 383 713 271 0 0 1 104 17 0 0 0
3 4 3 5 3 3 4 2 3 17 487 437 1 1 1 71 226 57 3 3 5 4 0 0 0 0 2 3 1 0 0 0 0 0 0 0 0 0 0 0 0 0 0
3 2 3 3 4 1 3 4 2 2 2 13 2 2 2 3 2 2 3 2 2 1 1 0 1 0 0 0 0 0 0 0 0 0 0 0 0 0 0 0 0 0 0
4 2 4 4 5 4 1 3 4 2 7 2 1 3 9 11 12 9 2 1 1 0 0 0 0 0 0 0 0 0 0 0 0 0 0 0 0 0 0 0 0 0 0
3 3 3 4 4 2 2 1 1 5 4 6 5 4 4 6 7 3 3 1 0 0 0 0 0 0 0 0 0 0 0 0 0 0 0 0 0 0 0 0 0 0 0
2 4 4 3 4 2 2 1 1 4 3 4 7 8 6 2 3 2 2 3 3 4 2 0 0 0 0 0 0 0 0 0 0 0 0 0 0 0 0 0 0 0 0

GFSGL_con_sbcape_075.txt.gz
CAPE
68 43 26 54 103 76 0 20 113 454 381 482 965 1199 700 888 889 772 694 599 700 683 378 497 514 434 748 386 400 686 431 3 159 156 0 158 496 442 752 647 628 827 742
124 67 3 0 0 90 62 0 0 60 193 442 600 1100 935 875 903 827 894 1014 673 674 789 529 631 752 1103 794 517 719 612 395 530 710 240 486 753 916 1144 1250 1460 1299 1109
155 123 27 0 0 0 71 100 0 0 46 321 806 1026 1030 1026 1039 860 844 811 730 786 885 871 772 684 853 803 633 692 791 681 490 579 1289 788 974 967 1214 1248 1218 1198 1108
165 238 151 21 0 0 0 22 101 0 28 194 883 1066 1166 1155 1216 1195 988 909 755 765 925 1021 984 925 933 887 819 922 942 1059 1234 1256 1015 858 845 1147 1005 1363 1782 1002 1141
77 218 236 205 21 0 0 0 0 26 4 26 320 1038 1022 1152 1239 1245 1368 1351 1234 985 855 915 929 969 1111 1131 1164 1180 1217 1315 1331 1300 1242 1220 1457 1550 1762 1265 1134 1058 838
250 198 246 262 264 25 0 0 0 0 17 0 66 259 952 1193 1240 1132 1132 1205 1063 1106 1063 912 1043 1351 1154 1202 1110 1144 1705 1477 1434 1332 1451 1625 1678 1575 1169 1064 781 875 1607
459 374 355 237 351 420 146 0 0 0 0 0 65 326 362 726 1196 825 439 985 938 942 955 1002 898 1226 1243 1226 1183 596 145 244 907 1618 1631 1627 1691 1621 1060 799 822 815 1079
196 437 641 622 342 496 595 301 0 0 0 0 0 54 485 566 791 440 96 661 825 798 899 998 1042 1075 1139 1264 1296 1273 1131 921 427 111 522 1355 1433 1356 786 963 1034 1037 1025
86 155 387 923 938 649 686 707 619 175 3 0 0 0 34 208 591 409 0 376 801 901 721 642 1011 1219 1278 1062 1092 1131 1039 974 958 805 413 390 276 205 50 290 904 1051 1393
4 49 120 357 1223 1399 1071 852 839 792 571 380 103 0 87 322 162 0 0 921 1011 1085 1126 867 442 744 983 772 382 935 967 1103 1125 892 604 276 45 33 12 6 760 1089 1229
7 6 1 0 118 406 1074 1319 1148 937 975 823 652 366 57 294 781 4 0 547 785 891 916 886 770 484 58 12 18 935 1001 1033 848 484 382 315 498 770 981 544 160 702 1014
11 10 7 1 17 259 906 1237 1383 1224 1083 993 925 864 678 396 118 56 0 36 961 1090 978 870 707 619 208 0 0 0 162 88 127 304 285 533 632 686 926 1141 1092 509 701
7 0 3 4 3 54 731 1246 1367 1334 1383 1230 1096 1052 1082 976 811 139 0 0 1 575 1146 1238 1094 740 222 0 0 0 0 0 5 0 64 133 304 526 631 678 720 814 986
7 2 1 3 2 46 484 1261 1318 1348 1402 1367 1318 1199 1058 1145 1220 1142 36 0 1 1 166 602 726 319 7 3 0 0 0 0 0 2 113 257 218 242 413 497 1097 1800 2492
3 0 0 6 3 4 37 1295 1368 1398 1463 1436 1334 1323 1175 1054 1046 1262 1333 781 495 194 182 324 851 182 663 423 74 36 0 0 0 0 0 0 39 138 362 752 1728 2171 2746
1 0 1 3 2 3 9 968 1 170 1054 1009 1036 1218 1265 1041 967 769 921 911 811 324 1 914 1043 1024 980 1024 1060 610 194 16 0 0 0 39 184 403 705 1393 1807 2067 2032
2 0 0 1 4 4 4 86 1922 346 1 2 3 448 744 1302 811 874 336 154 1 2 1036 1099 1149 1271 1229 1139 1032 1083 1029 693 751 493 418 364 583 863 1088 1701 1564 1382 1228
0 0 2 5 5 5 4 22 706 1497 1237 1079 74 0 0 8 627 364 10 1 4 1 803 1382 1419 1285 1294 1159 1102 1056 1018 944 710 863 620 765 1101 1447 1536 1448 1005 1126 869
0 5 6 4 4 4 5 13 454 1668 1811 1752 528 5 1 2 2 2 2 450 752 320 88 734 1132 1273 1136 1107 1053 1017 1095 925 799 1034 1273 1401 1232 1038 517 195 93 0 3
2 3 5 4 4 3 6 3 8 652 1412 1472 861 1086 1 1 11 20 0 3 316 658 403 381 878 1081 1088 902 820 907 763 506 789 935 928 191 237 110 23 0 0 0 1
0 2 2 3 3 3 4 3 3 4 352 1385 1147 647 2 103 484 738 181 116 62 14 45 166 299 233 94 12 0 15 35 85 123 303 456 153 6 0 0 18 72 42 12
4 5 4 3 4 2 2 3 3 2 2 131 103 1 1 54 98 0 0 2 1 1 1 1 2 5 3 0 1 1 0 0 0 0 38 7 0 0 0 0 0 0 0
4 3 3 4 4 3 2 1 2 3 2 2 2 3 1 1 1 1 2 2 2 2 2 1 3 6 5 5 8 6 4 2 0 0 0 0 0 0 0 0 0 0 0
3 2 3 4 5 3 4 4 2 1 2 2 2 3 4 3 2 2 2 2 4 4 35 8 2 1 8 7 6 3 1 0 0 0 0 0 0 0 0 0 0 0 0
3 4 3 3 4 3 4 4 4 3 3 3 2 3 4 4 4 3 3 3 3 8 11 9 0 0 0 0 0 0 0 0 0 0 0 0 0 0 0 0 0 0 0
4 4 3 3 3 3 3 3 3 2 2 2 2 2 5 19 13 6 7 6 5 8 2 4 3 2 1 0 0 0 0 0 0 0 0 0 0 0 0 0 0 0 0

GFSGL_con_sbcape_078.txt.gz
CAPE
70 94 74 22 0 0 0 41 302 424 429 534 953 1290 1175 641 641 634 654 877 797 852 695 828 968 744 921 902 562 920 624 57 722 1052 56 543 1187 1656 2238 2011 1799 2163 1985
42 79 93 37 35 0 0 0 3 259 354 546 601 1036 1168 989 840 1059 719 1092 889 887 974 860 895 804 1020 1271 1134 1151 967 784 1003 1327 963 1014 1648 1829 1879 2059 2260 2132 2020
18 0 35 5 0 83 60 0 0 35 102 252 556 771 1062 1110 1039 1077 987 1101 1078 1001 957 966 1140 985 1183 1138 1187 1191 1093 1116 985 1143 1504 1628 1673 1563 2111 2258 2374 2366 1791
1 26 0 0 0 0 30 48 0 0 31 86 414 752 1015 1103 1141 1183 1087 1075 1019 982 1053 1081 1249 1204 1401 1479 1222 1312 1319 1410 1545 1680 1786 1701 1583 1813 1742 1856 2495 2399 2016
24 72 0 2 0 0 0 0 0 0 0 47 206 621 1009 1197 1123 1279 1257 1178 1150 1098 1063 1067 1180 1163 921 1192 1526 1822 1575 1659 1830 1965 2060 1855 2159 2088 2319 2180 1822 1816 1826
48 97 212 147 54 0 0 0 0 0 0 0 46 366 821 1078 1098 963 1062 1406 1437 1463 1495 1421 1379 954 858 505 395 620 1428 2173 2272 2000 2312 2075 2365 2059 2152 1847 1657 1679 1876
211 156 179 278 274 189 1 0 0 0 0 0 6 50 334 687 844 771 367 1312 1376 1392 1492 1517 1225 1141 946 1508 1162 340 27 65 720 2136 2213 2321 2298 2397 2201 2080 1606 1258 1582
139 416 268 276 313 346 302 20 0 0 0 4 22 57 115 190 235 169 134 785 1175 1183 1131 1170 1230 1337 1201 1283 1436 1515 1536 1538 900 361 927 1764 2102 2142 2024 1892 1462 1264 1470
20 72 308 656 450 374 447 518 188 0 0 0 0 3 119 189 0 0 0 595 894 1158 1079 1069 1150 1242 1011 508 1327 1610 1702 1640 1192 761 641 638 455 389 251 512 1107 1442 1652
3 4 3 5 182 642 447 485 506 462 165 6 2 2 0 54 16 0 0 239 336 589 967 1080 321 837 873 391 758 1433 1499 1520 1542 1385 1008 127 48 83 0 67 856 1307 1660
3 3 4 2 3 83 343 993 688 795 612 544 308 229 64 0 57 0 0 312 508 499 687 737 1172 302 0 0 26 1175 1184 1428 1330 1033 1310 1115 880 803 830 412 513 1068 1699
3 5 7 5 5 11 63 197 715 1132 980 989 914 773 574 249 14 15 0 5 361 604 588 631 710 495 144 0 0 0 75 63 687 1087 994 964 1075 1142 1198 1264 1661 1069 1477
7 1 2 11 10 11 14 56 258 987 1337 1138 1154 1146 1080 910 542 6 0 0 0 223 693 721 680 535 346 0 0 0 0 0 28 369 487 655 934 953 996 1058 1160 1327 1294
2 2 0 3 3 4 17 22 54 941 1393 1271 1338 1353 1247 1205 1114 936 5 0 0 0 78 401 368 260 40 97 0 0 0 0 93 227 493 565 451 539 791 956 1106 1311 1767
0 0 0 4 3 3 4 6 4 173 1210 1391 1533 1544 1460 1255 1290 1155 973 354 85 12 0 187 611 751 909 908 438 339 216 34 27 91 186 337 442 689 754 779 1010 1591 2429
1 0 3 5 4 3 3 0 0 0 10 109 403 1254 1455 1123 938 760 842 516 383 12 1 593 774 839 959 731 967 1388 1002 280 364 463 353 423 466 466 627 1041 1386 2074 2462
5 3 2 2 3 6 2 4 8 2 4 2 29 0 166 1217 209 430 301 37 4 2 930 950 871 1144 1153 810 919 959 1442 1005 793 563 455 478 527 715 674 1354 1680 1974 2071
2 2 5 8 6 1 7 7 10 13 159 352 73 1 2 0 2 64 0 1 6 1 615 1051 1368 1158 1176 1176 1105 1148 1305 1584 1175 1165 1000 1013 945 912 989 1087 1671 1974 2208
2 6 5 6 3 1 2 7 2 6 21 279 1242 152 1 1 1 1 1 324 630 678 100 637 1272 1550 1289 1153 1092 1176 1426 1597 1544 1281 1130 1081 943 955 1090 1339 1711 1275 1239
5 6 10 10 3 0 0 5 4 6 5 0 504 1089 50 2 2 2 0 2 499 1310 1243 635 768 1268 1427 1320 1049 1204 1195 1171 1169 1120 1385 1312 1333 1221 1276 1208 1158 544 98
11 6 10 10 1 5 6 4 4 5 4 4 3 190 332 70 391 594 330 35 147 541 940 637 586 810 998 1047 1029 1117 1171 1188 987 905 1150 1240 946 593 199 111 16 0 6
8 8 7 9 5 5 6 5 4 5 5 4 3 5 1 3 317 130 1 0 1 1 2 1 1 2 2 1 1 1 25 158 91 226 628 444 203 153 63 58 53 114 102
5 5 4 3 5 5 5 4 4 3 4 3 4 4 2 1 1 2 6 3 2 2 2 1 6 2 2 3 11 1 2 6 4 2 4 3 7 16 5 4 4 10 40
4 4 3 4 5 5 5 6 4 1 3 3 3 4 3 3 2 3 3 3 3 3 14 7 1 1 1 1 3 6 20 3 0 1 0 2 6 4 5 4 11 22 3
2 4 3 4 5 5 5 5 4 5 4 3 4 4 4 3 2 3 3 3 3 3 3 3 3 3 2 2 3 0 3 1 1 2 1 0 2 1 0 0 0 0 0
7 5 5 5 5 5 5 4 4 3 4 5 4 3 3 4 4 4 5 4 4 6 5 3 4 8 2 2 3 3 2 0 0 0 0 1 1 0 1 3 1 3 1

GFSGL_con_sbcape_081.txt.gz
CAPE
604 1036 1011 768 609 745 799 1067 1444 1602 1884 2091 2236 2320 2415 2293 2463 2482 2314 1998 2211 2222 2208 2305 2262 2364 1767 1653 1781 1604 1535 1415 1251 1040 1802 1934 2611 3077 2915 3012 2447 2402 1950
649 839 940 1042 805 582 689 807 1163 1490 1665 1958 2238 2318 2408 2436 2509 2451 2371 1910 2235 2181 2130 2160 2103 1770 2289 2403 2150 2569 2259 2293 1927 2004 2107 2007 2618 2969 3116 3274 2751 1949 2778
390 305 487 600 778 804 775 769 814 1017 1368 1449 1894 2226 2439 2441 2450 2482 2576 2392 2419 2299 1993 2200 2180 2279 2464 2147 2358 2137 2028 2370 2459 2323 2264 2178 2570 2521 2782 2593 2701 2864 2199
441 464 480 590 573 684 1189 1071 868 912 1086 1129 1508 1688 1947 2437 2459 2375 2437 2546 2488 2380 2269 2136 2176 2265 2457 2789 2547 2743 2555 2580 2272 2423 2128 2244 2289 2441 2759 2090 1984 1753 2344
378 515 558 943 934 697 547 1142 1071 1025 998 1114 1374 1345 1617 1699 1814 2361 2440 2486 2478 2459 2328 2274 2176 1978 1762 1946 2103 2351 2540 2633 2365 2242 2102 2036 1993 1868 2055 1945 1791 1929 2431
508 531 855 804 929 1064 871 719 1322 1190 1049 1120 1028 1195 1373 1094 607 982 1836 2301 2409 2433 2478 2448 2353 1430 1136 727 527 723 1297 2516 2468 2062 1580 1735 2430 2429 1837 1884 1894 1990 1576
441 688 924 881 865 930 861 995 1216 1084 1023 1039 1005 1065 1535 1721 698 324 419 1700 2187 2472 2556 2566 2375 1934 1875 2363 912 75 85 0 342 2221 2409 2361 2504 2359 2550 2715 2506 2241 2201
482 620 920 902 915 1010 973 876 1036 774 917 1118 954 1160 1306 1197 580 43 0 1391 2131 2301 2372 2533 2664 2478 2392 2168 2282 2239 2167 2205 1882 1267 1707 2203 2459 2539 2855 2630 2639 2477 2272
6 7 3 21 745 987 1091 1063 938 770 714 711 714 950 1073 1356 198 0 0 1005 1307 2343 2415 2329 2388 2521 2125 1292 1855 2079 2176 2145 1406 1294 1251 1324 1268 895 772 1624 1748 1726 1463
5 9 13 8 9 28 999 1347 1318 1266 926 778 651 877 572 1298 581 0 0 370 883 936 1661 2401 1310 1533 1561 728 1423 1920 2164 1881 1615 1545 1873 896 168 739 3 579 1667 1738 1548
0 4 10 9 9 5 62 205 1164 1535 1616 1496 1043 1079 1123 872 863 23 0 461 721 892 824 847 766 237 112 0 103 2026 2196 1605 1212 1594 1481 1614 1719 1906 1927 1528 1543 1703 1584
0 0 6 15 18 12 9 27 84 268 1172 1916 1724 1447 1280 1259 311 139 0 0 350 921 1324 1053 1186 538 0 0 0 266 766 499 1290 1154 995 1126 1328 1382 1463 1719 2196 2270 1925
0 0 1 6 7 14 9 8 80 179 456 1019 1631 1345 1099 1634 1638 40 0 0 0 439 1031 1089 794 523 34 0 0 0 0 266 863 1051 1009 912 1007 1172 1754 1967 1891 2032 2287
0 0 0 0 0 7 24 11 20 160 225 551 1275 1305 1199 1285 1890 1872 468 13 0 0 14 505 616 458 344 714 511 24 56 850 1091 1131 1052 1020 1169 1460 1576 1715 1701 1751 1923
4 0 0 0 0 7 12 11 11 20 51 82 428 1237 1305 1576 1896 1610 1623 1426 618 149 259 700 972 1184 1249 1253 1221 1410 1484 1148 1087 1291 1444 1392 1403 1509 1653 1912 1881 1800 1810
10 1 0 0 0 1 10 6 4 0 0 0 0 1 126 901 1264 1108 986 764 326 59 119 1150 1345 1536 1141 1107 1044 1212 1359 1162 1534 1297 1348 1379 1394 1560 1721 1922 1935 1851 1826
7 6 5 0 0 9 6 10 8 1 5 0 0 2 2 11 292 13 335 0 4 1 864 1373 1307 1182 1129 1134 1204 1107 1189 1710 2272 1428 1336 1384 1510 1682 1857 1998 2135 2106 2057
9 1 5 7 8 14 6 10 12 4 10 7 2 21 14 2 2 0 2 1 19 1 1125 1393 1861 1417 1620 1689 1428 1434 1533 1394 1608 1767 1731 1704 1898 2033 2166 2157 2112 2345 2261
6 5 4 3 2 15 16 15 8 17 16 11 9 3 162 2 1 1 1 426 1166 1367 335 907 1479 1803 2153 2038 2191 2191 1893 1538 1305 1594 1513 1541 1609 2016 1873 1764 1899 1209 1415
2 2 8 2 6 13 14 12 3 12 5 13 10 15 15 1 4 5 6 9 963 1661 1873 1638 1640 1835 2224 2395 2126 2375 2511 1994 1414 1395 1540 1461 1618 1631 1342 1605 1567 1567 1343
10 5 4 7 1 4 6 12 11 10 7 11 9 9 1 3 44 289 138 6 105 834 1178 1562 1210 1193 1545 1690 1839 1698 1639 1540 1323 1321 1210 1159 1486 1648 1522 1902 1924 1651 2309
19 6 6 9 5 7 9 8 5 8 6 7 8 7 0 5 10 3 5 6 6 4 2 7 10 8 6 6 2 2 192 628 640 368 649 882 1076 1212 1170 1032 1069 1032 1635
14 11 9 9 7 5 6 4 8 8 6 6 10 9 5 5 5 4 10 16 3 4 4 5 11 6 14 6 3 2 2 3 2 1 2 4 21 170 261 366 658 999 847
10 10 11 9 7 6 6 5 5 3 5 5 7 7 6 5 4 5 6 4 4 7 19 22 18 2 11 2 5 12 1 5 2 4 2 4 7 6 8 90 273 227 269
8 8 9 9 7 8 7 5 5 6 6 6 6 6 6 5 5 5 5 7 4 5 4 4 6 4 2 2 1 1 0 1 1 0 9 4 7 4 5 3 4 4 2
7 12 10 8 7 8 7 7 6 6 5 5 6 7 7 6 5 4 6 5 5 4 4 4 3 2 1 1 0 0 0 1 0 0 3 3 2 2 1 1 0 1 1

GFSGL_con_sbcape_084.txt.gz
CAPE
1546 1418 1479 1514 1598 1770 1598 1520 1532 1542 1739 2332 2396 2472 2033 2229 2530 2730 2132 1943 1937 1892 2004 2220 2482 2321 1755 995 1172 1206 1035 933 937 638 799 1090 2322 2647 2821 3140 2827 2235 1069
1527 1635 1556 1582 1540 1423 1554 1349 1382 1636 1609 2109 2439 2567 2383 2110 2454 2727 2255 1510 2164 2178 2044 2231 2337 2032 2521 2198 1484 1795 1931 1578 1408 2205 2118 1224 2107 2192 2725 3250 2546 1742 1916
1135 1086 1323 1398 1490 1418 1298 1433 1395 1519 1652 1631 1984 2375 2321 2020 2421 2967 2633 2392 2371 2180 2278 2343 2220 2197 2461 1892 1897 1597 1719 1931 1923 1727 1461 1345 1505 1887 2406 3321 2511 2307 1273
1000 1082 1085 1061 1097 1122 1293 1297 1376 1564 1570 1429 1660 1898 2171 2186 1838 2315 2701 2787 2558 2655 2688 2564 2322 2149 2440 2757 2492 2464 2635 2576 2672 2026 1675 1494 1571 1974 2239 1923 1237 1045 1119
895 1032 1197 1331 1251 1154 1542 1216 1246 1498 1603 1621 1494 1464 1668 1800 1892 2065 2201 2699 2915 2891 2757 2838 2615 2078 1599 1893 2077 3177 3030 2561 1860 1544 1439 1402 1392 1458 2161 1160 1123 1009 1643
868 1133 1116 1304 1375 1504 1577 1473 1256 1512 1697 1748 1720 1491 1285 806 588 865 1692 2776 2421 2925 2729 2821 2824 1857 1711 1529 1371 1208 1287 2505 2418 1566 773 952 2669 2063 1247 1063 1109 1085 1103
12 820 1020 1433 1523 1589 1483 1643 1715 1518 1438 1929 1773 1702 1909 1870 396 79 562 1455 1747 2421 2695 2511 2373 1895 2160 2529 953 541 171 74 315 2117 2427 2219 2714 2135 2668 2580 3240 2122 2009
0 2 3 256 896 1439 1678 1887 1655 1614 1639 1640 1689 1973 2022 1938 881 204 0 1252 1892 2444 2472 2365 2853 2681 2077 2113 2494 2361 2460 2505 2050 1618 1822 2115 2677 2372 2833 2907 3225 3020 2412
0 0 1 5 10 212 1428 1593 1846 1811 1987 1602 1569 1711 2079 2043 941 219 0 1016 1043 1986 2403 2823 3103 3184 2454 1569 2253 2266 2335 2247 1167 1373 1303 1266 1139 960 890 1637 1466 1094 708
0 0 1 7 15 5 211 1082 1936 2677 1651 1544 1535 1665 1380 1871 1353 247 0 917 985 799 1513 2643 1722 1737 1968 1511 2486 2669 2708 1798 1118 1301 1558 1043 480 1326 131 1090 1768 1534 863
0 0 0 0 4 10 8 79 899 1797 2089 2425 2171 2029 2056 1666 1677 244 0 988 970 985 860 686 648 349 492 191 305 2917 2463 1370 746 1033 1019 1002 1024 1124 1715 2021 2465 1974 1348
1 1 1 0 2 2 22 22 23 597 1181 1514 1829 2190 2201 2327 1190 920 0 10 667 1098 1420 1018 1313 732 0 0 0 411 710 272 536 233 242 448 464 345 524 1173 3411 3299 2549
0 0 0 0 0 0 0 16 31 101 518 909 514 832 1810 2034 2190 725 235 0 0 132 1212 1029 782 38 0 0 0 1 0 528 676 544 368 496 520 224 1707 2418 2542 3988 3675
6 1 0 0 0 0 0 0 5 64 121 316 556 699 1489 2586 2071 2164 1605 214 8 0 15 123 512 677 629 739 639 44 116 845 896 757 673 735 607 313 363 767 1093 1105 1612
6 1 0 0 0 0 0 0 0 2 21 26 168 305 511 895 1933 167 303 1478 2606 1279 455 815 1190 1200 1328 1533 1413 1243 1246 1141 1027 1108 1131 1094 842 535 475 625 833 1025 1318
19 1 0 0 0 0 0 0 0 0 0 0 0 1 11 3 0 0 0 1 1 12 512 1081 1558 1768 1787 1798 1784 1572 1371 1018 1335 1318 1257 1197 1040 765 581 598 776 1073 1440
21 33 5 0 0 0 0 0 0 0 0 0 0 0 0 0 1 1 2 1 0 2 1148 2125 1790 1852 1974 2340 2007 1602 1561 1881 2620 1757 1489 1221 1052 925 763 732 779 1195 1508
43 13 23 6 0 0 0 0 0 0 0 0 0 1 0 0 0 2 2 0 8 1 425 1327 2051 2112 2242 2181 1699 1794 2050 2010 2117 2218 2245 1761 1377 1280 1187 1273 1466 1877 1902
8 12 13 20 9 1 1 0 0 0 3 4 3 7 5 3 0 2 1 6 96 951 542 1307 1995 2232 2278 2269 2362 2464 2551 2520 2450 2444 2404 2491 2468 2351 2105 2011 1982 1653 1889
12 10 5 8 5 8 7 7 5 5 8 9 7 9 22 8 7 9 2 4 14 863 1635 1997 1529 2165 2320 2411 3603 3322 3131 3262 3498 3182 2620 2288 2028 1799 1796 1991 2336 2621 2455
8 15 9 9 10 6 8 4 3 4 5 9 9 3 0 6 7 3 15 14 8 56 791 1913 2050 2402 2408 2795 3056 2740 2895 3007 2836 2413 2555 2356 2010 1640 1498 1648 2068 2377 2335
15 17 15 4 5 3 1 2 5 11 7 11 6 5 0 7 10 7 8 5 5 6 5 4 4 2 3 5 7 6 2 3 523 1173 1471 1447 1494 1513 1471 1515 1757 1992 1879
33 19 17 17 12 10 14 5 5 8 9 6 8 9 6 8 7 5 6 5 5 5 9 5 6 6 5 3 3 2 2 3 2 2 4 6 11 107 520 802 976 965 1103
18 15 18 18 18 20 17 16 14 2 5 6 8 8 6 7 7 5 5 5 6 7 10 8 6 6 9 5 8 9 4 2 2 4 5 16 21 6 3 24 43 84 76
13 15 21 21 19 18 18 17 14 12 11 10 9 8 6 5 6 5 4 4 5 5 6 11 8 10 10 4 3 1 0 1 0 0 16 12 2 2 1 1 1 0 0
16 15 15 13 16 16 15 16 12 10 10 9 8 7 6 7 7 7 7 5 5 5 5 5 5 2 1 1 0 0 0 0 0 0 6 7 4 4 4 3 1 1 1

GFSGL_con_sbcape_087.txt.gz
CAPE
2155 2194 2237 2068 2120 2309 2009 1796 1818 1618 1711 1748 2711 2080 2436 2322 2383 2845 3275 2325 2346 2269 2612 2182 2803 3598 1835 863 830 819 839 873 829 815 852 1555 3432 3393 3149 3208 2866 3383 2093
1966 2163 1974 1873 2029 1947 2200 2013 2244 2248 1791 2101 1966 2271 2211 2301 2887 2788 2234 1710 1885 2040 1990 2333 2103 1738 3690 3496 1662 3190 1913 2518 1529 3084 2165 1413 2903 3121 3677 4430 3152 2125 2156
1661 1792 2007 1949 1902 1867 2126 2048 2248 2209 2270 1505 2070 2946 2137 2234 2833 2635 2670 2603 2093 2205 2162 2572 2300 2680 3196 2521 2949 1608 1233 1946 2266 1847 1759 1402 1643 1691 2165 3708 4260 3259 2186
879 1235 1757 1859 1965 1959 2462 2249 1905 2649 2371 2179 2407 2891 2760 2378 2260 2256 2588 2910 3014 2648 2658 2689 2596 2498 3374 3529 2960 3772 3055 2883 2433 1646 1458 1542 1505 2363 1839 2007 1877 1393 1332
828 1216 929 1753 1811 1793 1862 1980 1834 2690 2618 2447 2644 2534 2715 1970 1756 2819 2769 2720 3230 2857 3371 3101 3096 2321 1612 2310 1974 3257 3430 2936 1862 1450 1260 1161 1108 1611 2324 1491 1431 1352 1846
11 48 509 1407 1761 2281 2110 1908 1967 1802 2746 3401 2879 2729 2617 1247 527 666 1822 2565 3092 3122 3102 3387 3814 1946 1766 1417 1203 1254 1420 3207 4036 1687 855 837 3261 1865 909 924 1338 1106 1048
1 0 1 38 118 359 1641 2430 2670 2787 2417 3190 3334 3014 3187 3091 1166 7 410 1545 2483 3183 3448 3387 3319 1750 2363 3224 1405 1124 953 489 326 2734 3587 3411 3329 3739 3701 3968 2747 2852 2025
0 0 2 2 7 14 223 1657 2391 2439 2446 3021 2691 3305 3465 3046 1664 682 0 1561 2052 2549 2905 3579 3618 3499 3477 3237 3330 3060 2912 2954 2452 1419 1981 2621 3154 3601 3781 3367 3906 4342 3229
0 0 0 0 1 4 10 19 926 2151 2722 2293 2487 2768 3214 3314 1897 677 4 1307 1198 1899 2368 2672 3012 3683 3059 2267 2927 3382 3519 3533 1519 1864 2004 2141 1991 1465 1049 1690 1452 1045 786
1 1 2 4 1 0 0 3 9 430 1774 2695 2271 2534 2235 2991 2268 1490 1 1366 1745 1511 2117 2244 1243 1425 2171 1900 2865 3213 3368 3261 3265 2122 1801 823 249 965 280 726 1452 1427 984
0 0 2 3 0 0 0 1 3 5 216 1438 2229 2877 2637 2279 2636 1166 94 1860 1558 1607 1627 1614 1677 713 390 446 355 3139 3060 3065 2779 2358 2071 1596 1212 1777 2192 2377 2697 1992 1558
0 0 2 3 2 0 0 5 0 8 11 482 1727 2103 2112 3074 1850 1495 0 41 1444 1761 1980 1531 1589 825 0 0 0 391 885 1227 1958 1517 1026 560 492 557 491 1112 3088 3468 2730
0 0 1 0 0 0 0 0 1 14 33 89 345 784 1454 1917 2446 1450 52 0 0 439 1672 1538 377 0 0 0 0 0 0 562 1185 1375 1321 1176 834 557 936 1676 2297 4524 4307
0 0 0 0 0 0 0 0 0 0 0 2 7 80 9 11 1492 2613 1599 176 54 5 80 381 488 473 75 82 353 25 30 728 1196 1402 1395 1307 1211 882 648 943 742 645 1052
2 0 0 0 0 0 0 0 0 0 0 0 0 0 0 0 21 0 0 1 7 2 1 75 1463 1746 1280 1741 1957 2107 1959 1594 1356 1289 1528 1552 1326 1140 1050 1069 745 664 1009
33 6 0 0 0 0 0 0 0 0 0 0 0 0 0 0 0 0 0 1 0 1 4 400 744 2284 2164 2081 2208 2482 2230 1787 2017 1899 1777 1672 1607 1596 1532 1418 1078 898 1043
33 45 26 7 4 3 0 0 0 0 0 0 0 0 0 0 0 0 0 2 0 1 6 290 995 1482 1907 2354 2134 1898 2033 2511 2448 1874 1782 1964 1793 1713 1424 1366 1330 1237 1201
22 0 1 9 27 12 4 1 1 0 0 0 0 0 0 0 0 0 0 0 3 3 7 262 976 1488 1917 2143 2222 2586 2300 2682 2315 2456 2661 2551 2552 2142 1934 1742 1586 1605 1486
12 15 17 11 10 19 17 8 6 0 0 0 0 0 0 0 0 0 2 2 8 12 80 208 722 1505 980 835 2014 2088 2794 2942 2595 2903 2888 2641 2839 2669 2529 2195 1979 1068 1182
12 19 30 28 35 20 20 25 23 16 3 2 0 0 0 0 0 2 0 8 9 5 7 195 1752 1451 1009 1786 2534 1757 2142 2262 2794 2855 2382 2729 2724 2792 2619 2695 2696 2274 2792
10 17 18 18 9 17 13 14 21 27 17 8 4 0 0 0 0 0 14 14 6 3 5 6 7 903 1024 1150 1663 2380 2055 2176 2473 2775 3034 3164 2935 2894 2473 2563 2389 2330 2175
32 37 39 27 20 17 19 22 19 7 21 24 14 7 0 1 2 2 9 7 7 6 6 4 4 8 11 9 1 3 5 112 140 403 1613 2164 1894 1940 2014 1928 1984 1637 1439
15 13 19 23 19 11 18 24 19 18 9 18 15 8 11 8 7 6 8 7 7 6 7 6 6 6 7 10 7 4 3 5 5 7 8 4 2 4 33 237 749 894 931
18 13 12 24 26 18 17 18 18 7 8 18 17 3 13 13 8 8 7 6 6 6 5 7 4 4 5 5 5 3 2 0 2 10 13 8 5 4 7 17 2 1 13
15 16 23 32 27 31 21 16 20 22 21 20 18 16 12 12 8 6 7 5 5 4 4 4 4 3 3 2 1 0 0 0 1 0 3 7 6 3 5 5 2 2 3
22 18 21 19 17 21 27 25 16 17 19 16 16 16 15 13 7 7 8 7 5 4 4 4 2 1 0 0 0 0 0 0 0 0 5 6 7 5 3 1 0 0 0

GFSGL_con_sbcape_090.txt.gz
CAPE
2790 2801 2670 2644 2873 3179 3092 3231 2824 2584 1131 516 0 0 1844 2912 3081 3476 2375 1584 2514 2495 3143 2605 3134 3224 2642 2484 2459 2182 2307 2055 2056 1719 2492 2173 2698 2806 2435 2936 3188 3187 2715
2579 2958 2907 2806 2779 2901 3003 2987 3334 3288 3045 2309 929 1577 2509 3086 2574 2665 3162 2350 2536 2790 2997 2769 2630 2385 3469 3270 2580 2472 2513 2608 2202 1975 1886 1579 1702 1713 3299 3842 3077 2549 2354
1627 2641 2712 2672 2844 2898 3163 2939 3295 3241 3109 2433 2609 3247 3247 2858 3249 2817 2636 3071 2624 2604 2974 3172 3019 3060 2999 2524 3283 2893 2283 2297 2389 2247 1733 2741 1934 1850 2127 3103 3721 3596 3579
93 1172 1026 2422 2446 2608 3138 3048 3012 3244 3009 2701 2967 3094 2866 2740 3067 3152 3304 2731 2778 2534 2943 2891 3226 3077 3265 3404 2955 2930 2746 2944 2633 2642 2021 1592 1715 1903 3022 2963 2459 1417 1450
9 18 304 354 1893 3164 2999 2826 2853 3345 2961 2976 3045 2841 3264 2796 2549 2633 2848 3237 2957 2804 2727 2791 2926 2835 2695 3023 2816 2952 2891 2878 2396 2135 1943 2138 1977 2385 1871 1685 1460 2120 1485
8 7 11 13 310 777 1697 2617 2512 2696 2682 2803 2891 2956 2755 2077 1153 704 2180 2460 3017 3057 2614 2875 3048 2664 2130 1093 1148 1146 1180 2827 2815 3129 2440 1556 1771 2618 2256 2229 1896 1227 1083
0 3 3 6 7 71 245 905 2063 2545 2787 2765 2345 2939 2801 2906 1891 646 0 1869 2812 2798 3153 2721 2285 1824 1668 2472 1030 946 765 250 386 1181 1688 2187 2428 2403 2876 2778 2714 2751 2240
0 0 0 0 0 0 0 31 71 640 2159 2671 2502 2473 2577 2645 2347 1820 751 524 1495 1984 2731 3020 2941 2452 2347 2829 3001 2927 2138 1937 1472 482 600 846 1135 1502 2062 2027 2050 2421 2573
0 2 2 0 0 0 0 0 0 15 264 1618 2168 2498 2692 2555 2132 1390 619 1242 1409 1420 1595 2055 2132 2661 2835 2260 1928 2512 2935 2996 2567 2225 2029 1494 1035 799 914 1550 1575 1264 885
0 1 4 10 3 0 0 0 0 4 76 581 900 1984 2066 2021 1928 1567 161 1584 1840 1744 1603 1501 1024 1221 1469 1316 1204 2254 2009 1902 2115 2315 1569 368 133 406 172 364 1459 1369 901
0 0 1 2 2 12 10 9 1 0 10 97 481 1226 1843 1879 1863 1478 85 1358 2019 1843 1729 1657 1692 1157 622 288 0 1224 1948 2218 2103 2024 2171 1942 1538 1483 1757 1121 964 990 858
2 0 0 4 0 0 2 0 0 0 11 74 278 668 1111 1601 1355 1321 508 0 454 1330 1835 1786 1794 0 0 0 0 0 51 314 1238 1553 1737 1526 1128 780 581 533 1318 1565 1387
9 3 1 0 0 0 0 0 0 0 73 59 33 54 134 5 37 0 0 0 0 0 1 295 0 0 0 0 4 0 0 0 172 625 840 1037 1110 1005 760 549 448 1881 2360
16 19 6 0 0 0 0 0 0 0 0 0 0 0 0 0 16 45 0 0 0 1 4 4 0 0 0 66 46 435 0 27 311 501 630 727 851 919 862 754 346 110 277
14 12 6 0 0 1 4 3 0 0 0 0 0 0 0 0 0 0 0 0 0 1 0 2 6 118 775 1673 1502 1292 1407 397 498 737 900 1005 1081 1062 918 715 482 275 518
10 5 4 1 0 0 0 0 0 0 0 0 0 0 0 0 0 0 0 0 1 0 1 3 7 128 273 749 1795 2021 1709 1431 1502 1253 1165 1077 947 880 927 1000 886 636 586
6 4 4 3 5 3 0 0 0 0 0 0 0 0 0 0 0 0 0 2 1 0 2 2 10 54 167 772 1105 1226 1340 1666 1604 1686 1643 1637 1368 1190 960 849 732 723 979
14 8 9 15 5 20 18 6 0 2 0 0 0 0 0 0 0 0 0 1 0 0 3 4 5 45 108 157 559 1271 1343 1474 1316 1442 1722 1210 906 1550 1498 1205 1000 928 881
13 5 8 5 6 11 10 34 19 7 5 3 4 0 0 0 0 0 0 0 0 1 2 4 15 39 168 470 856 1347 1192 926 1133 1371 1087 1248 1345 1433 1407 1324 1376 1128 694
0 2 5 7 12 16 20 13 16 23 19 14 18 19 17 15 19 36 41 16 4 18 12 5 4 3 7 7 370 1132 1116 1258 1607 1363 1076 966 939 1108 1029 1067 1187 1127 960
0 0 6 10 20 15 12 24 15 7 17 26 9 0 0 1 10 2 0 4 9 1 0 0 3 4 4 5 6 17 945 1347 1486 1544 841 658 777 876 1088 1110 1157 1177 1236
0 0 0 1 8 22 28 26 28 27 16 6 3 1 0 0 31 46 45 15 0 1 4 10 6 5 7 5 5 4 7 11 65 8 2 0 10 105 356 714 700 987 1064
0 0 3 5 9 10 14 24 15 19 23 19 22 23 11 1 10 4 0 0 0 2 3 5 6 4 5 5 8 7 4 9 6 5 2 1 0 2 70 57 127 357 902
0 1 4 6 9 17 16 16 16 7 13 16 17 33 19 9 8 7 9 9 2 3 4 3 4 5 3 2 2 1 2 2 5 4 3 4 4 4 5 3 2 1 1
0 0 8 10 8 15 14 15 17 17 17 21 20 16 18 15 15 12 11 3 2 3 2 3 4 3 2 1 0 0 0 1 0 0 2 4 5 4 1 0 0 0 0
2 3 3 13 10 12 13 12 14 16 21 22 24 18 14 17 18 17 9 4 3 4 3 3 1 0 0 0 0 0 0 0 0 1 1 5 3 0 0 0 0 0 0

GFSGL_con_sbcape_093.txt.gz
CAPE
1308 1590 1656 1770 1659 1564 1535 1747 1366 359 640 348 193 145 473 1137 1521 1352 1306 1039 887 1218 1343 1598 1126 1330 1341 1438 1768 1477 1255 1333 788 642 1462 1023 511 347 443 647 1330 1789 1699
131 367 1711 1901 1820 1740 1794 2061 1417 889 644 276 0 0 0 800 1623 1672 1407 1459 1009 1031 1262 1439 1241 1376 1483 1990 1315 1506 1346 1021 891 716 507 671 841 785 1109 1510 2272 2256 1840
122 167 535 1914 2003 1780 1829 2035 2098 1834 1038 714 617 105 878 1281 1716 1407 1326 1305 1416 1188 1436 1523 1614 1627 1465 1499 1064 1340 1474 1641 1735 1609 1743 1399 1438 904 812 889 1285 2051 1225
52 92 164 155 405 1249 2123 2117 2367 2286 2099 1743 1644 1471 1916 1794 1645 1921 1409 1193 1369 1404 1785 1890 1745 1574 1417 1549 1475 1349 1390 1492 1479 1636 1314 1176 1002 1338 1323 1320 742 561 711
2 18 23 82 221 138 243 1451 1915 2087 2333 1996 1626 1721 2190 1799 1606 1879 1846 1742 1385 1290 1463 1668 1894 2022 2173 1864 1894 1673 1695 1633 1696 1623 1508 1346 959 928 1376 1363 1201 1021 519
0 2 17 9 5 17 91 187 1315 1508 1559 1823 2043 2012 1835 1925 1875 1546 1699 1633 2080 1600 1442 1661 1914 1849 1780 1838 1419 1934 1815 1727 1374 1377 1562 1717 1246 894 1433 1406 1675 1284 1171
0 0 0 3 0 0 3 53 100 143 999 1457 1449 1295 1643 1947 1749 1315 158 421 1521 1705 1908 1661 1608 1879 1722 1735 1797 493 98 122 652 743 705 492 609 582 815 1111 1017 1289 1289
0 0 0 0 0 0 0 0 0 0 83 226 836 1488 1454 1524 1744 1605 1205 25 173 540 1371 2022 1777 1609 1341 1365 1917 2050 1256 779 472 41 148 404 163 168 285 497 715 998 1185
0 0 0 0 0 0 0 0 0 0 0 30 230 485 1280 1255 1510 1486 819 357 305 562 656 948 1645 2049 2095 1946 1001 1007 1547 1942 1959 1312 735 422 299 119 114 856 1078 981 814
0 0 0 0 0 0 0 0 0 0 0 0 0 119 435 1065 1092 1115 399 206 915 891 1038 830 711 668 842 1372 1071 1315 1465 1466 1380 1662 667 162 24 101 4 21 554 515 695
0 0 0 0 0 0 0 0 0 0 0 0 0 7 257 599 195 2 1 16 675 1127 1230 1261 1139 600 0 0 0 260 627 378 588 1022 1215 1191 1176 969 714 260 194 527 797
0 0 0 0 0 0 0 0 0 0 0 0 0 34 84 0 0 0 0 0 0 1 101 382 764 1 2 0 0 0 0 0 0 57 502 822 1063 1085 990 698 869 613 591
0 0 0 0 0 0 0 0 0 0 0 0 0 0 0 0 0 0 0 0 0 0 0 0 1 0 0 15 14 0 0 0 0 0 15 221 359 497 655 524 184 7 398
0 0 0 0 0 0 0 0 0 0 0 0 0 0 0 0 0 0 0 0 0 0 0 0 0 0 0 0 0 27 48 129 81 5 0 0 53 215 444 544 574 531 405
0 0 0 0 0 0 0 0 0 0 0 0 0 0 0 0 0 0 0 0 0 0 1 0 0 0 0 2 22 360 922 767 0 24 108 138 186 268 360 434 488 471 407
0 0 0 0 0 0 0 0 0 0 0 0 0 0 0 0 0 0 0 0 1 1 0 0 2 2 1 1 20 35 166 784 935 245 278 369 464 525 592 655 592 534 452
0 0 0 0 0 0 0 0 0 0 0 0 0 0 0 0 0 0 0 0 1 0 1 1 0 1 0 1 4 15 38 370 487 738 1147 743 556 448 399 431 485 456 423
0 0 0 0 0 0 0 0 0 0 0 0 0 0 0 0 0 0 0 0 0 1 1 2 0 0 2 9 15 10 52 46 82 566 886 888 817 916 945 818 495 429 547
0 0 0 0 0 0 0 0 2 2 0 0 0 0 0 0 0 0 1 0 0 0 0 1 12 8 8 7 10 4 3 2 7 380 624 598 585 620 258 12 0 0 247
0 0 0 0 0 0 0 0 0 1 3 3 1 1 0 0 0 0 0 0 22 34 7 0 0 3 5 5 1 1 1 2 7 21 536 618 632 487 459 286 247 418 473
0 0 0 0 0 0 0 0 0 0 5 4 5 3 4 0 0 0 0 0 0 0 0 0 2 2 5 9 11 1 0 1 8 11 14 378 391 369 286 363 427 454 450
0 0 0 0 0 0 0 0 0 0 0 3 4 2 0 4 14 4 1 0 5 0 0 0 0 0 3 4 4 7 7 8 8 10 12 14 15 11 54 25 13 9 0
0 0 0 0 0 0 0 0 1 3 9 12 11 10 10 9 12 5 0 1 11 1 0 0 0 0 1 3 4 4 4 5 7 8 5 5 10 0 5 4 24 53 32
0 0 0 0 0 0 0 0 0 6 7 4 10 15 11 12 20 6 6 19 6 5 0 0 0 0 0 1 2 2 2 3 4 4 3 5 5 8 3 1 3 16 89
0 0 0 0 0 0 0 0 0 0 6 12 12 13 12 19 18 14 12 13 13 11 0 0 0 0 1 1 0 0 0 0 0 0 2 4 5 7 7 6 5 1 1
0 0 0 0 0 0 0 0 1 5 9 11 8 7 12 19 19 19 19 15 12 7 4 4 0 0 0 0 0 0 0 0 0 0 0 3 4 7 11 2 1 0 0

GFSGL_con_sbcape_096.txt.gz
CAPE
330 294 612 1108 878 558 827 941 645 548 589 699 755 972 1114 1345 1285 899 916 1017 867 1012 911 1126 1163 708 962 1059 1389 691 790 615 512 204 554 368 355 418 707 672 684 883 1763
122 246 415 751 967 1143 1127 1090 772 497 399 349 259 233 281 507 877 1256 1009 1194 866 634 812 823 1024 855 696 979 1025 770 1090 609 845 1014 403 625 816 898 785 641 784 1284 980
84 140 156 217 781 940 1203 1284 899 340 306 203 23 0 0 3 646 1160 1264 1215 1225 1114 645 845 1136 1058 1043 848 789 643 697 893 1061 1131 1067 819 687 671 699 695 717 520 542
9 60 53 125 104 117 302 669 934 990 588 499 358 229 70 435 844 1208 1265 923 843 1066 1082 1234 1195 1127 1205 1052 857 850 688 770 787 916 842 728 608 758 581 703 1004 374 615
62 14 28 41 57 2 38 104 325 885 1184 1295 1168 1176 1163 1401 1489 1274 1424 1386 945 829 877 971 1262 1529 1602 1359 1231 1224 1063 1014 967 1069 1149 902 805 676 751 845 780 455 224
1 2 21 5 0 17 15 31 64 106 597 1146 1446 1213 1120 1414 1991 1545 1295 1296 1447 1266 1070 967 1014 1320 1431 1281 1142 1242 1526 1249 1131 987 789 830 710 528 484 731 441 459 385
0 0 2 1 0 0 1 0 0 2 14 98 672 1101 1105 1211 1502 1040 783 366 805 1174 1332 1221 1129 1332 1384 1379 1454 1310 335 224 935 721 670 383 349 183 146 106 158 313 340
0 0 3 3 1 0 0 0 0 0 1 0 19 191 521 1076 1253 972 354 73 104 146 543 1051 1274 1351 1199 1147 962 938 1193 968 263 1 168 413 173 279 1 111 103 262 416
0 0 0 0 0 0 0 0 0 0 0 0 0 9 97 249 411 96 1 485 485 389 320 337 593 1062 1401 1381 643 999 941 825 1186 1156 289 259 295 256 58 213 406 441 696
0 0 0 0 0 0 0 0 0 0 0 0 0 0 0 52 1 0 1 93 382 511 615 585 523 364 614 986 542 1012 1161 1111 1057 1042 1206 432 39 10 0 0 414 408 515
0 0 0 0 0 0 0 0 0 0 0 0 0 0 12 0 0 1 1 0 2 51 433 715 364 1 2 2 1 0 1 88 0 0 261 719 923 607 393 40 12 356 492
0 0 0 0 0 0 0 0 0 0 0 0 0 0 0 0 0 0 0 0 0 0 0 0 0 1 2 3 1 0 0 0 0 0 0 18 193 413 682 834 448 142 336
0 0 0 0 0 0 0 0 0 0 0 0 0 0 0 0 0 1 0 0 0 0 0 0 0 0 0 2 0 0 0 0 0 0 0 0 2 103 222 369 397 333 525
0 0 0 0 0 0 0 0 0 0 0 0 0 0 0 0 0 0 0 0 0 0 0 0 0 0 0 0 0 0 0 0 0 10 199 322 228 14 9 70 107 189 265
0 0 0 0 0 0 0 0 0 0 0 0 0 0 0 0 0 0 0 0 0 0 0 0 0 0 0 0 0 0 0 49 240 293 154 272 300 169 56 25 31 158 255
0 0 0 0 0 0 0 0 0 0 0 0 0 0 0 0 0 0 0 0 1 0 0 0 0 0 1 1 1 1 1 7 8 161 228 141 226 345 349 301 228 240 359
0 0 0 0 0 0 0 0 0 0 0 0 0 0 0 0 0 0 0 0 1 0 0 0 0 0 0 0 1 8 20 19 7 20 44 169 415 403 341 397 466 424 508
0 0 0 0 0 0 0 0 0 0 0 0 0 0 0 0 0 0 0 0 0 0 0 1 0 0 6 3 2 2 3 5 2 2 5 9 18 447 643 687 607 610 571
0 0 0 0 0 0 0 0 0 0 0 0 0 0 0 0 0 0 0 0 0 0 0 1 11 1 0 0 0 0 3 8 10 11 4 9 16 46 227 425 456 520 390
0 0 0 0 0 0 0 0 0 0 0 0 0 0 0 0 0 0 0 0 0 5 11 2 0 0 5 4 4 4 6 8 10 13 6 7 8 11 30 281 333 175 21
0 0 0 0 0 0 0 0 0 0 0 0 0 0 0 0 0 0 0 4 9 19 19 0 1 0 0 0 3 1 0 3 7 11 14 8 18 7 9 9 31 289 347
0 0 0 0 0 0 0 0 0 0 0 0 0 0 0 0 0 2 5 1 2 2 1 24 7 0 0 0 0 5 4 0 1 8 9 12 11 10 13 16 14 23 0
0 0 0 0 0 0 0 0 0 0 0 0 0 0 1 4 5 8 8 8 7 12 21 32 17 2 0 0 1 4 6 4 2 6 6 7 7 6 9 12 16 11 15
0 0 0 0 0 0 0 0 0 0 1 1 3 3 8 8 6 4 8 12 14 18 12 18 20 9 0 1 0 2 4 2 2 3 2 3 4 4 5 8 12 14 16
0 0 0 0 0 0 0 0 0 0 0 1 2 6 9 9 9 9 15 14 15 16 23 29 10 6 4 4 1 0 0 0 0 0 0 2 2 2 4 5 7 12 15
0 0 0 0 0 0 0 0 0 0 0 0 0 3 5 7 7 10 12 15 17 15 11 9 13 10 8 0 0 0 0 0 0 0 0 1 1 1 3 4 5 9 10

GFSGL_con_sbcape_099.txt.gz
CAPE
511 329 390 517 362 293 377 471 715 569 491 696 847 914 1031 1117 1022 854 794 738 769 595 611 728 860 597 639 718 899 460 690 177 555 422 31 177 239 503 696 461 536 781 474
154 326 456 537 553 580 448 494 760 680 435 523 530 492 651 798 944 1024 803 901 891 814 471 467 590 749 535 315 651 492 724 455 499 587 382 470 639 471 537 683 593 559 258
21 57 125 164 228 498 568 392 661 614 311 267 209 126 128 132 279 643 1075 965 863 827 918 524 405 623 706 520 402 416 286 469 514 615 651 471 445 301 545 549 554 386 258
68 21 36 96 0 0 9 105 281 674 354 245 162 30 0 0 0 304 761 990 995 890 866 758 702 919 940 909 755 673 540 513 372 432 478 457 399 527 393 451 531 233 201
93 18 9 49 30 12 12 13 12 114 493 468 394 336 215 164 394 589 809 1155 953 749 639 735 874 1032 1219 1141 1070 1112 838 803 726 640 624 547 443 303 313 268 378 147 32
23 54 19 12 20 12 0 0 0 0 9 61 494 787 651 900 1563 1421 1115 1111 1179 1115 991 797 675 759 745 812 606 238 871 1056 1041 751 846 703 495 244 108 233 119 44 173
1 2 1 2 1 1 0 0 0 0 0 0 14 179 314 467 583 222 2 223 739 827 988 1028 939 1068 946 858 984 802 289 37 221 965 875 688 479 137 53 25 0 7 58
0 0 0 0 0 0 0 0 0 0 0 0 0 0 24 224 82 2 1 0 138 145 157 424 638 805 930 986 939 885 731 615 312 0 70 495 377 184 15 107 81 8 19
0 0 0 0 0 0 0 0 0 0 0 0 0 0 0 8 1 1 1 37 224 254 186 132 244 369 495 645 332 564 702 713 778 672 221 146 44 28 20 2 163 200 706
0 0 0 0 0 0 0 0 0 0 0 0 0 0 16 35 1 1 1 2 32 40 157 301 1 1 0 1 0 68 350 493 350 106 87 239 30 0 0 0 151 357 520
0 0 0 0 0 0 0 0 0 0 0 0 0 16 0 0 0 0 0 0 0 0 0 0 1 1 0 1 1 1 0 0 0 0 0 0 2 112 217 4 0 139 392
0 0 0 0 0 0 0 0 0 0 0 0 0 0 0 0 0 0 0 0 0 0 0 0 1 1 1 0 0 1 1 1 1 0 0 4 8 25 105 176 221 9 186
0 0 0 0 0 0 0 0 0 0 0 0 0 0 0 0 0 0 0 0 0 0 0 0 0 0 0 0 0 0 0 1 0 1 0 0 87 100 52 24 19 230 259
0 0 0 0 0 0 0 0 0 0 0 0 0 0 0 0 0 0 0 0 0 0 0 0 0 0 0 0 0 0 0 0 0 0 0 33 165 277 172 73 19 0 0
0 0 0 0 0 0 0 0 0 0 0 0 0 0 0 0 0 0 0 0 0 0 0 0 0 0 0 0 0 0 0 0 0 2 8 28 70 170 255 176 19 0 0
0 0 0 0 0 0 0 0 0 0 0 0 0 0 0 0 0 0 0 0 0 0 0 0 0 0 0 0 1 1 1 3 3 3 6 6 8 10 52 172 131 148 160
0 0 0 0 0 0 0 0 0 0 0 0 0 0 0 0 0 0 0 0 0 0 0 0 0 0 1 1 17 2 2 1 0 0 2 3 6 5 6 17 42 224 111
0 0 0 0 0 0 0 0 0 0 0 0 0 0 0 0 0 0 0 0 0 0 0 1 5 5 7 3 2 2 0 0 0 0 2 7 5 16 14 10 12 47 124
0 0 0 0 0 0 0 0 0 0 0 0 0 0 0 0 0 0 0 0 0 0 0 3 8 3 1 1 0 0 1 3 3 2 4 4 7 11 4 7 10 6 10
0 0 0 0 0 0 0 0 0 0 0 0 0 0 0 0 0 0 0 0 0 1 7 11 7 12 20 12 3 0 0 0 3 2 0 1 3 11 16 17 10 14 7
0 0 0 0 0 0 0 0 0 0 0 0 0 0 0 0 0 0 0 1 2 2 4 4 10 13 10 29 5 7 9 6 4 3 0 2 3 1 0 10 12 7 14
0 0 0 0 0 0 0 0 0 0 0 0 0 0 0 0 0 0 1 0 1 2 1 12 20 19 26 27 13 13 10 13 7 5 0 0 3 1 1 4 9 7 9
0 0 0 0 0 0 0 0 0 0 0 0 0 0 0 0 0 0 1 4 1 4 13 17 18 12 5 14 20 20 21 12 2 5 0 0 0 0 0 0 5 4 6
0 0 0 0 0 0 0 0 0 0 0 0 0 0 0 2 2 2 3 5 5 6 9 9 11 14 8 12 19 20 16 11 5 3 9 8 4 3 2 1 6 5 7
0 0 0 0 0 0 0 0 0 0 0 0 0 0 0 0 0 0 0 1 2 6 11 14 13 6 3 6 12 11 9 0 0 0 1 4 5 4 3 3 3 3 4
0 0 0 0 0 0 0 0 0 0 0 0 0 0 0 0 0 1 2 4 8 9 11 11 11 13 15 13 8 1 0 0 0 0 0 1 2 2 2 3 2 3 4

GFSGL_con_sbcape_102.txt.gz
CAPE
154 100 146 167 188 223 238 208 283 477 398 476 601 745 965 912 970 904 760 985 961 850 727 961 1091 970 908 936 1400 826 1055 484 996 1195 336 735 851 1099 1504 1357 1242 1734 1064
163 188 234 298 398 231 311 267 391 677 467 353 523 786 933 854 1075 1054 1007 826 964 913 873 663 825 730 907 700 971 1013 1037 922 965 1102 768 831 1026 1036 1033 1211 1399 859 867
55 53 54 0 0 59 129 256 425 559 517 212 239 476 543 558 638 576 845 1000 682 694 697 683 763 653 1005 845 642 683 585 663 691 932 992 764 851 782 1131 1178 1031 1034 456
17 2 25 0 0 0 0 0 44 311 662 288 243 179 28 35 51 189 545 910 1103 978 749 781 709 641 863 1219 1016 1070 969 839 769 808 849 839 819 1086 664 595 1068 947 751
81 32 19 35 6 0 0 0 0 3 54 410 442 369 267 76 40 92 205 613 1082 1137 953 890 1016 834 742 1037 1394 1745 1262 1306 1328 1259 1283 1021 1210 1140 1232 817 706 634 663
103 66 28 2 5 0 0 0 0 0 0 0 63 403 527 665 701 24 51 967 1207 1286 1446 1516 1235 773 890 622 158 189 590 1574 1767 1303 1407 1381 1522 892 735 798 686 722 985
2 2 2 5 3 2 0 0 0 0 0 0 0 37 92 288 1 1 1 97 699 1078 1142 1289 1335 1263 1041 1192 937 518 211 5 160 1510 1485 1584 1281 1261 869 789 581 381 712
0 0 0 5 1 1 0 0 0 0 0 0 0 0 7 71 1 1 1 88 210 272 166 242 371 652 560 358 846 1075 1176 1119 759 211 373 1033 1200 1257 769 947 789 423 340
0 0 0 0 0 0 0 0 0 0 0 0 0 1 76 1 1 1 0 95 60 80 213 165 51 94 1 0 3 467 748 847 697 497 140 64 41 11 6 39 545 740 841
0 0 0 0 0 0 0 0 0 0 0 0 27 8 4 7 0 0 0 0 0 0 0 0 0 1 0 1 2 5 7 196 172 115 215 153 62 90 0 0 359 636 775
0 0 0 0 0 0 0 0 0 0 0 0 0 0 0 0 0 0 0 0 0 0 0 0 2 0 0 0 1 0 1 0 0 0 0 27 108 164 246 193 54 317 616
0 0 0 0 0 0 0 0 0 0 0 0 0 0 0 0 0 0 0 0 0 0 0 1 0 0 0 0 0 0 1 1 0 0 0 0 0 61 230 300 622 303 453
0 0 0 0 0 0 0 0 0 0 0 0 0 0 0 0 0 0 0 0 0 0 0 0 0 0 0 0 0 1 1 2 6 5 4 3 8 90 243 433 528 582 619
0 0 0 0 0 0 0 0 0 0 0 0 0 0 0 0 0 0 0 0 0 0 0 0 0 0 0 0 0 0 4 11 18 22 17 34 62 20 160 321 335 597 326
0 0 0 0 0 0 0 0 0 0 0 0 0 0 0 0 0 0 0 0 0 0 1 0 0 0 0 0 0 0 4 11 0 2 3 1 0 2 5 17 11 32 123
0 0 0 0 0 0 0 0 0 0 0 0 0 0 0 0 0 0 0 0 0 0 0 1 2 4 5 7 3 13 14 0 0 0 2 0 0 1 6 5 22 24 24
0 0 0 0 0 0 0 0 0 0 0 0 0 0 0 0 0 0 0 0 0 0 1 5 13 14 6 9 31 5 3 0 0 0 4 3 1 0 3 6 7 14 17
0 0 0 0 0 0 0 0 0 0 0 0 0 0 0 0 0 0 0 0 0 0 0 1 4 16 26 26 22 9 4 2 1 1 3 7 6 7 5 2 4 9 17
0 0 0 0 0 0 0 0 0 0 0 0 0 0 0 0 0 0 0 0 0 0 0 1 3 0 5 4 10 32 16 11 10 7 3 6 4 5 7 7 15 5 6
0 0 0 0 0 0 0 0 0 0 0 0 0 0 0 0 0 0 0 0 1 1 1 1 2 18 13 27 17 18 34 28 19 11 10 5 4 1 1 9 13 7 13
0 0 0 0 0 0 0 0 0 0 0 0 0 0 0 0 0 0 0 1 2 2 2 6 11 12 11 21 30 39 38 23 28 16 14 19 18 8 8 5 1 1 9
0 0 0 0 0 0 0 0 0 0 0 0 0 0 0 0 0 0 0 1 1 2 3 6 14 26 36 45 50 45 34 18 28 23 17 20 10 16 4 11 8 1 5
0 0 0 0 0 0 0 0 0 0 0 0 0 0 0 0 0 0 3 2 4 3 4 7 23 25 23 24 35 31 17 11 18 22 27 29 22 13 15 16 4 2 2
0 0 0 0 0 0 0 0 0 0 0 0 0 0 0 0 0 0 2 2 1 1 1 11 14 15 19 18 17 14 12 17 31 35 34 40 24 11 16 12 6 4 4
0 0 0 0 0 0 0 0 0 0 0 0 0 0 0 0 0 0 0 0 0 0 1 3 6 9 14 16 14 22 8 0 0 0 6 10 13 15 16 13 11 9 9
0 0 0 0 0 0 0 0 0 0 0 0 0 0 0 0 0 0 0 3 2 3 6 4 3 3 13 10 9 2 0 0 0 0 1 4 5 6 7 8 8 10 9

GFSGL_con_sbcape_105.txt.gz
CAPE
552 984 1038 1204 1148 1255 1199 1134 1264 1294 1386 1252 1509 1490 1679 1988 2001 2290 2161 2198 2289 2320 2012 2134 2140 2378 1774 1823 2083 2274 1942 1766 1273 919 1523 1561 2224 2352 2261 2416 1734 1437 737
678 781 827 913 1088 1165 1255 1225 1119 1218 1565 1663 1717 1808 1953 1835 1966 2298 2089 1975 2141 2013 1961 1990 2009 1677 2073 2079 1893 2199 1714 1915 1736 1943 2085 2021 2387 2634 2715 2866 1859 1701 2164
559 731 921 1033 1168 1337 1263 1335 1591 1511 1691 1594 1351 1602 1682 1882 1993 2130 2144 2124 2088 2000 1948 1860 1739 1980 2245 2020 2253 2052 1511 1860 1997 2043 2180 2175 2393 2375 2558 2317 2514 2565 1715
154 153 258 591 625 532 582 700 1052 1416 1654 1548 1394 1256 1309 1132 1042 1087 1284 1380 1622 1517 1987 1968 1916 1867 2083 2239 1940 2161 2311 2746 2512 2556 1996 1874 1981 2215 2243 1956 1794 1718 1705
67 23 9 33 183 199 234 229 419 760 1017 1426 1620 1473 1196 887 760 924 1002 1177 1177 1729 1862 1875 2009 1644 1240 1328 2170 2709 2171 2497 1626 1228 1533 1581 1632 1488 1623 1682 1689 1481 1433
149 65 83 56 155 87 98 67 123 242 344 711 1031 1263 1268 960 0 1 231 1806 1994 2231 2181 2389 2225 1484 1137 282 141 56 443 2269 2639 2741 2425 1900 2452 2217 1681 1673 1677 1492 1153
5 53 28 3 2 2 22 19 12 78 133 191 295 502 513 118 0 0 0 1465 1668 1748 1814 1893 1813 1499 1423 1696 1395 938 439 0 70 2094 2358 2647 2582 2326 2273 2234 1902 1842 1754
0 1 2 3 3 2 0 0 0 0 7 121 263 322 7 0 0 0 1 1091 1226 799 704 695 753 294 1 1 699 1446 1802 2042 2122 1699 1705 1863 2052 2076 2159 2058 1918 1714 1650
0 0 0 0 0 0 0 0 0 0 0 110 143 8 0 0 0 0 0 1 0 0 2 1 1 0 2 1 15 73 551 1281 1101 437 100 5 0 0 57 447 1255 1542 1572
0 0 0 0 0 0 0 0 0 3 2 0 0 0 0 0 0 0 0 0 0 0 0 0 0 0 0 0 0 0 0 0 3 0 371 593 388 1003 267 374 1150 1643 1851
0 0 0 0 0 0 0 0 0 0 0 0 0 0 0 0 0 0 0 0 0 0 0 0 0 0 0 0 1 0 0 0 0 0 0 0 0 42 198 574 1031 1066 1098
0 0 0 0 0 0 0 0 0 0 0 0 0 0 0 0 0 0 0 0 0 0 0 0 0 0 0 0 0 1 1 0 0 0 0 0 0 7 36 147 350 590 905
0 0 0 0 0 0 0 0 0 0 0 0 0 0 0 0 0 0 0 0 0 0 0 0 0 0 0 0 0 0 0 0 8 11 11 5 3 1 1 15 44 278 929
0 0 0 0 0 0 0 0 0 0 0 0 0 0 0 0 0 0 0 0 0 0 0 0 0 0 0 0 0 0 0 4 6 5 3 1 0 0 0 0 0 0 0
0 0 0 0 0 0 0 0 0 0 0 0 0 0 0 0 0 0 0 0 0 0 0 0 0 0 0 0 0 0 5 16 7 5 1 1 0 0 0 0 0 0 0
0 0 0 0 0 0 0 0 0 0 0 0 0 0 0 0 0 0 0 0 0 0 0 0 0 0 0 6 6 10 12 15 16 12 7 7 5 4 3 0 0 0 0
0 0 0 0 0 0 0 0 0 0 0 0 0 0 0 0 0 0 0 0 0 0 0 0 0 0 0 2 5 5 6 5 13 11 13 13 14 10 7 5 5 3 0
0 0 0 0 0 0 0 0 0 0 0 0 0 0 0 0 0 0 0 0 0 0 0 0 0 0 0 0 0 3 8 7 12 12 8 16 8 14 14 10 13 12 8
0 0 0 0 0 0 0 0 0 0 0 0 0 0 0 0 0 0 0 0 0 0 0 0 0 0 0 0 0 1 1 2 8 14 16 17 9 7 7 5 7 7 4
0 0 0 0 0 0 0 0 0 0 0 0 0 0 0 0 0 0 0 0 0 0 0 0 0 0 0 4 4 6 5 5 8 0 6 21 13 15 27 30 25 22 19
0 0 0 0 0 0 0 0 0 0 0 0 0 0 0 0 0 0 0 0 0 0 0 0 1 2 1 4 5 5 3 5 10 16 21 30 40 14 24 26 23 12 10
0 0 0 0 0 0 0 0 0 0 0 0 0 0 0 0 0 0 0 0 0 2 5 7 9 8 8 17 16 20 16 14 15 24 31 20 7 16 35 34 28 26 25
0 0 0 0 0 0 0 0 0 0 0 0 0 0 0 0 0 0 0 0 0 2 5 4 9 6 8 10 12 20 28 34 37 32 34 33 37 28 31 34 32 28 20
0 0 0 0 0 0 0 0 0 0 0 0 0 0 0 0 0 0 0 0 0 1 2 4 5 6 10 11 12 9 14 27 32 31 28 36 27 25 25 20 22 21 24
0 0 0 0 0 0 0 0 0 0 0 0 0 0 0 0 0 0 0 0 0 1 1 4 5 6 6 5 11 10 5 0 2 0 16 16 15 16 13 13 14 16 17
0 0 0 0 0 0 0 0 0 0 0 0 0 0 0 0 0 0 0 0 0 0 5 7 7 7 5 8 7 1 0 0 1 0 3 7 6 7 9 10 10 14 12

GFSGL_con_sbcape_108.txt.gz
CAPE
983 1009 884 894 711 1273 1247 908 1005 1358 2115 1459 1455 1513 1330 1612 2028 2160 1861 1477 1744 1836 1726 1920 1852 1925 1289 1040 1185 1226 1102 1045 1114 757 907 1078 2038 2206 2413 2603 1867 1262 740
990 902 1291 924 776 635 1001 817 1082 992 1595 1336 1360 1745 1481 1559 1825 1873 1692 1395 1737 1688 1665 1718 1707 1446 2230 2085 1452 1425 1665 1756 1381 2130 2239 1249 1666 2159 2193 2924 2020 1212 1237
1091 974 1046 1174 688 806 855 1127 1051 1150 1030 1202 1445 1272 1104 1323 1404 1417 1605 1559 1596 1352 1267 1398 1589 1593 1936 1816 2012 1541 1241 1255 1592 1527 1438 1052 1205 1596 1835 2418 2100 1750 824
1018 1081 1184 1143 653 960 1050 1298 1097 996 1215 1087 1059 1257 1142 1476 1276 1411 1346 1285 1350 1328 1406 1351 1428 1481 1709 1894 1828 2093 1886 1837 1450 1661 1187 987 927 1394 1570 954 770 704 828
204 728 924 1056 1233 1103 1216 1201 1269 1452 1393 1394 1186 1299 1431 1427 1072 1717 1710 1708 1835 1631 1694 1678 1440 1231 951 1219 1565 1704 2104 2102 1370 1250 1104 929 921 1895 1704 1039 806 672 1131
117 58 11 120 107 521 683 713 836 978 1193 1536 1548 1416 1337 1026 1 0 135 2071 1831 1815 1751 1761 1653 1166 1255 917 596 332 532 2327 2092 1777 1229 1394 2197 1887 1432 1187 1546 1400 1557
219 125 32 23 3 4 37 198 486 587 654 759 1081 1118 265 98 0 0 0 1455 1805 1665 1721 1904 1819 766 479 1206 1253 651 535 409 241 2129 2256 2269 2334 3444 3339 2603 2575 2266 2234
4 24 21 17 19 3 4 14 89 275 412 552 211 111 2 0 0 0 132 1320 785 232 351 238 54 0 0 0 577 1493 1768 1839 1827 1914 2407 2310 2449 2021 2155 2565 2476 2439 2152
1 1 2 1 7 22 8 1 1 10 248 42 17 4 0 0 0 0 0 251 202 183 10 0 0 0 0 0 9 298 496 924 730 47 30 42 194 191 126 1050 1540 2357 1611
0 0 1 0 2 8 2 5 28 6 1 0 0 0 0 0 0 0 0 0 0 0 0 0 0 0 0 0 0 0 0 28 0 0 8 233 175 732 251 1046 1667 1592 2323
0 0 0 0 0 4 5 20 14 1 0 0 0 0 0 0 0 0 0 0 0 0 0 0 0 0 0 0 0 0 0 0 0 0 2 72 151 213 278 567 689 591 604
0 0 0 0 0 0 5 9 3 0 0 0 0 0 0 0 0 0 0 0 0 0 0 0 0 0 0 0 0 0 0 0 0 0 4 8 8 1 0 0 12 99 216
2 1 1 0 1 3 1 1 0 0 0 0 0 0 0 0 0 0 0 0 0 0 0 0 0 0 0 0 0 0 0 0 0 0 0 0 0 0 0 0 0 0 3
1 0 0 0 0 0 0 0 0 0 0 0 0 0 0 0 0 0 0 0 0 0 0 0 0 0 0 0 0 0 0 7 2 0 0 0 0 0 0 0 0 0 0
0 0 0 0 0 0 0 0 0 0 0 0 0 0 0 0 0 0 0 0 0 0 0 0 0 0 0 0 0 0 0 0 0 0 0 0 0 0 0 0 0 0 0
0 0 0 0 0 0 0 0 0 0 0 0 0 0 0 0 0 0 0 0 0 0 0 0 0 0 0 0 0 0 0 0 1 0 0 0 0 0 0 0 0 0 0
0 0 0 0 0 0 0 0 0 0 0 0 0 0 0 0 0 0 0 0 0 0 0 0 0 0 0 0 0 0 0 0 0 0 0 0 0 0 1 0 0 0 0
0 0 0 0 0 0 0 0 0 0 0 0 0 0 0 0 0 0 0 0 0 0 0 0 0 0 0 0 0 0 0 0 0 0 1 3 5 4 2 0 0 1 1
0 0 0 0 0 0 0 0 0 0 0 0 0 0 0 0 0 0 0 0 0 0 0 0 0 0 0 0 0 0 0 0 0 0 0 0 3 8 11 8 5 1 5
0 0 0 0 0 0 0 0 0 0 0 0 0 0 0 0 0 0 0 0 0 0 0 0 0 0 0 0 0 0 0 0 0 0 0 0 1 7 11 14 14 14 13
0 0 0 0 0 0 0 0 0 0 0 0 0 0 0 0 0 0 0 0 0 0 0 0 0 0 0 0 0 0 0 0 1 1 3 5 6 9 14 27 22 13 17
0 0 0 0 0 0 0 0 0 0 0 0 0 0 0 0 0 0 0 0 0 0 0 0 0 0 0 2 4 4 5 8 12 14 18 15 18 18 20 22 22 19 18
0 0 0 0 0 0 0 0 0 0 0 0 0 0 0 0 0 0 0 0 0 0 0 0 1 1 5 6 8 9 14 13 15 22 22 20 18 17 18 18 17 21 18
0 0 0 0 0 0 0 0 0 0 0 0 0 0 0 0 0 0 0 0 0 0 0 1 1 4 6 7 6 9 8 9 12 14 21 25 17 15 17 17 18 15 9
0 0 0 0 0 0 0 0 0 2 1 0 0 0 1 1 1 0 0 0 0 0 0 0 0 0 2 2 4 6 0 0 2 0 8 19 17 19 18 16 13 14 18
0 0 1 8 8 3 0 0 0 2 4 10 5 4 4 4 3 2 0 0 0 0 0 0 0 0 1 2 3 0 0 0 1 0 1 9 11 11 5 8 9 12 11

GFSGL_con_sbcape_111.txt.gz
CAPE
1176 1222 1008 732 684 986 1087 1106 1267 1404 1589 1782 1720 1560 1679 1769 1738 1937 2704 2423 1835 1768 1809 1803 1672 2542 1547 952 1034 886 741 666 813 863 683 1007 3158 3140 2195 2701 1551 2706 821
1931 2284 1375 1218 814 562 776 945 1123 1425 1497 1620 1795 1779 1641 1727 2387 1947 1713 1772 1897 1618 1628 1522 1364 957 2595 3424 1091 2812 1565 1952 771 2511 1393 1258 2549 2880 3047 3907 1671 1046 1220
1843 1412 1332 2240 1203 831 645 677 978 1540 1662 1426 1530 1777 2072 1901 2141 2166 1952 1845 1734 1935 1956 1998 1444 1441 1872 2131 2294 1932 1257 1435 2007 1405 1278 794 1328 1335 1951 3161 3443 2736 673
1207 1217 1882 1823 1486 1070 1190 751 814 1154 1433 1531 1622 1507 1499 1745 1827 1746 1685 1762 1650 1356 1282 1276 1617 1469 1734 1944 1993 2644 2602 2201 1974 1357 1161 877 1025 2924 2760 1232 1260 923 998
335 922 975 1885 2268 1525 1443 1214 973 1088 1204 1201 1353 1391 1413 1396 935 1128 1636 1755 1834 1575 1442 1511 1563 1251 789 929 1084 2647 3287 2100 1660 1516 1117 871 719 1602 1187 1038 1449 1352 2054
366 476 701 1210 824 1444 1650 1345 1610 1169 1269 1234 1187 1265 1400 35 3 1 20 1587 1639 1795 1714 1737 1227 1816 1573 672 548 414 688 2044 2816 2686 1616 1484 2860 2187 1664 1781 1931 1840 1710
348 301 140 291 40 85 136 683 1067 975 1045 1189 1275 694 184 0 0 0 0 891 1635 1616 1812 2177 1979 735 312 758 1047 669 593 592 329 1606 2138 2461 2706 3080 3136 2739 2701 2568 2102
342 232 106 26 3 2 0 1 17 223 818 1007 354 80 0 0 0 0 0 1565 918 847 715 600 458 38 0 0 3 1004 1362 1434 2039 1565 2078 2013 1932 1591 1565 2120 2622 2641 2382
2 4 28 98 110 66 5 0 3 163 66 90 74 0 0 0 0 0 0 860 618 248 0 0 0 0 0 0 0 23 104 410 136 5 0 0 0 0 29 713 1661 2309 2158
2 1 0 2 2 70 166 168 253 73 7 0 0 0 0 0 0 0 0 110 199 131 72 0 0 0 0 0 0 0 0 0 0 0 3 229 98 440 7 396 1550 1454 842
0 0 4 11 17 23 70 105 8 0 0 0 0 0 0 0 0 0 0 0 0 0 4 1 0 0 0 0 0 0 0 0 0 3 35 46 52 184 146 106 357 11 3
0 0 0 7 4 11 44 26 9 1 0 0 0 0 0 0 0 0 0 0 0 0 0 0 0 0 0 0 0 0 0 0 0 0 1 1 0 0 0 0 13 129 0
0 0 0 0 8 24 27 25 3 5 10 11 2 1 0 0 0 0 0 0 0 0 0 0 0 0 0 0 0 0 0 0 0 0 0 0 0 0 6 0 1 17 2
6 9 6 4 1 0 3 4 6 8 5 2 1 0 0 0 0 0 0 0 0 0 0 0 0 0 0 0 0 0 0 0 0 0 0 0 0 0 0 0 0 0 0
3 0 0 0 0 0 0 0 0 0 0 0 0 0 0 0 0 0 0 0 0 0 0 0 0 0 0 0 0 0 0 0 0 0 0 0 0 0 0 0 0 0 0
0 0 0 0 0 0 0 0 0 0 0 0 0 0 0 0 0 0 0 0 0 0 0 0 0 0 0 0 0 0 0 0 0 0 0 0 0 0 0 0 0 0 0
0 0 0 0 0 0 0 0 0 0 0 0 0 0 0 0 0 0 0 0 0 0 0 0 0 0 0 0 0 0 0 0 0 0 0 0 0 0 0 0 0 0 0
0 0 0 0 0 0 0 0 0 0 0 0 0 0 0 0 0 0 0 0 0 0 0 0 0 0 0 0 0 0 0 0 0 0 0 0 0 0 0 0 0 0 0
0 0 0 0 0 0 0 0 0 0 0 0 0 0 0 0 0 0 0 0 0 0 0 0 0 0 0 0 0 0 0 0 0 0 0 0 0 0 0 0 0 0 0
0 0 0 0 0 0 0 0 0 0 0 0 0 0 0 0 0 0 0 0 0 0 0 0 0 0 0 0 0 0 0 0 0 0 0 0 0 0 0 0 0 0 0
0 0 0 0 0 0 0 0 0 0 0 0 0 0 0 0 0 0 0 0 0 0 0 0 0 0 0 0 0 0 0 0 0 0 0 1 1 1 2 3 5 4 6
0 0 0 0 0 0 0 0 0 0 0 0 0 0 0 0 0 0 0 0 0 0 0 0 0 0 0 0 0 0 0 0 0 0 1 4 5 4 5 8 7 6 8
0 0 0 0 0 0 0 0 0 0 0 0 0 0 0 0 0 0 0 0 0 0 0 0 0 0 0 0 0 0 0 1 2 5 7 9 9 11 10 9 11 11 13
0 0 0 0 0 0 0 0 0 0 0 0 0 0 0 0 0 0 0 0 0 0 0 0 0 0 0 1 2 3 4 2 2 7 6 11 11 13 18 7 6 16 15
0 0 1 0 0 0 0 0 0 0 0 0 0 1 1 1 0 0 0 0 0 0 0 1 2 0 0 0 2 5 0 0 0 0 4 10 9 8 7 11 9 11 11
0 0 0 13 23 18 11 3 1 0 5 8 12 16 12 10 11 10 7 4 5 6 7 11 8 4 2 2 3 0 0 0 0 0 0 5 8 9 4 9 7 13 9

GFSGL_con_sbcape_114.txt.gz
CAPE
1490 1391 1618 1317 1432 2197 2206 2490 2580 411 71 1653 2331 2259 2339 2641 2603 2674 2246 2353 1937 2953 2930 2861 2467 2667 2544 2023 1731 1465 1060 1469 1346 1063 858 947 1595 2020 2774 2832 3163 1985 1590
1507 1317 1891 1548 1661 1551 1914 2042 1984 2226 1682 1944 2750 3042 2763 2392 2063 2528 2822 1699 1817 1932 2332 2642 2528 1596 2619 2947 2642 2703 2523 1984 2445 1903 2426 2005 2078 1959 3655 3632 2862 1585 1559
926 1882 1273 1470 1647 1980 1785 1998 2388 2604 2820 2283 2333 2806 2652 2484 2443 2211 2732 2682 2221 2318 2122 1946 1190 2020 2265 2614 2963 2831 2214 2305 1918 2194 2020 1627 1447 1746 1409 2495 1569 2629 979
1725 1555 1737 1751 1142 949 1743 2282 1962 2823 2329 2165 2079 2042 2785 2057 1937 2037 2225 1801 2676 2194 2544 2010 1939 1981 1714 2539 1940 2227 2277 2066 1673 1936 991 834 1514 1627 1856 1593 1422 1963 1639
264 229 1165 903 790 1181 1022 1602 2367 1909 2489 2070 1788 1882 1978 436 0 0 187 915 1601 1620 2166 1626 1589 698 453 651 1337 2406 2818 2535 2423 1546 1508 1392 1748 1782 1665 2092 1851 1934 1983
162 311 428 926 898 418 402 629 1622 1694 1680 1837 1571 1389 201 0 0 0 0 753 787 645 1222 1529 440 5 355 505 640 711 653 1759 1958 1854 1530 1457 1694 1973 1920 1998 2075 1991 1598
534 605 677 455 245 244 96 305 50 863 1010 1004 815 141 0 0 0 0 0 747 1698 1716 1178 1086 540 0 0 0 0 252 987 384 248 985 1647 1650 1515 1428 1940 1420 1082 1770 1704
620 422 301 99 13 3 3 2 3 70 304 20 15 0 0 0 0 0 0 1265 1319 529 240 558 0 0 0 0 0 366 418 820 1127 278 826 446 218 296 467 639 1083 1433 1312
174 259 192 134 33 0 0 2 10 2 0 0 0 0 0 0 0 0 0 1309 156 0 0 0 0 0 0 0 2 3 7 3 0 0 0 0 0 0 0 0 888 749 743
1 2 0 0 69 128 24 4 11 1 0 0 0 0 0 0 0 0 0 61 255 27 0 0 0 0 0 0 0 0 0 0 0 0 0 181 155 121 49 323 87 0 0
0 0 0 0 0 0 0 6 0 0 0 0 0 0 0 0 0 0 0 0 0 0 0 0 0 0 0 0 0 0 0 0 0 0 4 111 5 0 0 0 0 5 0
0 0 0 0 1 0 0 0 0 0 0 0 0 0 0 0 0 0 0 0 0 0 0 0 0 0 0 0 0 0 0 0 0 0 0 0 0 0 0 0 14 36 4
0 0 0 0 0 5 2 4 0 0 0 0 0 0 0 0 0 0 0 0 0 0 0 0 0 0 0 0 0 0 0 0 0 0 0 0 0 0 0 0 0 0 0
0 0 0 0 0 0 0 0 0 0 2 24 4 1 0 0 0 0 0 0 0 0 0 0 0 0 0 0 0 0 0 0 0 0 0 0 0 0 0 0 0 0 0
0 1 0 0 0 0 0 0 0 0 0 0 0 0 0 0 0 0 0 0 0 0 0 0 0 0 0 0 0 0 0 0 0 0 0 0 0 0 0 0 0 0 0
0 0 0 0 0 0 0 0 0 0 0 0 0 0 0 0 0 0 0 0 0 0 0 0 0 0 0 0 0 0 0 0 0 0 0 0 0 0 0 0 0 0 0
0 5 0 0 0 0 0 0 0 0 0 0 0 0 0 0 0 0 0 0 0 0 0 0 0 0 0 0 0 0 0 0 0 0 0 0 0 0 0 0 0 0 0
0 0 0 0 0 0 0 0 0 0 0 0 0 0 0 0 0 0 0 0 0 0 0 0 0 0 0 0 0 0 0 0 0 0 0 0 0 0 0 0 0 0 0
0 0 0 0 0 0 0 0 0 0 0 0 0 0 0 0 0 0 0 0 0 0 0 0 0 0 0 0 0 0 0 0 0 0 0 0 0 0 0 0 0 0 0
0 0 0 0 0 0 0 0 0 0 0 0 0 0 0 0 0 0 0 0 0 0 0 0 0 0 0 0 0 0 0 0 0 0 0 0 0 0 0 0 0 0 0
0 0 0 0 0 0 0 0 0 0 0 0 0 0 0 0 0 0 0 0 0 0 0 0 0 0 0 0 0 0 0 0 0 0 0 0 0 0 0 0 0 0 1
0 0 0 0 0 0 0 0 0 0 0 0 0 0 0 0 0 0 0 0 0 0 0 0 0 0 0 0 0 0 0 0 0 0 0 0 0 0 0 0 0 1 3
0 0 0 0 0 0 0 0 0 0 0 0 0 0 0 0 0 0 0 0 0 0 0 0 0 0 0 0 0 0 0 0 0 0 0 0 0 2 2 4 3 2 2
0 0 0 0 0 0 0 0 0 0 0 0 0 0 0 0 0 0 0 0 0 0 0 0 0 0 0 0 0 2 0 0 0 0 0 0 2 3 7 0 0 2 5
0 0 0 0 0 0 0 0 0 0 0 0 0 1 0 0 0 0 0 0 0 0 0 5 7 6 0 0 0 0 0 0 0 0 0 0 2 7 2 0 0 1 1
0 0 0 0 0 1 0 0 0 0 0 3 1 0 0 21 14 14 13 13 6 0 3 11 7 8 0 0 0 0 0 0 0 0 0 0 0 3 0 0 0 1 3

GFSGL_con_sbcape_117.txt.gz
CAPE
886 854 733 772 1009 739 1062 846 795 131 0 0 0 323 816 1002 994 1117 1010 791 976 1061 1205 1294 1294 782 866 1031 1372 1318 1006 831 636 490 569 761 570 715 812 1438 1986 1874 905
708 743 764 849 657 1039 707 886 534 0 4 589 674 983 1016 1077 1381 1257 1388 1121 949 1033 1238 1101 1050 1294 1307 1453 938 978 1210 1041 957 971 639 726 540 918 579 627 1025 1397 888
718 746 765 598 756 757 898 708 834 648 621 873 928 1320 1265 1196 1100 859 879 1056 1114 941 860 906 971 1092 1285 767 790 740 1019 811 707 883 864 371 290 911 931 906 949 1220 1364
10 59 414 384 275 491 734 735 759 1022 1011 1056 1088 1040 1036 548 269 568 647 1067 691 906 832 1010 944 961 1047 936 595 853 1194 924 998 768 764 611 605 922 814 1194 991 1156 1195
181 262 284 346 435 434 481 353 363 892 794 686 689 400 0 0 2 4 416 178 241 151 4 506 6 63 58 128 331 465 670 696 932 824 697 557 734 981 1240 1140 1074 779 753
131 39 164 252 233 218 225 195 391 270 333 515 59 0 0 0 1 0 0 47 200 75 5 78 0 0 0 0 0 28 100 420 477 637 630 763 758 499 854 964 416 550 847
111 293 262 74 9 1 47 77 217 252 181 3 0 0 0 0 0 0 0 39 181 0 29 75 0 0 0 0 0 60 53 77 21 165 348 294 294 66 132 8 154 357 549
386 157 54 6 0 0 0 10 69 9 1 2 2 0 0 0 0 0 0 78 0 0 0 0 0 0 0 0 0 0 0 0 0 0 0 0 0 0 0 0 22 128 151
227 99 36 0 0 0 0 2 5 0 0 1 0 0 0 0 0 0 29 0 0 0 0 0 0 0 0 0 0 0 0 0 0 0 0 0 0 0 0 0 0 0 0
1 1 13 31 0 0 0 3 3 2 1 0 0 0 0 0 0 0 0 1 0 0 0 0 0 0 0 0 0 0 0 0 0 0 0 0 0 0 0 0 0 0 0
0 0 0 0 0 0 0 0 0 0 0 0 0 0 0 0 0 0 0 0 0 0 0 0 0 0 0 0 0 0 0 0 0 0 0 0 0 0 0 0 0 0 0
0 0 0 0 0 0 0 0 0 0 0 0 0 0 0 0 0 0 0 0 0 0 0 0 0 0 0 0 0 0 0 0 0 0 0 0 0 0 0 0 0 0 0
0 0 0 0 0 0 0 0 0 0 0 0 0 0 0 0 0 0 0 0 0 0 0 0 0 0 0 0 0 0 0 0 0 0 0 0 0 0 0 0 0 0 0
0 0 0 0 0 0 0 0 0 0 0 0 0 0 0 0 0 0 0 0 0 0 0 0 0 0 0 0 0 0 0 0 0 0 0 0 0 0 0 0 0 0 0
0 0 0 0 0 0 0 0 0 0 0 0 0 0 0 0 0 0 0 0 0 0 0 0 0 0 0 0 0 0 0 0 0 0 0 0 0 0 0 0 0 0 0
0 0 0 0 0 0 0 0 0 0 0 0 0 0 0 0 0 0 0 0 0 0 0 0 0 0 0 0 0 0 0 0 0 0 0 0 0 0 0 0 0 0 0
0 0 0 0 0 0 0 0 0 0 0 0 0 0 0 0 0 0 0 0 0 0 0 0 0 0 0 0 0 0 0 0 0 0 0 0 0 0 0 0 0 0 0
0 0 0 0 0 0 0 0 0 0 0 0 0 0 0 0 0 0 0 0 0 0 0 0 0 0 0 0 0 0 0 0 0 0 0 0 0 0 0 0 0 0 0
0 0 0 0 0 0 0 0 0 0 0 0 0 0 0 0 0 0 0 0 0 0 0 0 0 0 0 0 0 0 0 0 0 0 0 0 0 0 0 0 0 0 0
0 0 0 0 0 0 0 0 0 0 0 0 0 0 0 0 0 0 0 0 0 0 0 0 0 0 0 0 0 0 0 0 0 0 0 0 0 0 0 0 0 0 0
0 0 0 0 0 0 0 0 0 0 0 0 0 0 0 0 0 0 0 0 0 0 0 0 0 0 0 0 0 0 0 0 0 0 0 0 0 0 0 0 0 0 0
0 0 0 0 0 0 0 0 0 0 0 0 0 0 0 0 0 0 0 0 0 0 0 0 0 0 0 0 0 0 0 0 0 0 0 0 0 0 0 0 0 0 0
0 0 0 0 0 0 0 0 0 0 0 0 0 0 0 0 0 0 0 0 0 0 0 0 0 0 0 0 0 0 0 0 0 0 0 0 0 0 0 0 0 0 0
0 0 0 0 0 0 0 0 0 0 0 0 0 0 0 0 0 0 0 0 0 0 0 0 0 0 0 0 0 0 0 0 0 0 0 0 0 0 0 0 0 0 0
0 0 0 0 0 0 0 0 0 0 0 0 0 0 0 0 0 0 0 0 0 0 0 0 0 0 0 0 0 0 0 0 0 0 0 0 0 0 0 0 0 0 0
0 0 0 0 0 0 0 0 0 0 0 0 0 0 0 0 0 0 0 0 0 0 0 0 0 0 0 0 0 0 0 0 0 0 0 0 0 0 0 0 0 0 0